     2              OBSERVATION DATA    GPS                 RINEX VERSION / TYPE
ASRINEXO V2.2.0 UX USGS 16-FEB-94 15:24                     PGM / RUN BY / DATE
                                                            COMMENT
Original Marker Name: pico Pico_NCER_1977_USGS              COMMENT
Campaign Name: northridge eq profile                        COMMENT
4-Character Station Name: PICO                              COMMENT
6-Character Antenna Code: ASHP12                            COMMENT
Vertical Measurement Point: EGP                             COMMENT
Vertical Offset to Rinex Ref. Point: 0.0593                 COMMENT
Radial Measurement Point: EGP                               COMMENT
Radial Offset to Rinex Ref. Point: 0.1425                   COMMENT
Antenna Height from Field Measurement: 1.5110 m             COMMENT
Additional Antenna Identification Info.:                    COMMENT
Ashtech L1/L2 Revision B                                    COMMENT
Original XYZ: -2332604.3100 -4778625.4300 3510358.5800      COMMENT
New XYZ position is based on association with SCEC monument COMMENT
E1E9I3O4+0031. Position of that monument is believed to be  COMMENT
valid to within 1 m horizontally; vertical accuracy         COMMENT
should be no worse than 3-times this value.                 COMMENT
                                                            COMMENT
Revised Rinex header created by UCSD GPS archive for        COMMENT
GSAC on 31-Aug-1999 (1999:243) 18:50:38 GMT                 COMMENT
For assistance contact dagnew@ucsd.edu or hjohnson@ucsd.edu COMMENT
                                                            COMMENT
PICO PICO_NCER_1977_USGS                                    MARKER NAME
                                                            MARKER NUMBER
CHS US GEOLOGICAL SURVEY                                    OBSERVER / AGENCY
831 ASHTECH L-XII 7A                                        REC # / TYPE / VERS
27 ASHTECH GEODETIC P                                       ANT # / TYPE
 -2524519.0000 -4630052.0000  3577414.0000                  APPROX POSITION XYZ
        1.4450        0.0000        0.0000                  ANTENNA: DELTA H/E/N
     1     2     0                                          WAVELENGTH FACT L1/2
     3    C1    L1    L2                                    # / TYPES OF OBSERV
    30                                                      INTERVAL
  1994     2    14    23    38   30.000000                  TIME OF FIRST OBS
  1994     2    16     1    52   60.000000                  TIME OF LAST OBS
                                                            END OF HEADER
 94  2 14 23 38 30.0000000  0  1 15
  24771522.532    22728729.29113   -149304.286
 94  2 14 23 38 59.9990000  0  3  2  7 15
  20938734.955    -2407958.73518   -109838.930
  22403454.771    -5878439.48416   -250719.039
  24754968.742    22641795.342 3   -217043.377
 94  2 14 23 39 29.9990000  0  4  2 18  7 19
  20929588.947    -2456021.811 8   -147292.669 3
  23599653.210    16428151.87015    183421.548
  22381051.281    -5996184.854 6   -342461.835
  21029374.537    -4324621.07818     35351.333 1
 94  2 14 23 39 59.9990000  0  4  2 18  7 19
  20920548.735    -2503525.175 9   -184308.299 5
  23616883.572    16518681.576 5    253963.965 1
  22358749.780    -6113373.883 6   -433777.869 2
  21033404.047    -4303436.547 8     51858.800 3
 94  2 14 23 40 29.9990000  0  6  2 31 18  7 19 27
  20911627.691    -2550416.742 8   -220847.158 6
  23308182.631     2637747.81115    142282.190
  23634200.573    16609679.205 5    324871.031 1
  22336563.999    -6229969.002 6   -524631.123 3
  21037562.289    -4281592.162 8     68880.371 5
  19954636.023     7726660.50318    -49445.912 1
 94  2 14 23 40 59.9990000  0  6  2 31 18  7 19 27
  20902820.928    -2596685.495 9   -256900.717 7
  23321549.507     2708004.479 5    197028.919 1
  23651610.241    16701142.089 5    396140.643 1
  22314493.398    -6345953.037 6   -615008.207 3
  21041847.312    -4259071.848 8     86428.656 5
  19950291.131     7703834.731 8    -67232.440 5
 94  2 14 23 41 29.9990000  0  6  2 31 18  7 19 27
  20894138.789    -2642319.060 9   -292459.327 7
  23335058.425     2778968.846 5    252325.784 2
  23669091.559    16793056.403 5    467761.995 1
  22292537.887    -6461332.837 7   -704914.440 4
  21046260.737    -4235882.622 8    104498.158 6
  19946088.041     7681748.495 8    -84442.496 7
 94  2 14 23 41 59.9990000  0  6  2 31 18  7 19 27
  20885575.367    -2687318.246 9   -327523.597 8
  23348691.697     2850635.130 6    308169.644 2
  23686667.851    16885392.084 5    539711.765 1
  22270689.762    -6576123.696 6   -794361.797 4
  21050799.775    -4212030.614 8    123084.140 6
  19942028.611     7660404.893 8   -101073.845 8
 94  2 14 23 42 29.9990000  0  7  2 31 18  7 19 27 26
  20877135.160    -2731683.041 9   -362093.528 8
  23362465.092     2923002.512 6    364559.753 2
  23704312.196    16978134.797 5    611978.573 1
  22248960.835    -6690323.896 6   -883348.843 4
  21055463.736    -4187529.416 8    142175.975 6
  19938103.128     7639804.879 8   -117125.785 9
  24039004.184     4919968.54415   -242448.741 1
 94  2 14 23 42 59.9990000  0  7  2 31 18  7 19 27 26
  20868810.553    -2775421.559 9   -396175.506 8
  23376361.941     2996060.773 5    421488.241 2
  23722039.224    17071289.120 6    684566.196 1
  22227338.993    -6803936.391 6   -971878.011 5
  21060243.057    -4162399.488 8    161757.685 6
  19934329.401     7619943.661 8   -132602.079 9
  24018569.850     4812600.755 5   -326111.898 1
 94  2 14 23 43 29.9990000  0  7  2 31 18  7 19 27 26
  20860605.623    -2818541.191 9   -429775.172 9
  23390396.006     3069804.495 6    478950.898 2
  23739851.873    17164859.157 6    757477.698 2
  22205832.362    -6916962.631 6  -1059950.272 5
  21065140.497    -4136654.913 7    181818.411 7
  19930685.334     7600801.451 8   -147518.044 9
  23998233.549     4705795.017 5   -409337.023 1
 94  2 14 23 43 59.9990000  0  7  2 31 18  7 19 27 26
  20852511.377    -2861076.030 8   -462919.185 9
  23404558.561     3144210.296 6    536929.400 2
  23757737.161    17258855.992 6    830721.777 2
  22184434.046    -7029407.815 6  -1147569.833 5
  21070158.153    -4110303.368 8    202352.049 7
  19927172.006     7582334.840 8   -161907.592 9
  23978016.505     4599542.247 5   -492131.219 2
 94  2 14 23 44 29.9990000  0  7  2 31 18  7 19 27 26
  20844523.976    -2903064.783 9   -495637.702 9
  23418834.528     3219243.331 6    595396.634 2
  23775703.093    17353276.809 6    904296.351 2
  22163145.304    -7141276.736 6  -1234740.370 5
  21075285.653    -4083359.879 7    223346.940 7
  19923781.383     7564508.650 8   -175798.159 9
  23957892.936     4493831.798 5   -574502.934 2
 94  2 14 23 44 59.9990000  0  8  2 31 16 18  7 19 27 26
  20836633.379    -2944530.541 9   -527948.620 9
  23433230.682     3294869.986 5    654326.510 2
  24103286.132   -22843344.71615     73231.923
  23793750.929    17448093.067 6    978178.955 2
  22141968.174    -7252585.048 6  -1321473.998 5
  21080523.807    -4055827.874 7    244800.463 7
  19920505.521     7547299.664 8   -189207.699 9
  23937892.312     4388667.123 5   -656449.253 2
 94  2 14 23 45 29.9990000  0  8  2 31 16 18  7 19 27 26
  20828836.197    -2985497.184 9   -559870.698 9
  23447728.196     3371066.041 5    713699.994 2
  24109383.341   -22811261.888 4     98231.539 1
  23811859.353    17543265.355 6   1052339.016 2
  22120888.208    -7363337.997 6  -1407774.939 5
  21085873.094    -4027714.745 7    266706.731 7
  19917339.803     7530681.257 8   -202157.124 9
  23917982.225     4284039.429 5   -737977.222 2
 94  2 14 23 45 59.9990000  0  8  2 31 16 18  7 19 27 26
  20821129.402    -3025984.276 8   -591419.042 9
  23462328.088     3447802.359 6    773494.514 2
  24115607.063   -22778587.808 4    123691.723 1
  23830029.174    17638756.394 6   1126747.435 2
  22099916.886    -7473550.073 6  -1493654.404 5
  21091332.314    -3999031.018 7    289057.694 7
  19914291.993     7514657.770 8   -214642.932 9
  23898178.176     4179931.761 5   -819099.976 2
 94  2 14 23 46 29.9980000  0  8  2 31 16 18  7 19 27 26
  20813517.791    -3065979.088 8   -622583.764 9
  23477031.979     3525064.348 5    833698.733 2
  24121934.093   -22745342.385 4    149597.202 2
  23848254.847    17734535.192 6   1201380.148 2
  22079051.361    -7583214.839 7  -1579107.375 5
  21096893.465    -3969798.028 7    311836.653 7
  19911361.551     7499244.481 8   -226653.255 9
  23878456.748     4076330.845 5   -899827.815 2
 94  2 14 23 46 59.9980000  0  8  2 31 16 18  7 19 27 26
  20806003.104    -3105483.820 9   -653366.646 9
  23491830.214     3602838.742 5    894302.159 2
  24128361.553   -22711557.576 4    175922.943 2
  23866536.940    17830589.472 5   1276227.459 2
  22058280.030    -7692351.658 7  -1664148.983 5
  21102556.784    -3940037.871 7    335026.374 7
  19908543.412     7484440.736 9   -238188.620 9
  23858848.043     3973215.188 5   -980177.599 2
 94  2 14 23 47 29.9980000  0  8  2 31 16 18  7 19 27 26
  20798578.744    -3144505.714 9   -683773.288 9
  23506726.212     3681116.932 5    955298.166 2
  24134893.911   -22677246.391 4    202658.797 2
  23884861.904    17926921.508 5   1351291.209 2
  22037610.360    -7800961.787 6  -1748780.151 5
  21108315.078    -3909777.316 7    358606.000 7
  19905843.331     7470250.669 8   -249245.815 9
  23839326.877     3870584.006 6  -1060149.800 2
 94  2 14 23 47 59.9980000  0  8  2 31 16 18  7 19 27 26
  20791245.760    -3183039.979 9   -713799.949 9
  23521717.784     3759891.266 5   1016680.754 2
  24141491.593   -22642431.971 3    229786.911 2
  23903261.337    18023543.982 5   1426581.221 2
  22017043.608    -7909055.362 6  -1833008.850 5
  21114169.844    -3879019.636 7    382573.016 7
  19903262.118     7456682.150 9   -259818.684 9
  23819876.073     3768448.132 5  -1139736.087 2
 94  2 14 23 48 29.9980000  0  8  2 31 16 18  7 19 27 26
  20784002.085    -3221092.694 9   -743451.402 9
  23536797.494     3839160.389 5   1078448.896 2
  24148241.720   -22607140.969 4    257286.136 2
  23921694.825    18120463.494 6   1502102.722 2
  21996568.532    -8016646.428 6  -1916845.969 5
  21120112.960    -3847782.914 7    406913.291 7
  19900791.169     7443703.652 8   -269931.805 9
  23800525.489     3666804.226 5  -1218939.012 2
 94  2 14 23 48 59.9980000  0  8  2 31 16 18  7 19 27 26
  20776852.035    -3258674.349 9   -772735.780 9
  23551984.770     3918929.909 5   1140606.991 2
  24155039.334   -22571373.315 3    285157.068 2
  23940194.478    18217678.666 6   1577854.701 2
  21976184.444    -8123755.672 6  -2000307.624 5
  21126149.221    -3816052.529 7    431638.255 7
  19898430.303     7431302.611 8   -279594.952 9
  23781276.115     3565670.507 5  -1297744.378 2
 94  2 14 23 49 29.9980000  0  8  2 31 16 18  7 19 27 26
  20769786.106    -3295798.507 9   -801663.687 9
  23567254.010     3999196.167 5   1203152.117 2
  24161928.025   -22535134.279 3    313395.076 2
  23958743.987    18315171.417 5   1653822.865 2
  21955894.041    -8230399.780 7  -2083406.880 5
  21132281.356    -3783826.439 7    456749.455 7
  19896179.462     7419464.877 8   -288819.186 9
  23762136.225     3465044.179 5  -1376154.380 2
 94  2 14 23 49 59.9980000  0  8  2 31 16 18  7 19 27 26
  20762808.317    -3332471.929 9   -830240.312 9
  23582624.039     4079959.405 5   1266084.554 2
  24168898.530   -22498431.782 3    341994.419 2
  23977348.987    18412920.343 5   1729990.764 2
  21935688.299    -8336582.954 7  -2166146.908 5
  21138508.825    -3751096.954 7    482252.977 7
  19894032.738     7408173.874 8   -297617.330 9
  23743077.250     3364906.592 5  -1454183.508 2
 94  2 14 23 50 29.9980000  0  8  2 31 16 18  7 19 27 26
  20755909.853    -3368723.403 9   -858488.218 9
  23598079.689     4161216.533 5   1329401.749 2
  24175986.853   -22461263.949 3    370956.137 2
  23995987.144    18510893.367 4   1806333.182 2
  21915563.171    -8442307.689 6  -2248529.803 5
  21144831.058    -3717882.598 7    508134.235 6
  19891980.868     7397410.237 9   -306004.619 9
  23724127.698     3265240.212 5  -1531845.526 2
 94  2 14 23 50 59.9980000  0  8  2 31 16 18  7 19 27 26
  20749088.615    -3404569.530 9   -886420.225 9
  23613639.907     4242944.866 5   1393086.201 2
  24183154.740   -22423632.776 4    400279.104 2
  24014666.852    18609056.098 4   1882823.371 2
  21895538.924    -8547564.089 7  -2330547.692 5
  21151241.580    -3684191.615 7    534386.943 6
  19890036.504     7387182.531 8   -313974.258 9
  23705241.163     3166030.192 5  -1609151.906 2
 94  2 14 23 51 29.9980000  0  9  2 31 16 18  7 19 27 26 15
  20742340.377    -3440025.438 9   -914048.168 9
  23629268.898     4325129.776 5   1457126.370 2
  24190391.670   -22385545.620 4    429957.254 2
  24033384.724    18707396.234 5   1959451.856 2
  21875597.449    -8652341.751 7  -2412192.553 6
  21157743.029    -3650052.099 7    560989.160 6
  19888192.181     7377487.973 8   -321528.452 9
  23686441.568     3067248.552 5  -1686124.484 2
  24371048.074      -59730.58014    -81158.580
 94  2 14 23 51 59.9980000  0  9  2 31 16 18  7 19 27 26 15
  20735666.217    -3475101.234 9   -941379.934 9
  23645004.464     4407764.386 5   1521516.964 2
  24197748.188   -22346997.369 4    459994.781 2
  24052130.986    18805905.855 5   2036212.388 2
  21855751.488    -8756637.823 7  -2493462.158 6
  21164322.784    -3615473.598 7    587933.456 6
  19886446.969     7368320.720 8   -328671.767 9
  23667729.272     2968894.701 5  -1762763.697 2
  24356772.197     -134707.065 3   -139581.625 1
 94  2 14 23 52 29.9980000  0  9  2 31 16 18  7 19 27 26 15
  20729065.716    -3509793.046 9   -968412.469 9
  23660812.850     4490829.822 5   1586243.244 2
  24205142.059   -22307995.238 4    490385.913 2
  24070909.566    18904590.126 5   2113109.120 2
  21835994.625    -8860457.868 7  -2574360.833 6
  21170980.006    -3580459.904 7    615216.831 6
  19884806.055     7359690.889 8   -335396.307 9
  23649076.905     2870975.333 5  -1839064.309 2
  24342564.074     -209281.839 3   -197691.804 1
 94  2 14 23 52 59.9980000  0  9  2 31 16 18  7 19 27 26 15
  20722536.207    -3544102.309 9   -995146.896 9
  23676683.173     4574301.020 5   1651285.756 2
  24212662.802   -22268563.686 4    521111.772 2
  24089720.434    19003453.383 5   2190145.279 2
  21816327.671    -8963823.242 7  -2654905.179 6
  21177730.672    -3545011.998 7    642838.610 6
  19883263.863     7351590.895 8   -341707.948 9
  23630527.426     2773480.399 5  -1915034.274 3
  24328468.522     -283465.568 4   -255497.015 1
 94  2 14 23 53 29.9980000  0  9  2 31 16 18  7 19 27 26 15
  20716077.868    -3578027.260 9  -1021581.891 9
  23692661.392     4658179.723 5   1716645.739 3
  24220242.125   -22228713.352 4    552163.830 2
  24108572.013    19102507.306 5   2267330.005 2
  21796744.868    -9066748.587 7  -2735106.667 6
  21184560.394    -3509119.363 7    670806.895 6
  19881820.752     7344006.663 8   -347617.720 9
  23612067.496     2676425.697 5  -1990661.175 3
  24314430.230     -357259.759 4   -312998.787 1
 94  2 14 23 53 59.9980000  0  9  2 31 16 18  7 19 27 26 15
  20709693.398    -3611568.884 9  -1047718.182 9
  23708692.284     4742456.226 5   1782315.752 3
  24227901.373   -22188465.753 4    583525.534 2
  24127460.976    19201752.830 6   2344663.993 2
  21777234.644    -9169240.305 7  -2814970.263 6
  21191473.968    -3472770.660 7    699130.556 6
  19880479.391     7336929.053 8   -353132.732 9
  23593694.385     2579823.067 6  -2065935.807 2
  24300457.683     -430665.213 3   -370197.650 1
 94  2 14 23 54 29.9980000  0  9  2 31 16 18  7 19 27 26 15
  20703385.225    -3644721.379 9  -1073551.257 9
  23724813.144     4827127.079 5   1848292.984 3
  24235643.573   -22147826.468 5    615192.305 1
  24146383.517    19301208.472 6   2422161.802 2
  21757816.007    -9271287.031 7  -2894487.135 6
  21198477.869    -3435968.249 7    727807.745 6
  19879223.050     7330370.242 8   -358243.455 9
  23575371.340     2483674.836 5  -2140856.421 2
  24286564.821     -503680.073 4   -427092.112 1
 94  2 14 23 54 59.9980000  0  9  2 31 16 18  7 19 27 26 15
  20697151.040    -3677487.931 9  -1099083.612 9
  23740997.769     4912202.106 5   1914585.227 3
  24243449.089   -22106788.632 5    647169.793 2
  24165347.308    19400858.231 5   2499810.749 2
  21738484.640    -9372882.260 7  -2973652.150 6
  21205567.151    -3398720.179 7    756832.202 6
  19878071.937     7324327.561 8   -362952.040 9
  23557181.313     2387988.734 6  -2215416.956 2
  24272742.890     -576306.443 4   -483683.930 1
 94  2 14 23 55 29.9980000  0  9  2 31 16 18  7 19 27 26 15
  20690990.635    -3709872.742 9  -1124318.475 9
  23757263.639     4997674.997 5   1981187.435 3
  24251319.751   -22065366.742 4    679446.539 1
  24184343.567    19500672.585 6   2577588.095 2
  21719239.134    -9474033.867 7  -3052471.490 6
  21212738.727    -3361054.464 7    786182.120 6
  19877021.494     7318784.078 8   -367271.603 9
  23539047.976     2292754.229 6  -2289625.537 2
  24258980.917     -648552.919 4   -539979.710 1
 94  2 14 23 55 59.9980000  0  9  2 31 16 18  7 19 27 26 15
  20684898.433    -3741882.941 9  -1149261.461 9
  23773603.797     5083541.411 5   2048096.324 3
  24259290.273   -22023554.817 5    712027.078 1
  24203364.769    19600635.381 6   2655480.957 2
  21700072.203    -9574744.832 7  -3130947.478 6
  21219979.734    -3322992.217 7    815841.002 6
  19876063.687     7313747.009 8   -371196.594 9
  23521009.314     2197964.552 5  -2363487.535 3
  24245319.555     -720417.034 4   -595977.463 1
 94  2 14 23 56 29.9980000  0  9  2 31 16 18  7 19 27 26 15
  20678881.958    -3773513.259 9  -1173908.421 9
  23790011.887     5169793.360 5   2115305.632 3
  24267309.211   -21981351.251 5    744912.993 1
  24222418.199    19700725.148 5   2733472.903 1
  21680988.014    -9675019.657 7  -3209083.609 6
  21227293.590    -3284538.865 7    845804.640 6
  19875203.553     7309228.708 8   -374717.333 9
  23503061.339     2103620.194 6  -2437002.569 3
  24231724.057     -791896.803 5   -651675.824 1
 94  2 14 23 56 59.9980000  0  9  2 31 16 18  7 19 27 26 15
  20672930.268    -3804777.919 9  -1198270.457 9
  23806495.856     5256407.586 5   2182797.181 3
  24275419.617   -21938784.540 5    778081.656 1
  24241477.085    19800904.106 5   2811534.170 1
  21661987.768    -9774876.864 7  -3286894.332 6
  21234685.093    -3245700.661 7    876068.143 6
  19874439.892     7305202.321 8   -377854.758 9
  23485186.903     2009711.058 6  -2510178.446 2
  24218190.166     -862999.169 5   -707080.061 1
 94  2 14 23 57 29.9980000  0  9  2 31 16 18  7 19 27 26 15
  20667051.608    -3835697.330 9  -1222363.474 9
  23823044.160     5343367.007 5   2250557.772 2
  24283577.059   -21895865.124 5    811525.376 1
  24260562.592    19901189.427 5   2889678.689 1
  21643065.827    -9874306.279 7  -3364371.686 6
  21242153.073    -3206469.471 7    906637.914 6
  19873765.688     7301675.365 8   -380603.013 9
  23467407.442     1916235.865 6  -2583016.183 3
  24204731.163     -933717.362 4   -762184.914 1
 94  2 14 23 57 59.9980000  0  9  2 31 16 18  7 19 27 26 15
  20661227.840    -3866288.925 9  -1246201.069 9
  23839655.960     5430646.904 5   2318568.075 3
  24291817.515   -21852597.442 5    845240.686 1
  24279666.866    20001585.194 4   2967909.143 1
  21624224.261    -9973302.664 7  -3441511.641 6
  21249694.293    -3166840.325 7    937517.701 6
  19873187.778     7298649.820 8   -382960.594 9
  23449700.170     1823180.362 6  -2655526.904 3
  24191349.717    -1004054.248 5   -816992.833 1
 94  2 14 23 58 29.9980000  0  9  2 31 16 18  7 19 27 26 15
  20655467.477    -3896553.293 9  -1269783.633 9
  23856317.345     5518234.202 5   2386817.902 2
  24300111.003   -21808992.244 5    879218.832 1
  24298793.176    20102097.564 5   3046230.657 1
  21605471.583   -10071859.289 7  -3518308.881 6
  21257311.809    -3126799.820 7    968718.106 6
  19872707.361     7296116.242 8   -384934.773 9
  23432064.909     1730528.220 6  -2727723.234 3
  24178030.478    -1074012.646 4   -871505.676 1
 94  2 14 23 58 59.9980000  0  9  2 31 16 18  7 19 27 26 15
  20649765.035    -3926503.269 8  -1293121.250 9
  23873043.756     5606133.133 5   2455310.566 2
  24308470.926   -21765035.648 5    913470.988 1
  24317948.265    20202740.350 5   3124653.495 1
  21586802.068   -10169963.991 7  -3594753.977 6
  21265009.910    -3086351.626 7   1000236.183 6
  19872317.241     7294069.504 8   -386529.631 9
  23414515.718     1638272.768 6  -2799610.518 3
  24164795.420    -1143589.677 4   -925721.491 1
 94  2 14 23 59 29.9980000  0  9  2 31 16 18  7 19 27 26 15
  20644126.659    -3956132.700 8  -1316209.126 9
  23889832.163     5694354.869 5   2524054.734 2
  24316907.715   -21720718.540 5    948003.756 1
  24337116.125    20303523.467 5   3203185.646 1
  21568224.079   -10267606.856 7  -3670839.254 6
  21272784.458    -3045493.844 7   1032073.375 6
  19872025.363     7292521.003 8   -387736.262 9
  23397037.668     1546422.340 6  -2871182.245 2
  24151631.144    -1212784.293 3   -979639.267 1
 94  2 14 23 59 59.9980000  0  9  2 31 16 18  7 19 27 26 15
  20638555.375    -3985418.294 8  -1339029.022 9
  23906677.082     5782909.942 4   2593058.724 2
  24325418.044   -21676048.103 5    982811.909 1
  24356320.230    20404428.992 5   3281813.437 1
  21549727.424   -10364799.615 7  -3746573.736 6
  21280636.052    -3004225.315 7   1064230.675 6
  19871821.234     7291460.515 8   -388562.565 9
  23379631.238     1454984.689 6  -2942432.214 3
  24138528.624    -1281596.739 3  -1033259.198 1
 94  2 15  0  0 29.9980000  0  9  2 31 16 18  7 19 27 26 15
  20633044.800    -4014369.612 9  -1361588.469 9
  23923599.137     5871806.404 5   2662328.615 2
  24333975.769   -21631039.668 5   1017883.209 1
  24375542.443    20505444.486 4   3360526.927 1
  21531316.929   -10461547.277 7  -3821961.393 6
  21288563.104    -2962552.315 7   1096703.154 6
  19871713.789     7290889.426 8   -389007.560 9
  23362317.324     1363980.198 6  -3013344.700 3
  24125512.595    -1350026.177 4  -1086580.746 2
 94  2 15  0  0 59.9980000  0  8  2 31 18  7 19 27 26 15
  20627599.880    -4042990.226 8  -1383890.225 9
  23940584.118     5961045.749 5   2731865.714 2
  24394790.468    20606569.288 3   3439325.661 1
  21512992.835   -10557849.265 7  -3897001.805 6
  21296574.638    -2920485.987 7   1129482.109 6
  19871696.131     7290811.122 8   -389068.560 9
  23345091.190     1273430.721 6  -3083902.621 3
  24112554.966    -1418069.462 4  -1139601.438 2
 94  2 15  0  1 29.9980000  0  8  2 31 18  7 19 27 26 15
  20622214.048    -4071281.402 8  -1405935.270 9
  23957630.887     6050603.327 4   2801650.846 2
  24414054.502    20707790.319 3   3518199.140 1
  21494747.226   -10653726.577 7  -3971711.262 6
  21304651.047    -2878029.627 7   1162564.988 6
  19871775.486     7291219.771 8   -388750.106 9
  23327942.342     1183332.075 6  -3154109.274 3
  24099698.366    -1485732.343 4  -1192325.740 2
 94  2 15  0  1 59.9980000  0  8  2 31 18  7 19 27 26 15
  20616895.190    -4099248.557 8  -1427727.852 9
  23974735.096     6140468.960 5   2871675.998 2
  24433337.243    20809109.416 3   3597148.948 1
  21476580.283   -10749181.998 7  -4046092.001 6
  21312800.995    -2835180.996 7   1195953.499 6
  19871946.488     7292116.160 8   -388051.601 9
  23310875.307     1093672.415 6  -3223973.913 3
  24086879.061    -1553007.580 3  -1244747.910 2
 94  2 15  0  2 29.9980000  0  7  2 31  7 19 27 26 15
  20611631.734    -4126908.667 8  -1449281.164 9
  23991875.940     6230627.998 4   2941929.688 2
  21458498.151   -10844217.486 7  -4120145.524 6
  21321033.506    -2791953.428 7   1229637.319 6
  19872204.249     7293489.652 8   -386981.348 9
  23293892.544     1004438.328 6  -3293506.863 3
  24074152.181    -1619900.187 4  -1296871.948 2
 94  2 15  0  2 59.9980000  0  7  2 31  7 19 27 26 15
  20606431.085    -4154246.104 9  -1470583.052 9
  24009091.222     6321074.424 4   3012407.418 2
  21440494.355   -10938830.096 7  -4193869.562 6
  21329326.574    -2748342.286 7   1263620.019 6
  19872557.405     7295333.997 8   -385544.194 9
  23276995.132      915625.451 6  -3362711.602 3
  24061495.064    -1686405.465 4  -1348694.215 2
 94  2 15  0  3 29.9980000  0  7  2 31  7 19 27 26 15
  20601290.034    -4181259.309 9  -1491632.244 9
  24026361.126     6411807.201 5   3083108.364 2
  21422569.284   -11033026.558 7  -4267269.259 6
  21337703.495    -2704344.771 7   1297903.807 6
  19872999.239     7297643.321 8   -383744.681 9
  23260174.436      827225.238 6  -3431594.765 3
  24048899.134    -1752520.938 4  -1400212.666 2
 94  2 15  0  3 59.9980000  0  7  2 31  7 19 27 26 15
  20596209.571    -4207950.861 8  -1512430.827 9
  24043676.779     6502836.565 4   3154040.320 2
  21404723.988   -11126802.809 7  -4340341.549 6
  21346143.882    -2659976.479 7   1332476.485 6
  19873522.437     7300405.105 8   -381592.626 9
  23243424.012      739244.270 5  -3500151.292 3
  24036400.186    -1818250.965 4  -1451430.826 2
 94  2 15  0  4 29.9980000  0  7  2 31  7 19 27 26 15
  20591187.927    -4234312.656 8  -1532972.459 9
  24061063.962     6594163.793 5   3225204.397 2
  21386960.026   -11220154.194 7  -4413082.764 6
  21354661.525    -2615235.423 7   1367339.644 6
  19874133.773     7303624.913 8   -379083.668 9
  23226772.580      651704.873 6  -3568363.762 3
  24023952.264    -1883591.711 4  -1502345.558 2
 94  2 15  0  4 59.9980000  0  7  2 31  7 19 27 26 15
  20586232.628    -4260350.479 8  -1553261.634 9
  24078496.414     6685785.951 5   3296598.319 2
  21369278.716   -11313077.093 7  -4485490.103 6
  21363240.806    -2570129.857 7   1402486.810 6
  19874836.577     7307312.892 8   -376209.914 9
  23210200.023      564603.029 6  -3636235.196 3
  24011606.091    -1948539.565 4  -1552954.160 2
 94  2 15  0  5 29.9980000  0  7  2 31  7 19 27 26 15
  20581340.225    -4286085.565 8  -1573314.915 9
  24095993.801     6777703.593 5   3368222.450 2
  21351675.862   -11405575.780 7  -4557566.905 6
  21371892.577    -2524670.769 7   1437909.465 6
  19875625.061     7311469.610 8   -372970.906 9
  23193697.437      477928.557 6  -3703773.635 3
  23999314.091    -2013098.700 4  -1603259.814 2
 94  2 15  0  5 59.9980000  0  7  2 31  7 19 27 26 15
  20576498.097    -4311526.840 8  -1593139.255 9
  24113536.876     6869903.217 5   3440066.358 2
  21334155.452   -11497634.084 7  -4629300.546 6
  21380611.321    -2478857.504 7   1473608.121 6
  19876511.817     7316107.236 8   -369357.163 9
  23177282.781      391690.140 6  -3770972.301 3
  23987117.454    -2077267.407 5  -1653261.260 2
 94  2 15  0  6 29.9980000  0  7  2 31  7 19 27 26 15
  20571710.021    -4336691.688 8  -1612748.205 9
  24131131.455     6962361.600 5   3512111.852 2
  21316722.880   -11589244.275 7  -4700685.009 7
  21389398.028    -2432697.606 7   1509576.866 6
  19877483.475     7321232.362 8   -365363.553 9
  23160970.504      305875.583 6  -3837840.701 3
  23974967.615    -2141046.793 4  -1702959.333 2
 94  2 15  0  6 59.9980000  0  7  2 31  7 19 27 26 15
  20566974.500    -4361585.609 9  -1632146.040 9
  24148767.196     7055083.118 5   3584362.383 2
  21299377.848   -11680395.822 7  -4771712.089 7
  21398241.156    -2386198.766 7   1545809.697 6
  19878553.044     7326848.650 8   -360987.231 9
  23144724.151      220481.946 6  -3904381.098 3
  23962913.290    -2204430.892 4  -1752349.424 2
 94  2 15  0  7 29.9980000  0  7  2 31  7 19 27 26 15
  20562287.784    -4386207.122 9  -1651331.610 9
  24166464.245     7148044.408 5   3656799.777 2
  21282116.997   -11771090.696 7  -4842383.291 7
  21407161.900    -2339342.791 7   1582320.848 6
  19879712.641     7332953.152 8   -356230.453 9
  23128547.380      135521.962 6  -3970583.610 3
  23950922.401    -2267418.896 4  -1801430.839 2
 94  2 15  0  7 59.9980000  0  7  2 31  7 19 27 26 15
  20557655.241    -4410545.210 9  -1670296.343 9
  24184192.532     7241233.710 5   3729414.795 2
  21264947.583   -11861329.104 7  -4912698.854 7
  21416146.860    -2292123.872 7   1619114.848 5
  19880967.722     7339530.718 8   -351105.080 9
  23112466.632       50996.673 6  -4036447.359 3
  23939011.497    -2330010.341 4  -1850203.349 2
 94  2 15  0  8 29.9980000  0  7  2 31  7 19 27 26 15
  20553076.991    -4434593.950 9  -1689035.593 9
  24201981.257     7334660.882 5   3802215.255 2
  21247857.434   -11951126.531 7  -4982670.760 7
  21425204.759    -2244531.464 7   1656199.858 5
  19882307.195     7346570.162 8   -345619.789 9
  23096467.069      -33099.918 6  -4101977.071 3
  23927180.008    -2392202.416 5  -1898664.584 1
 94  2 15  0  8 59.9980000  0  6  2  7 19 27 26 15
  20548557.080    -4458351.647 9  -1707548.049 9
  21230853.806   -12040496.409 7  -5052309.512 7
  21434333.380    -2196542.394 7   1693593.944 5
  19883736.216     7354065.690 8   -339779.101 9
  23080537.207     -116760.004 6  -4167166.635 3
  23915426.855    -2453990.718 5  -1946811.201 2
 94  2 15  0  9 29.9980000  0  6  2  7 19 27 26 15
  20544095.029    -4481818.633 9  -1725834.004 9
  21213925.575   -12129448.261 7  -5121622.566 7
  21443544.293    -2148149.490 7   1731302.680 5
  19885246.630     7362004.055 8   -333593.393 9
  23064713.141     -199992.449 6  -4232023.039 3
  23903746.910    -2515378.990 4  -1994646.119 2
 94  2 15  0  9 59.9980000  0  6  2  7 19 27 26 15
  20539685.921    -4504990.225 9  -1743889.750 9
  21197078.618   -12217973.083 7  -5190602.824 7
  21452824.009    -2099373.902 7   1769309.686 5
  19886843.655     7370392.412 8   -327056.979 9
  23048951.463     -282784.849 6  -4296536.507 3
  23892140.835    -2576364.169 5  -2042166.866 2
 94  2 15  0 10 29.9980000  0  6  2  7 19 27 26 15
  20535326.070    -4527874.578 9  -1761721.660 9
  21180316.112   -12306063.738 7  -5259244.786 7
  21462173.846    -2050232.564 7   1807601.664 5
  19888528.398     7379253.570 8   -320152.179 9
  23033277.983     -365128.384 6  -4360700.192 3
  23880614.714    -2636943.002 5  -2089371.030 2
 94  2 15  0 10 59.9980000  0  6  2  7 19 27 26 15
  20531027.166    -4550473.342 9  -1779331.066 9
  21163636.979   -12393710.304 7  -5327540.720 7
  21471594.165    -2000744.424 7   1846163.842 5
  19890302.570     7388592.465 8   -312875.099 9
  23017692.433     -447025.381 6  -4424515.952 3
  23869162.972    -2697117.299 5  -2136259.956 2
 94  2 15  0 11 29.9980000  0  6  2  7 19 27 26 15
  20526788.490    -4572778.285 9  -1796711.519 9
  21147047.394   -12480895.582 7  -5395477.235 7
  21481074.082    -1950919.380 7   1884988.548 5
  19892173.905     7398417.671 8   -305219.129 9
  23002195.441     -528455.629 6  -4487968.039 3
  23857789.296    -2756881.635 5  -2182829.422 2
 94  2 15  0 11 59.9980000  0  6  2  7 19 27 26 15
  20522597.122    -4594798.029 9  -1813869.690 9
  21130544.029   -12567610.214 7  -5463046.960 7
  21490618.305    -1900758.974 7   1924074.607 5
  19894136.826     7408736.339 8   -297178.555 9
  22986801.848     -609414.622 6  -4551052.869 3
  23846501.840    -2816236.251 5  -2229079.593 2
 94  2 15  0 12 29.9980000  0  6  2  7 19 27 26 15
  20518453.240    -4616537.450 9  -1830809.460 9
  21114132.220   -12653866.332 7  -5530259.439 7
  21500232.469    -1850244.704 7   1963436.372 5
  19896193.912     7419539.739 8   -288760.329 9
  22971475.079     -689926.833 6  -4613789.614 3
  23835282.737    -2875176.163 5  -2275006.618 2
 94  2 15  0 12 59.9980000  0  6  2  7 19 27 26 15
  20514374.684    -4638004.174 9  -1847536.744 9
  21097802.375   -12739665.731 7  -5597116.013 7
  21509914.236    -1799363.877 7   2003083.765 5
  19898337.158     7430810.580 8   -279977.829 9
  22956231.592     -769988.084 6  -4676174.896 3
  23824146.856    -2933701.859 5  -2320610.817 2
 94  2 15  0 13 29.9980000  0  6  2  7 19 27 26 15
  20510336.180    -4659210.656 9  -1864061.247 9
  21081564.447   -12825009.803 7  -5663617.804 7
  21519663.997    -1748128.691 7   2043007.278 5
  19900574.029     7442545.275 8   -270833.907 9
  22941077.533     -849594.395 6  -4738205.706 3
  23813080.497    -2991812.012 4  -2365891.294 2
 94  2 15  0 13 59.9980000  0  6  2  7 19 27 26 15
  20506352.807    -4680153.656 9  -1880380.446 9
  21065407.252   -12909908.083 7  -5729772.229 7
  21529481.060    -1696547.508 7   2083200.390 5
  19902890.346     7454738.016 8   -261333.059 9
  22926015.510     -928777.066 6  -4799906.427 3
  23802104.886    -3049504.433 4  -2410846.315 1
 94  2 15  0 14 29.9980000  0  6  2  7 19 27 26 15
  20502412.935    -4700834.213 9  -1896495.126 9
  21049335.139   -12994371.152 7  -5795587.514 7
  21539357.873    -1644637.745 7   2123649.537 5
  19905297.199     7467381.151 8   -251481.253 9
  22911038.898    -1007522.966 6  -4861266.806 3
  23791209.079    -3106775.037 5  -2455472.619 1
 94  2 15  0 14 59.9980000  0  6  2  7 19 27 26 15
  20498527.595    -4721258.524 9  -1912410.164 9
  21033343.969   -13078390.986 7  -5861057.421 7
  21549298.211    -1592411.609 7   2164345.199 5
  19907788.025     7480480.969 8   -241273.596 9
  22896137.174    -1085809.040 6  -4922268.882 3
  23780395.805    -3163623.164 5  -2499769.695 1
 94  2 15  0 15 29.9980000  0  6  2  7 19 27 26 15
  20494696.787    -4741416.241 9  -1928117.452 9
  21017441.448   -13161976.181 7  -5926188.672 7
  21559292.962    -1539873.878 7   2205283.677 5
  19910372.926     7494038.120 8   -230709.562 9
  22881318.703    -1163653.265 6  -4982926.630 3
  23769652.832    -3220045.757 4  -2543735.314 1
 94  2 15  0 15 59.9980000  0  6  2  7 19 27 26 15
  20490906.541    -4761301.240 8  -1943612.252 9
  21001619.301   -13245115.139 8  -5990972.188 7
  21569354.986    -1486999.251 7   2246484.669 5
  19913039.040     7508051.685 8   -219789.899 9
  22866588.610    -1241053.286 6  -5043238.267 3
  23759002.885    -3276038.947 4  -2587366.211 1
 94  2 15  0 16 29.9980000  0  6  2  7 19 27 26 15
  20487171.157    -4780923.901 9  -1958902.624 9
  20985886.553   -13327795.281 7  -6055398.200 7
  21579482.905    -1433777.002 7   2287956.531 5
  19915789.816     7522528.501 8   -208509.242 9
  22851959.248    -1317986.089 6  -5103185.876 3
  23748420.660    -3331604.089 4  -2630663.592 1
 94  2 15  0 16 59.9980000  0  6  2  7 19 27 26 15
  20483493.213    -4800279.900 9  -1973985.183 9
  20970242.273   -13410006.180 7  -6119458.554 7
  21589682.894    -1380188.382 7   2329713.862 5
  19918633.437     7537476.583 8   -196861.365 9
  22837390.983    -1394470.808 6  -5162784.283 3
  23737916.802    -3386744.700 4  -2673630.138 1
 94  2 15  0 17 29.9980000  0  6  2  7 19 27 26 15
  20479855.471    -4819350.859 9  -1988845.664 9
  20954691.979   -13491735.061 7  -6183143.305 7
  21599950.276    -1326222.869 7   2371764.880 5
  19921567.985     7552901.474 8   -184841.949 9
  22822929.025    -1470513.148 6  -5222037.965 3
  23727516.192    -3441454.283 4  -2716260.870 1
 94  2 15  0 17 59.9980000  0  6  2  7 19 27 26 15
  20476289.500    -4838133.502 9  -2003481.474 9
  20939231.112   -13572972.308 7  -6246444.968 7
  21610294.225    -1271878.455 7   2414111.192 5
  19924598.438     7568806.397 8   -172448.506 9
  22808548.910    -1546100.884 6  -5280937.451 3
  23717185.314    -3495730.546 3  -2758553.938 1
 94  2 15  0 18 29.9980000  0  6  2  7 19 27 26 15
  20472770.026    -4856624.542 9  -2017890.052 9
  20923859.014   -13653737.182 7  -6309378.536 7
  21620702.689    -1217175.615 7   2456736.728 5
  19927714.420     7585186.249 8   -159684.961 9
  22794249.140    -1621222.315 6  -5339473.573 3
  23706935.530    -3549572.993 4  -2800508.929 2
 94  2 15  0 18 59.9980000  0  6  2  7 19 27 26 15
  20469300.078    -4874829.917 9  -2032076.040 9
  20908579.941   -13734047.873 7  -6371958.219 7
  21631174.919    -1162138.400 7   2499622.862 5
  19930918.482     7602025.730 8   -146563.276 9
  22780047.851    -1695885.360 6  -5397652.516 3
  23696785.097    -3602982.666 4  -2842126.651 2
 94  2 15  0 19 29.9980000  0  6  2  7 19 27 26 15
  20465896.145    -4892756.027 9  -2046044.414 9
  20893380.913   -13813910.194 7  -6434188.535 7
  21641704.290    -1106792.738 7   2542749.328 5
  19934206.456     7619308.888 8   -133095.855 9
  22765915.245    -1770073.292 6  -5455461.213 3
  23686696.211    -3655955.328 5  -2883403.860 2
 94  2 15  0 19 59.9980000  0  6  2  7 19 27 26 15
  20462528.067    -4910429.053 9  -2059815.586 9
  20878267.836   -13893329.801 7  -6496073.857 8
  21652296.917    -1051149.554 7   2586107.611 5
  19937577.952     7637031.389 8   -119286.101 9
  22751895.301    -1843776.732 6  -5512892.404 3
  23676711.294    -3708489.870 4  -2924339.744 2
 94  2 15  0 20 29.9980000  0  6  2  7 19 27 26 15
  20459214.730    -4927874.805 9  -2073409.641 9
  20863235.972   -13972316.439 7  -6557621.804 8
  21662936.611     -995218.079 6   2629690.589 5
  19941034.799     7655195.970 8   -105131.874 9
  22737968.292    -1916985.702 6  -5569938.317 3
  23666794.099    -3760588.281 4  -2964935.724 2
 94  2 15  0 20 59.9980000  0  6  2  7 19 27 26 15
  20455931.763    -4945105.314 9  -2086835.980 9
  20848295.186   -14050848.670 7  -6618815.678 8
  21673638.212     -938987.840 6   2673506.328 5
  19944580.924     7673817.853 8    -90621.297 9
  22724121.958    -1989724.705 6  -5626618.005 3
  23656956.380    -3812244.357 4  -3005187.029 2
 94  2 15  0 21 29.9980000  0  6  2  7 19 27 26 15
  20452694.604    -4962124.584 9  -2100097.715 9
  20833439.330   -14128913.859 7  -6679645.626 8
  21684401.931     -882435.689 7   2717572.893 5
  19948210.691     7692900.230 8    -75751.904 9
  22710372.576    -2062006.453 6  -5682941.336 3
  23647209.168    -3863459.219 5  -3045094.564 2
 94  2 15  0 21 59.9980000  0  6  2  7 19 27 26 15
  20449492.311    -4978936.365 9  -2113197.781 9
  20818669.215   -14206513.710 7  -6740112.963 8
  21695225.548     -825535.957 7   2761910.336 5
  19951933.364     7712455.317 8    -60514.170 9
  22696698.443    -2133842.542 6  -5738917.429 3
  23637544.458    -3914232.563 5  -3084658.109 2
 94  2 15  0 22 29.9980000  0  6  2  7 19 27 26 15
  20446340.143    -4995521.901 9  -2126121.534 9
  20803994.045   -14283640.748 7  -6800211.878 8
  21706121.625     -768285.063 6   2806521.436 5
  19955741.478     7732476.293 8    -44913.394 9
  22683113.407    -2205244.266 6  -5794555.082 3
  23627967.618    -3964563.416 5  -3123876.809 2
 94  2 15  0 22 59.9980000  0  6  2  7 19 27 26 15
  20443226.079    -5011857.270 9  -2138850.363 9
  20789412.469   -14360283.477 7  -6859933.429 8
  21717083.146     -710673.686 6   2851413.398 5
  19959638.300     7752953.777 8    -28956.925 9
  22669596.185    -2276222.927 6  -5849863.054 3
  23618485.543    -4014450.799 5  -3162749.944 2
 94  2 15  0 23 29.9980000  0  6  2  7 19 27 26 15
  20440171.284    -5027932.923 9  -2151376.815 9
  20774919.992   -14436454.195 7  -6919287.163 8
  21728114.040     -652704.232 6   2896584.385 5
  19963619.244     7773876.366 8    -12653.587 9
  22656187.907    -2346749.829 6  -5904819.027 3
  23609075.447    -4063895.275 5  -3201277.947 2
 94  2 15  0 23 59.9980000  0  6  2  7 19 27 26 15
  20437155.042    -5043751.622 9  -2163703.044 9
  20760511.007   -14512153.473 7  -6978273.561 8
  21739214.965     -594389.400 7   2942024.512 5
  19967687.997     7795249.236 8      4000.601 9
  22642853.169    -2416805.655 6  -5959407.919 3
  23599744.647    -4112892.129 5  -3239457.235 2
 94  2 15  0 24 29.9980000  0  6  2  7 19 27 26 15
  20434202.896    -5059316.936 9  -2175831.824 9
  20746200.174   -14587362.227 7  -7036877.707 8
  21750374.439     -535744.029 6   2987722.209 5
  19971839.493     7817059.027 8     20995.233 9
  22629614.244    -2486381.802 6  -6013623.025 3
  23590505.463    -4161439.053 5  -3277285.922 2
 94  2 15  0 24 59.9980000  0  6  2  7 19 27 26 15
  20431276.771    -5074655.873 9  -2187784.215 9
  20731979.639   -14662090.427 8  -7095107.424 8
  21761591.024     -476781.272 6   3033667.218 5
  19976073.792     7839308.101 8     38332.165 9
  22616467.955    -2555478.199 6  -6067464.313 3
  23581357.326    -4209539.027 5  -3314766.299 2
 94  2 15  0 25 29.9980000  0  6  2  7 19 27 26 15
  20428402.721    -5089794.302 9  -2199580.360 9
  20717848.772   -14736340.171 8  -7152964.298 8
  21772867.837     -417517.801 6   3079846.535 5
  19980391.403     7861996.624 8     56011.538 9
  22603401.111    -2624098.041 6  -6120934.285 3
  23572292.651    -4257191.713 5  -3351898.161 2
 94  2 15  0 25 59.9980000  0  6  2  7 19 27 26 15
  20425554.963    -5104735.984 9  -2211223.198 9
  20703809.731   -14810111.161 7  -7210448.120 8
  21784210.635     -357955.226 6   3126258.908 5
  19984790.827     7885127.831 8     74035.851 9
  22590442.552    -2692244.290 6  -6174035.178 3
  23563300.616    -4304395.005 5  -3388679.846 2
 94  2 15  0 26 29.9980000  0  6  2  7 19 27 26 15
  20422752.653    -5119466.753 9  -2222701.687 9
  20689860.568   -14883421.453 8  -7267572.949 8
  21795593.125     -298110.434 7   3172891.222 5
  19989276.982     7908708.361 8     92410.290 9
  22577558.342    -2759909.944 6  -6226761.625 3
  23554411.770    -4351147.324 5  -3425110.089 2
 94  2 15  0 26 59.9980000  0  6  2  7 19 27 26 15
  20419991.264    -5133973.570 9  -2234005.659 9
  20675987.821   -14956305.760 7  -7324365.851 9
  21807040.790     -237973.276 7   3219751.363 5
  19993856.281     7932767.939 8    111158.023 9
  22564778.969    -2827087.441 6  -6279107.679 3
  23545597.482    -4397445.117 5  -3461186.166 2
 94  2 15  0 27 29.9980000  0  6  2  7 19 27 26 15
  20417277.183    -5148238.645 9  -2245121.271 9
  20662196.949   -15028779.056 8  -7380838.474 9
  21818536.152     -177532.351 6   3266848.180 4
  19998529.506     7957313.046 8    130284.096 9
  22552094.210    -2893776.953 6  -6331073.497 4
  23536872.712    -4443288.692 5  -3496908.358 2
 94  2 15  0 27 59.9980000  0  6  2  7 19 27 26 15
  20414612.328    -5162251.631 9  -2256040.432 9
  20648484.412   -15100851.692 8  -7436998.913 8
  21830098.008     -116784.439 6   3314184.182 4
  20003292.159     7982350.078 8    149793.483 9
  22539492.674    -2959971.203 6  -6382653.357 4
  23528236.980    -4488676.725 5  -3532275.520 2
 94  2 15  0 28 29.9980000  0  6  2  7 19 27 26 15
  20411992.022    -5176018.957 9  -2266768.187 9
  20634848.831   -15172512.199 8  -7492838.207 8
  21841717.993      -55727.952 6   3361760.683 4
  20008149.037     8007876.092 8    169683.915 9
  22526989.650    -3025697.081 6  -6433868.284 4
  23519688.518    -4533608.684 5  -3567287.312 2
 94  2 15  0 28 59.9980000  0  6  2  7 19 27 26 15
  20409415.186    -5189554.810 9  -2277315.549 9
  20621293.236   -15243737.819 8  -7548338.616 9
  21853395.599        5654.832 6   3409591.419 4
  20013097.321     8033868.999 8    189938.160 9
  22514550.961    -3090977.730 6  -6484736.297 4
  23511223.669    -4578085.086 5  -3601944.206 2
 94  2 15  0 29 29.9980000  0  6  2  7 19 27 26 15
  20406880.471    -5202864.607 9  -2287686.800 9
  20607828.897   -15314482.213 8  -7603464.053 9
  21865130.105       67352.095 6   3457667.176 4
  20018125.950     8060297.774 8    210532.031 9
  22502223.375    -3155820.942 6  -6535263.404 4
  23502846.298    -4622101.617 5  -3636242.726 2
 94  2 15  0 29 59.9980000  0  6  2  7 19 27 26 15
  20404388.266    -5215953.979 8  -2297886.264 9
  20594465.318   -15384720.427 8  -7658195.044 9
  21876934.493      129353.514 6   3505979.966 4
  20023232.974     8087137.867 8    231446.430 9
  22489965.011    -3220220.147 6  -6585444.509 4
  23494559.495    -4665656.543 5  -3670181.539 2
 94  2 15  0 30 29.9980000  0  6  2  7 19 27 26 15
  20401944.987    -5228824.771 9  -2307915.437 9
  20581195.485   -15454441.947 8  -7712523.442 9
  21888794.523      191666.263 6   3554535.384 4
  20028419.264     8114380.319 8    252674.342 9
  22477803.870    -3284170.708 6  -6635276.081 4
  23486353.906    -4708745.986 5  -3703757.551 2
 94  2 15  0 30 59.9980000  0  6  2  7 19 27 26 15
  20399534.356    -5241479.669 9  -2317776.373 9
  20568026.112   -15523657.548 8  -7766457.606 9
  21900708.935      254277.335 6   3603323.207 4
  20033676.364     8142022.431 8    274213.684 9
  22465715.309    -3347647.820 6  -6684738.692 4
  23478246.588    -4751374.623 5  -3736974.537 2
 94  2 15  0 31 29.9980000  0  6  2  7 19 27 26 15
  20397164.107    -5253910.974 9  -2327463.078 9
  20554949.794   -15592377.303 8  -7820005.407 9
  21912676.949      317184.243 6   3652341.567 4
  20039016.837     8170087.299 8    296082.441 9
  22453740.999    -3410621.212 6  -6733808.832 4
  23470233.555    -4793537.838 5  -3769828.945 2
 94  2 15  0 31 59.9980000  0  6  2  7 19 27 26 15
  20394846.232    -5266119.164 9  -2336975.914 9
  20541962.905   -15660630.891 8  -7873189.950 9
  21924710.739      380393.715 6   3701595.708 4
  20044441.972     8198597.445 8    318298.171 9
  22441850.600    -3473080.552 6  -6782478.360 4
  23462275.685    -4835235.062 5  -3802320.184 2
 94  2 15  0 32 29.9980000  0  6  2  7 19 27 26 15
  20392561.633    -5278105.625 9  -2346316.004 9
  20529058.309   -15728426.358 8  -7926017.533 9
  21936794.833      443907.941 6   3751087.283 4
  20049955.425     8227575.486 8    340878.473 9
  22430061.442    -3535026.328 6  -6830747.734 4
  23454439.709    -4876461.683 5  -3834444.800 2
 94  2 15  0 32 59.9980000  0  6  2  7 19 27 26 15
  20390326.051    -5289862.429 9  -2355477.105 9
  20516244.819   -15795760.788 8  -7978485.843 9
  21948940.025      507710.461 6   3800803.535 4
  20055558.576     8257019.817 8    363822.151 9
  22418375.711    -3596459.395 6  -6878617.584 4
  23446684.948    -4917218.338 5  -3866203.112 2
 94  2 15  0 33 29.9980000  0  6  2  7 19 27 26 15
  20388131.630    -5301396.861 9  -2364464.960 9
  20503522.886   -15862625.669 8  -8030588.270 9
  21961133.424      571807.047 6   3850748.909 4
  20061249.236     8286922.700 8    387123.111 9
  22406766.488    -3657396.331 6  -6926100.856 4
  23439018.085    -4957503.670 5  -3897594.189 2
 94  2 15  0 33 59.9980000  0  6  2  7 19 27 26 15
  20385975.013    -5312723.465 9  -2373290.844 9
  20490887.893   -15929020.342 8  -8082324.312 9
  21973381.984      636188.615 6   3900916.361 4
  20067018.712     8317257.697 8    410760.792 9
  22395263.242    -3717866.587 6  -6973220.470 4
  23431435.015    -4997321.566 5  -3928620.994 2
 94  2 15  0 34 29.9980000  0  6  2  7 19 27 26 15
  20383860.187    -5323840.510 9  -2381953.454 9
  20478343.918   -15994932.702 8  -8133684.521 9
  21985689.274      700841.722 6   3951295.402 5
  20072875.697     8348016.681 8    434728.851 9
  22383854.400    -3777866.280 6  -7019973.408 4
  23423958.671    -5036665.584 5  -3959278.579 2
 94  2 15  0 34 59.9980000  0  6  2  7 19 27 26 15
  20381781.366    -5334759.959 9  -2390462.082 9
  20465894.196   -16060363.129 8  -8184669.232 9
  21998045.250      765772.690 6   4001890.970 4
  20078809.399     8379196.548 8    459024.860 9
  22372522.605    -3837397.325 6  -7066361.196 4
  23416553.168    -5075536.473 5  -3989567.539 2
 94  2 15  0 35 29.9980000  0  6  2  7 19 27 26 15
  20379741.848    -5345496.797 9  -2398828.412 9
  20453532.104   -16125318.448 8  -8235283.689 9
  22010454.799      830992.311 6   4052711.446 4
  20084823.116     8410805.838 7    483655.480 9
  22361280.508    -3896463.391 6  -7112386.629 4
  23409249.894    -5113931.158 5  -4019485.343 2
 94  2 15  0 35 59.9980000  0  6  2  7 19 27 26 15
  20377730.661    -5356050.129 9  -2407051.757 9
  20441258.811   -16189812.114 8  -8285538.447 9
  22022914.983      896487.044 6   4103746.275 4
  20090924.762     8442849.006 8    508624.196 8
  22350127.808    -3955046.868 6  -7158036.040 4
  23402040.934    -5151849.101 5  -4049031.692 2
 94  2 15  0 36 29.9980000  0  6  2  7 19 27 26 15
  20375756.707    -5366420.961 9  -2415132.889 9
  20429076.625   -16253827.511 8  -8335420.501 9
  22035433.927      962270.005 6   4155005.720 4
  20097106.483     8475340.485 8    533942.236 9
  22339083.394    -4013122.245 6  -7203289.522 4
  23394900.567    -5189284.445 4  -4078201.968 2
 94  2 15  0 36 59.9980000  0  6  2  7 19 27 26 15
  20373816.870    -5376625.331 9  -2423084.300 9
  20416991.241   -16317359.437 8  -8384925.855 9
  22048012.858     1028354.427 6   4206500.058 4
  20103370.436     8508270.698 8    559602.119 8
  22328128.109    -4070694.092 6  -7248150.629 4
  23387883.565    -5226243.286 5  -4107000.962 2
 94  2 15  0 37 29.9980000  0  6  2  7 19 27 26 15
  20371911.089    -5386647.246 9  -2430893.558 9
  20404991.388   -16380401.868 8  -8434049.762 9
  22060641.706     1094735.804 6   4258225.759 4
  20109723.368     8541640.317 8    585604.469 8
  22317266.628    -4127753.417 6  -7292612.375 4
  23380942.171    -5262717.720 5  -4135422.461 2
 94  2 15  0 37 59.9980000  0  6  2  7 19 27 26 15
  20370031.840    -5396493.097 9  -2438565.618 9
  20393086.450   -16442956.783 8  -8482793.800 9
  22073329.312     1161396.146 6   4310168.853 4
  20116150.619     8575427.725 8    611932.315 8
  22306506.567    -4184304.629 6  -7336678.237 4
  23374091.733    -5298711.726 5  -4163469.590 2
 94  2 15  0 38 29.9980000  0  7  2 13  7 19 27 26 15
  20368193.483    -5406162.694 9  -2446100.338 9
  24251055.903     1362584.80714    -88336.159
  20381278.824   -16505015.617 8  -8531151.265 9
  22086068.033     1228345.182 6   4362336.938 4
  20122660.252     8609627.650 8    638581.605 8
  22295836.833    -4240370.720 6  -7380366.031 4
  23367338.608    -5334223.902 5  -4191141.298 2
 94  2 15  0 38 59.9980000  0  7  2 13  7 19 27 26 15
  20366396.557    -5415643.393 9  -2453487.858 9
  24226612.475     1234130.487 5   -188430.003
  20369557.988   -16566605.029 8  -8579142.968 9
  22098867.762     1295567.058 6   4414717.601 4
  20129245.553     8644244.974 8    665556.164 8
  22285255.659    -4295971.930 6  -7423691.587 4
  23360660.491    -5369255.360 5  -4218438.459 2
 94  2 15  0 39 29.9980000  0  7  2 13  7 19 27 26 15
  20364629.131    -5424916.082 9  -2460713.312 9
  24202173.064     1105720.799 5   -288488.986 1
  20357928.260   -16627729.107 8  -8626772.057 9
  22111705.865     1363059.478 6   4467309.065 4
  20135913.087     8679283.079 7    692858.576 8
  22274768.918    -4351114.790 6  -7466660.025 4
  23354094.617    -5403798.260 5  -4245354.992 2
 94  2 15  0 39 59.9980000  0  7  2 13  7 19 27 26 15
  20362898.759    -5433983.894 9  -2467779.119 9
  24177749.692      977351.910 5   -388516.367 1
  20346384.151   -16688389.651 8  -8674039.952 9
  22124596.581     1430821.215 6   4520110.404 4
  20142659.287     8714731.683 8    720480.867 8
  22264359.555    -4405799.234 6  -7509271.247 4
  23347607.857    -5437857.498 5  -4271894.560 2
 94  2 15  0 40 29.9980000  0  7  2 13  7 19 27 26 15
  20361214.195    -5442834.406 9  -2474675.593 9
  24153319.815      849027.415 5   -488508.946 1
  20334930.580   -16748580.450 8  -8720941.815 9
  22137546.116     1498864.113 6   4573130.861 4
  20149488.589     8750612.034 8    748439.595 8
  22254039.979    -4460021.180 6  -7551522.052 4
  23341220.269    -5471430.616 5  -4298055.305 2
 94  2 15  0 40 59.9980000  0  7  2 13  7 19 27 26 15
  20359568.424    -5451465.419 9  -2481401.046 9
  24128908.075      720753.292 5   -588462.400 1
  20323569.496   -16808295.200 8  -8767472.723 9
  22150546.556     1567179.576 6   4626363.643 4
  20156397.217     8786934.210 8    776742.568 8
  22243805.634    -4513756.280 6  -7593393.524 4
  23334929.035    -5504512.553 5  -4323833.355 2
 94  2 15  0 41 29.9980000  0  7  2 13  7 19 27 26 15
  20357970.470    -5459884.037 9  -2487960.993 9
  24104515.851      592532.677 5   -688374.346 1
  20312298.019   -16867508.466 8  -8813612.878 9
  22163601.468     1635774.854 6   4679814.458 4
  20163394.942     8823696.483 8    805388.503 8
  22233694.354    -4566987.363 6  -7634872.283 4
  23328726.329    -5537101.384 5  -4349227.129 2
 94  2 15  0 41 59.9980000  0  7  2 13  7 19 27 26 15
  20356409.091    -5468097.986 9  -2494361.435 9
  24080127.555      464362.025 5   -788247.523
  20301128.022   -16926220.010 8  -8859362.078 9
  22176704.047     1704637.026 6   4733473.287 4
  20170475.770     8860903.742 8    834381.184 8
  22223660.540    -4619698.498 6  -7675945.852 4
  23322604.147    -5569202.272 4  -4374240.742 2
 94  2 15  0 42 29.9980000  0  7  2 13  7 19 27 26 15
  20354888.034    -5476109.755 9  -2500604.363 9
  24055743.785      336246.945 5   -888077.235 1
  20290049.371   -16984430.179 8  -8904720.601 9
  22189857.471     1773759.808 6   4787335.175 4
  20177640.000     8898563.826 8    863726.718 8
  22213723.889    -4671889.514 6  -7716614.147 4
  23316603.381    -5600810.294 5  -4398870.197 2
 94  2 15  0 42 59.9980000  0  7  2 13  7 19 27 26 15
  20353398.905    -5483923.715 9  -2506693.129 9
  24031380.312      208191.636 5   -987860.125 1
  20279069.292   -17042143.962 8  -8949692.317 9
  22203057.003     1843144.585 6   4841401.212 4
  20184891.201     8936668.624 8    893418.765 8
  22203890.966    -4723555.691 6  -7756873.478 4
  23310676.934    -5631922.736 5  -4423113.550 2
 94  2 15  0 43 29.9980000  0  7  2 13  7 19 27 26 15
  20351946.740    -5491540.381 9  -2512628.199 9
  24007015.489       80196.910 4  -1087595.883 1
  20268174.295   -17099381.580 8  -8994292.985 9
  22216315.895     1912798.991 6   4895677.423 3
  20192224.064     8975208.032 8    923449.466 8
  22194161.082    -4774703.378 6  -7796728.751 4
  23304854.635    -5662540.185 5  -4446971.258 2
 94  2 15  0 43 59.9980000  0  7  2 13  7 19 27 26 15
  20350532.200    -5498965.800 9  -2518414.194 9
  23982677.408      -47731.497 4  -1187280.103
  20257372.023   -17156163.431 8  -9038538.526 9
  22229621.553     1982721.438 6   4950162.416 3
  20199642.848     9014177.077 8    953814.968 8
  22184519.187    -4825333.293 6  -7836180.613 4
  23299130.488    -5692658.060 5  -4470439.678 2
 94  2 15  0 44 29.9980000  0  7  2 13  7 19 27 26 15
  20349151.326    -5506212.371 9  -2524060.861 9
  23958337.018     -175590.220 4  -1286910.174 1
  20246647.877   -17212504.637 8  -9082440.719 9
  22242984.113     2052920.854 6   5004863.202 3
  20207140.658     9053575.604 8    984515.136 8
  22174988.215    -4875465.083 7  -7875244.291 4
  23293480.779    -5722274.289 4  -4493517.158 2
 94  2 15  0 44 59.9980000  0  7  2 13  7 19 27 26 15
  20347813.742    -5513278.627 9  -2529566.998 9
  23934035.152     -303375.766 3  -1386483.170 1
  20236010.342   -17268398.559 8  -9125994.367 9
  22256387.773     2123410.056 6   5059789.878 4
  20214715.783     9093402.013 8   1015548.706 8
  22165531.292    -4925097.103 6  -7913918.514 4
  23287949.998    -5751386.392 5  -4516201.808 2
 94  2 15  0 45 29.9980000  0  7  2 13  7 19 27 26 15
  20346501.100    -5520165.458 9  -2534933.339 9
  23909738.143     -431084.594 3  -1485996.068 1
  20225463.163   -17323828.672 8  -9169186.636 9
  22269861.226     2194180.435 6   5114935.592 4
  20222382.586     9133651.088 8   1046911.622 8
  22156194.975    -4974223.916 6  -7952199.139 4
  23282499.741    -5779992.378 5  -4538492.095 2
 94  2 15  0 45 59.9980000  0  7  2 13  7 19 27 26 15
  20345227.342    -5526886.279 9  -2540170.307 9
  23885445.900     -558717.654 3  -1585450.247 1
  20215007.571   -17378775.042 8  -9212001.932 9
  22283382.046     2265227.120 6   5170296.577 4
  20230119.150     9174322.758 8   1078603.856 8
  22146941.402    -5022852.754 6  -7990091.673 4
  23277156.990    -5808094.467 5  -4560389.777 2
 94  2 15  0 46 29.9980000  0  7  2 13  7 19 27 26 15
  20343977.208    -5533430.229 9  -2545269.464 9
  23861152.758     -686267.232 3  -1684839.293 1
  20204649.652   -17433204.036 8  -9254414.080 9
  22296950.562     2336547.979 6   5225871.245 4
  20237934.440     9215425.672 8   1110632.127 8
  22137773.838    -5070977.534 6  -8027591.431 4
  23271906.994    -5835686.686 5  -4581890.141 2
 94  2 15  0 46 59.9980000  0  7  2 13  7 19 27 26 15
  20342765.057    -5539793.243 9  -2550227.623 9
  23836891.064     -813730.495 2  -1784161.020 1
  20194393.003   -17487098.365 8  -9296409.607 9
  22310572.532     2408133.453 6   5281652.112 4
  20245842.485     9256959.144 8   1142995.895 8
  22128719.386    -5118581.757 6  -8064685.569 4
  23266747.896    -5862767.480 5  -4602992.050 2
 94  2 15  0 47 29.9980000  0  7  2 13  7 19 27 26 15
  20341583.994    -5545994.197 9  -2555059.513 9
  23812671.910     -941112.319 3  -1883419.207 1
  20184237.773   -17540470.429 8  -9337998.180 9
  22324241.000     2479964.637 6   5337624.449 4
  20253827.907     9298920.123 7   1175692.762 8
  22119760.988    -5165676.743 6  -8101382.900 4
  23261685.990    -5889342.903 5  -4623700.077 2
 94  2 15  0 47 59.9980000  0  7  2 13  7 19 27 26 15
  20340440.916    -5552021.306 9  -2559755.927 9
  23788445.922    -1068399.537 5  -1982603.735 1
  20174178.297   -17593327.578 8  -9379185.523 9
  22337968.676     2552052.601 6   5393796.845 4
  20261900.178     9341331.513 8   1208740.626 7
  22110897.144    -5212262.151 6  -8137683.182 4
  23256738.605    -5915401.533 5  -4644005.418 2
 94  2 15  0 48 29.9980000  0  7  2 13  7 19 27 26 15
  20339326.467    -5557871.587 9  -2564314.550 9
  23764248.533    -1195593.790 5  -2081715.841 1
  20164220.810   -17645685.892 8  -9419984.159 9
  22351726.812     2624388.537 6   5450162.446 4
  20270050.546     9384189.217 7   1242136.245 8
  22102125.067    -5258342.750 6  -8173590.062 4
  23251871.235    -5940946.588 4  -4663910.551 2
 94  2 15  0 48 59.9980000  0  7  2 13  7 19 27 26 15
  20338248.414    -5563536.412 9  -2568728.664 9
  23740053.483    -1322687.152 5  -2180749.303 1
  20154347.865   -17697550.312 8  -9460397.945 9
  22365542.207     2696991.098 6   5506735.882 4
  20278293.879     9427494.005 8   1275880.249 8
  22093458.667    -5303918.162 6  -8209103.317 4
  23247114.188    -5965971.611 5  -4683410.463 2
 94  2 15  0 49 29.9980000  0  7  2 13  7 19 27 26 15
  20337208.254    -5569014.920 9  -2572997.610 9
  23715898.125    -1449683.175 5  -2279706.919 2
  20144566.837   -17748938.008 8  -9500440.276 9
  22379412.645     2769858.422 6   5563515.571 4
  20286618.516     9471228.502 7   1309959.100 7
  22084872.821    -5349003.632 6  -8244234.809 4
  23242442.972    -5990481.426 5  -4702509.048 2
 94  2 15  0 49 59.9980000  0  7  2 13  7 19 27 26 15
  20336199.602    -5574301.815 9  -2577117.225 9
  23691749.123    -1576578.690 5  -2378586.302 2
  20134879.013   -17799849.060 8  -9540111.173 9
  22393324.244     2842994.697 6   5620504.848 4
  20295017.142     9515385.499 7   1344367.156 7
  22076383.927    -5393593.211 6  -8278979.880 4
  23237884.507    -6014474.557 5  -4721204.888 2
 94  2 15  0 50 29.9980000  0  7  2 13  7 19 27 26 15
  20335230.673    -5579398.519 9  -2581088.658 9
  23667618.229    -1703373.450 5  -2477387.054 2
  20125282.897   -17850275.324 8  -9579404.309 9
  22407291.215     2916395.318 6   5677700.122 3
  20303497.551     9559946.019 7   1379089.631 7
  22068000.561    -5437674.556 6  -8313328.927 4
  23233411.394    -6037952.075 5  -4739498.988 2
 94  2 15  0 50 59.9980000  0  7  2 13  7 19 27 26 15
  20334292.053    -5584302.999 9  -2584910.294 9
  23643504.452    -1830060.933 5  -2576104.270 2
  20115783.343   -17900207.115 8  -9618312.149 9
  22421311.699     2990061.612 6   5735102.388 3
  20312054.947     9604910.466 7   1414126.876 7
  22059707.642    -5481236.038 6  -8347272.906 4
  23229045.516    -6060909.388 5  -4757387.683 2
 94  2 15  0 51 29.9980000  0  7  2 13  7 19 27 26 15
  20333396.393    -5589020.175 9  -2588585.995 9
  23619421.585    -1956640.246 5  -2674737.212 2
  20106370.489   -17949654.019 8  -9656842.149 9
  22435378.501     3063976.839 6   5792698.644 3
  20320687.441     9650278.755 8   1449478.793 7
  22051519.681    -5524273.572 6  -8380808.592 4
  23224775.752    -6083346.843 5  -4774871.352 2
 94  2 15  0 51 59.9980000  0  7  2 13  7 19 27 26 15
  20332531.551    -5593559.300 9  -2592122.939 9
  23595354.936    -2083106.812 5  -2773282.201 1
  20097057.766   -17998599.764 8  -9694981.619 9
  22449492.160     3138137.335 6   5850486.024 3
  20329405.555     9696065.659 8   1485156.916 7
  22043431.820    -5566774.204 6  -8413925.950 4
  23220607.288    -6105261.871 4  -4791947.933 2
 94  2 15  0 52 29.9980000  0  7  2 13  7 19 27 26 15
  20331704.154    -5597910.236 9  -2595513.254 9
  23571310.471    -2209453.468 5  -2871733.819 1
  20087839.778   -18047031.518 8  -9732720.645 9
  22463650.159     3212549.240 6   5908469.287 3
  20338193.282     9742278.400 7   1521166.846 7
  22035448.227    -5608734.215 7  -8446622.005 4
  23216540.663    -6126649.311 5  -4808613.436 2
 94  2 15  0 52 59.9980000  0  7  2 13  7 19 27 26 15
  20330906.316    -5602083.911 9  -2598765.441 9
  23547284.504    -2335687.449 5  -2970097.635 1
  20078719.402   -18094963.716 8  -9770070.365 9
  22477858.912     3287218.388 6   5966653.014 3
  20347072.145     9788917.238 8   1557508.806 7
  22027557.090    -5650172.133 6  -8478911.248 4
  23212566.345    -6147517.712 5  -4824874.482 2
 94  2 15  0 53 29.9980000  0  7  2 13  7 19 27 26 15
  20330149.041    -5606080.315 9  -2601879.522 9
  23523287.947    -2461802.192 5  -3068368.549 1
  20069698.227   -18142397.436 8  -9807031.671 9
  22492126.215     3362154.093 6   6025044.441 3
  20356029.494     9835987.014 7   1594186.555 7
  22019777.145    -5691077.775 7  -8510785.763 4
  23208695.365    -6167862.025 5  -4840727.091 2
 94  2 15  0 53 59.9980000  0  7  2 13  7 19 27 26 15
  20329423.303    -5609897.862 9  -2604854.198 9
  23499313.574    -2587791.507 5  -3166541.637 1
  20060765.671   -18189325.307 8  -9843598.773 9
  22506434.979     3437367.171 6   6083652.014 3
  20365067.397     9883490.663 8   1631202.387 7
  22012093.195    -5731442.676 6  -8542238.908 4
  23204929.821    -6187677.947 5  -4856167.974 2
 94  2 15  0 54 29.9980000  0  7  2 13  7 19 27 26 15
  20328735.100    -5613526.663 9  -2607681.827 9
  23475366.302    -2713654.259 5  -3264616.127 1
  20051930.547   -18235762.791 8  -9879783.778 9
  22520797.167     3512855.705 6   6142474.192 3
  20374186.454     9931412.623 7   1668544.168 7
  22004513.422    -5771280.658 7  -8573281.452 4
  23201249.689    -6206966.063 5  -4871197.591 2
 94  2 15  0 54 59.9980000  0  7  2 13  7 19 27 26 15
  20328081.192    -5616969.015 9  -2610364.152 9
  23451441.185    -2839382.869 5  -3362586.170 1
  20043181.794   -18281708.359 8  -9915585.469 9
  22535211.608     3588610.982 5   6201504.245 3
  20383385.826     9979762.812 8   1706219.664 7
  21997041.365    -5810582.219 7  -8603906.022 4
  23197677.092    -6225720.529 5  -4885811.410 2
 94  2 15  0 55 29.9980000  0  7  2 13  7 19 27 26 15
  20327459.063    -5620226.207 9  -2612902.214 9
  23427533.156    -2964974.016 4  -3460449.154 1
  20034534.640   -18327162.628 8  -9951004.350 9
  22549677.703     3664606.848 5   6260721.762 3
  20392667.940    10028536.802 7   1744225.380 7
  21989661.464    -5849339.571 7  -8634106.519 4
  23194224.263    -6243939.986 5  -4900008.378 2
 94  2 15  0 55 59.9980000  0  7  2 13  7 19 27 26 15
  20326875.187    -5623282.037 9  -2615283.357 9
  23403666.679    -3090422.766 4  -3558201.000 1
  20025981.082   -18372115.897 8  -9986032.825 9
  22564181.033     3740835.502 5   6320120.713 2
  20402030.518    10077735.135 7   1782561.746 7
  21982390.478    -5887565.765 7  -8663893.160 4
  23190850.878    -6261621.155 5  -4913785.804 2
 94  2 15  0 56 29.9980000  0  7  2 13  7 19 27 26 15
  20326335.141    -5626133.567 9  -2617505.311 9
  23379822.266    -3215725.513 4  -3655839.217 1
  20017523.457   -18416558.990 8 -10020663.757 9
  22578733.978     3817296.891 6   6379700.970 2
  20411471.642    10127354.179 8   1821225.948 7
  21975212.667    -5925264.121 7  -8693268.464 5
  23187587.727    -6278762.484 5  -4927142.603 2
 94  2 15  0 56 59.9980000  0  7  2 13  7 19 27 26 15
  20325825.404    -5628794.287 9  -2619578.578 9
  23356003.995    -3340880.006 4  -3753361.883 1
  20009164.943   -18460487.201 8 -10054893.475 9
  22593323.258     3893987.107 6   6439459.548 2
  20420995.539    10177402.292 7   1860224.486 7
  21968136.426    -5962424.537 7  -8722224.616 5
  23184424.677    -6295363.665 5  -4940078.532 2
 94  2 15  0 57 29.9980000  0  7  2 13  7 19 27 26 15
  20325356.858    -5631262.953 9  -2621502.209 9
  23332222.688    -3465880.701 4  -3850764.780 1
  20000901.374   -18503898.569 8 -10088720.491 9
  22607957.597     3970913.396 5   6499402.090 2
  20430598.251    10227864.754 7   1899545.884 7
  21961172.876    -5999050.829 7  -8750764.581 4
  23181375.488    -6311420.969 5  -4952590.628 2
 94  2 15  0 57 59.9980000  0  7  2 13  7 19 27 26 15
  20324919.461    -5633554.757 9  -2623288.003 9
  23308456.611    -3590725.515 5  -3948046.194 1
  19992742.972   -18546784.177 8 -10122137.795 9
  22622648.117     4048081.933 5   6559533.342 2
  20440275.642    10278731.652 7   1939182.434 7
  21954306.670    -6035152.086 7  -8778895.374 5
  23178418.365    -6326934.087 5  -4964678.804 2
 94  2 15  0 58 29.9980000  0  7  2 13  7 19 27 26 15
  20324509.465    -5635691.749 9  -2624953.174 9
  23284734.454    -3715409.815 5  -4045202.647 1
  19984681.283   -18589142.860 8 -10155144.520 9
  22637378.539     4125491.194 6   6619852.240 3
  20450038.173    10330003.130 7   1979134.248 7
  21947531.300    -6070721.049 7  -8806611.428 5
  23175574.264    -6341900.512 5  -4976340.860 2
 94  2 15  0 58 59.9980000  0  7  2 13  7 19 27 26 15
  20324138.322    -5637679.776 9  -2626502.280 9
  23261039.308    -3839932.609 5  -4142233.197 1
  19976717.356   -18630991.268 8 -10187753.631 9
  22652152.341     4203140.272 6   6680357.965 3
  20459872.145    10381682.789 7   2019404.120 7
  21940865.385    -6105756.365 7  -8833911.658 5
  23172833.861    -6356321.050 5  -4987577.580 2
 94  2 15  0 59 29.9980000  0  7  2 13  7 19 27 26 15
  20323795.149    -5639505.792 9  -2627925.141 9
  23237377.858    -3964288.383 5  -4239133.676 1
  19968849.393   -18672323.861 8 -10219960.821 9
  22666978.188     4281045.164 5   6741063.028 3
  20469782.474    10433778.112 7   2059997.878 7
  21934297.772    -6140260.089 7  -8860797.663 5
  23170195.837    -6370192.485 5  -4998386.410 2
 94  2 15  0 59 59.9980000  0  7  2 13  7 19 27 26 15
  20323475.661    -5641169.615 9  -2629221.602 9
  23213739.013    -4088480.281 5  -4335906.405 1
  19961085.278   -18713151.742 8 -10251774.706 9
  22681853.080     4359206.934 5   6801968.264 3
  20479779.564    10486309.440 7   2100931.388 7
  21927839.672    -6174235.963 7  -8887272.351 5
  23167653.177    -6383519.943 5  -5008771.437 2
 94  2 15  1  0 29.9980000  0  7  2 13  7 19 27 26 15
  20323190.798    -5642650.674 9  -2630375.647 9
  23190142.079    -4212504.978 5  -4432548.832 1
  19953412.810   -18753485.874 8 -10283203.869 9
  22696779.297     4437645.444 5   6863089.118 3
  20489862.034    10539300.756 7   2142223.318 7
  21921469.862    -6207672.661 7  -8913326.899 5
  23165217.004    -6396301.979 5  -5018731.463 2
 94  2 15  1  0 59.9980000  0  7  2 13  7 19 27 26 15
  20322943.259    -5643944.526 9  -2631383.842 9
  23166568.708    -4336361.651 5  -4529060.436 1
  19945826.921   -18793334.470 8 -10314254.683 9
  22711762.114     4516362.537 6   6924427.074 3
  20500034.052    10592753.297 7   2183874.635 7
  21915217.930    -6240563.773 7  -8938956.333 5
  23162892.083    -6408539.946 5  -5028267.496 2
 94  2 15  1  1 29.9980000  0  7  2 13  7 19 27 26 15
  20322730.646    -5645048.342 9  -2632243.932 9
  23143037.099    -4460041.758 5  -4625434.420 1
  19938339.155   -18832675.589 8 -10344910.075 9
  22726786.243     4595350.823 6   6985976.383 3
  20510291.750    10646662.427 7   2225881.770 7
  21909052.549    -6272909.087 7  -8964160.467 5
  23160666.934    -6420227.031 5  -5037374.251 2
 94  2 15  1  1 59.9980000  0  7  2 13  7 19 27 26 15
  20322559.945    -5645970.355 9  -2632962.367 9
  23119532.381    -4583544.470 5  -4721670.093 1
  19930946.273   -18871513.807 8 -10375173.579 9
  22741866.314     4674592.827 6   7047723.430 3
  20520634.890    10701010.969 7   2268231.286 6
  21903012.630    -6304706.906 7  -8988937.952 5
  23158541.166    -6431364.777 5  -5046052.919 2
 94  2 15  1  2 29.9980000  0  7  2 13  7 19 27 26 15
  20322418.353    -5646722.496 9  -2633548.423 9
  23096068.225    -4706867.634 5  -4817765.924 1
  19923656.789   -18909834.512 8 -10405033.832 9
  22756992.942     4754078.840 6   7109660.561 3
  20531056.036    10755769.922 8   2310900.587 6
  21897059.501    -6335961.207 7  -9013291.969 5
  23156530.607    -6441952.854 5  -5054303.416 2
 94  2 15  1  2 59.9980000  0  7  2 13  7 19 27 26 15
  20322302.783    -5647312.916 9  -2634008.479 9
  23072632.249    -4830008.048 5  -4913719.333 1
  19916465.818   -18947627.784 8 -10434483.101 9
  22772168.106     4833785.448 6   7171769.550 3
  20541549.281    10810914.341 7   2353870.281 6
  21891210.550    -6366676.935 7  -9037226.275 5
  23154615.773    -6451990.646 5  -5062124.997 2
 94  2 15  1  3 29.9980000  0  7  2 13  7 19 27 26 15
  20322220.909    -5647735.415 9  -2634337.679 9
  23049237.645    -4952965.178 5  -5009529.882 1
  19909373.238   -18984890.073 8 -10463518.608 9
  22787372.530     4913710.923 6   7234049.092 2
  20552115.227    10866440.925 7   2397137.760 6
  21885474.261    -6396866.317 7  -9060750.433 5
  23152822.774    -6461479.825 5  -5069519.078 2
 94  2 15  1  3 59.9980000  0  7  2 13  7 19 27 26 15
  20322174.202    -5647991.266 9  -2634537.022 9
  23025873.559    -5075733.784 5  -5105193.597 1
  19902379.979   -19021626.810 8 -10492144.604 9
  22802627.260     4993867.043 5   7296508.443 2
  20562758.339    10922367.097 7   2440716.577 6
  21879826.172    -6426520.548 6  -9083857.623 5
  23151121.302    -6470417.059 5  -5076483.096 2
 94  2 15  1  4 29.9980000  0  7  2 13  7 19 27 26 15
  20322157.593    -5648086.471 9  -2634611.194 9
  23002542.631    -5198315.806 5  -5200711.822 2
  19895488.890   -19057849.105 8 -10520369.735 9
  22817918.744     5074248.802 5   7359143.572 2
  20573477.628    10978695.146 7   2484608.552 6
  21874281.510    -6455642.168 7  -9106549.774 5
  23149521.190    -6478806.818 5  -5083020.493 2
 94  2 15  1  4 59.9980000  0  7  2 13  7 19 27 26 15
  20322173.872    -5648005.408 9  -2634547.990 9
  22979258.500    -5320703.145 5  -5296078.372 2
  19888691.306   -19093571.326 8 -10548205.196 9
  22833262.182     5154858.326 5   7421956.153 2
  20584278.940    11035443.418 7   2528827.987 6
  21868853.378    -6484214.577 7  -9128813.944 5
  23148037.697    -6486643.298 5  -5089126.890 2
 94  2 15  1  5 29.9980000  0  7  2 13  7 19 27 26 15
  20322219.650    -5647748.874 9  -2634348.076 9
  22956006.477    -5442889.326 5  -5391288.169 2
  19881986.987   -19128797.560 8 -10575654.183 9
  22848637.098     5235701.383 5   7484950.724 2
  20595161.017    11092631.051 7   2573389.775 6
  21863519.890    -6512231.057 7  -9150644.954 5
  23146643.842    -6493922.199 5  -5094798.660 2
 94  2 15  1  5 59.9980000  0  7  2 13  7 19 27 26 15
  20322301.344    -5647319.459 9  -2634013.447 9
  22932790.340    -5564873.685 5  -5486340.700 2
  19875378.122   -19163536.782 8 -10602723.659 9
  22864064.957     5316767.634 5   7548119.261 2
  20606124.637    11150250.833 7   2618288.292 6
  21858291.779    -6539686.519 7  -9172038.803 5
  23145363.398    -6500644.789 5  -5100036.996 2
 94  2 15  1  6 29.9980000  0  7  2 13  7 19 27 26 15
  20322424.978    -5646702.093 9  -2633532.364 9
  22909611.106    -5686655.367 5  -5581235.301 2
  19868862.193   -19197789.808 8 -10629414.298 9
  22879543.841     5398051.294 5   7611457.209 2
  20617167.672    11208285.092 7   2663509.784 6
  21853173.333    -6566589.981 7  -9193002.516 5
  23144198.855    -6506812.917 5  -5104843.253 2
 94  2 15  1  6 59.9980000  0  7  2 13  7 19 27 26 15
  20322575.863    -5645889.342 9  -2632899.019 9
  22886479.840    -5808228.336 5  -5675967.298 2
  19862435.362   -19231539.300 8 -10655712.549 9
  22895049.077     5479556.604 4   7674967.768 2
  20628293.989    11266743.507 7   2709061.789 6
  21848157.116    -6592947.979 7  -9213541.180 5
  23143121.850    -6512422.706 5  -5109214.482 2
 94  2 15  1  7 29.9980000  0  7  2 13  7 19 27 26 15
  20322764.313    -5644880.028 9  -2632112.519 9
  22863386.287    -5929592.584 5  -5770536.704 2
  19856113.339   -19264775.401 8 -10681610.793 9
  22910593.616     5561280.161 4   7738648.512 2
  20639496.544    11325624.274 7   2754942.880 6
  21843240.040    -6618770.520 7  -9233662.613 5
  23142160.146    -6517476.389 5  -5113152.471 2
 94  2 15  1  7 59.9980000  0  7  2 13  7 19 27 26 15
  20322998.931    -5643666.199 9  -2631166.669 9
  22840332.397    -6050745.219 5  -5864941.171 2
  19849887.339   -19297488.744 8 -10707101.674 9
  22926194.906     5643220.491 5   7802498.121 2
  20650777.764    11384913.367 7   2801142.161 6
  21838434.037    -6644062.272 7  -9253370.491 5
  23141310.834    -6521973.566 5  -5116656.690 2
 94  2 15  1  8 29.9980000  0  7  2 13  7 19 27 26 15
  20323268.084    -5642250.965 9  -2630063.855 9
  22817318.139    -6171681.819 5  -5959177.347 2
  19843761.110   -19329670.007 8 -10732177.951 9
  22941830.911     5725384.735 5   7866522.201 2
  20662139.568    11444609.967 7   2847658.975 6
  21833716.742    -6668828.507 7  -9272668.808 5
  23140558.235    -6525912.617 5  -5119725.996 2
 94  2 15  1  8 59.9980000  0  7  2 13  7 19 27 26 15
  20323570.695    -5640651.483 9  -2628817.501 9
  22794346.183    -6292405.478 5  -6053247.578 2
  19837743.496   -19361320.358 8 -10756840.526 9
  22957514.853     5807769.226 5   7930717.872 2
  20673576.141    11504715.442 7   2894494.414 6
  21829105.395    -6693065.640 7  -9291554.848 5
  23139909.034    -6529298.536 5  -5122364.357 2
 94  2 15  1  9 29.9980000  0  7  2 13  7 19 27 26 15
  20323909.430    -5638879.332 9  -2627436.578 9
  22771414.638    -6412914.376 5  -6147150.456 2
  19831816.119   -19392455.475 8 -10781101.634 9
  22973222.239     5890372.722 4   7995084.204 2
  20685085.413    11565202.308 7   2941626.996 6
  21824591.630    -6716771.579 7  -9310027.003 5
  23139381.430    -6532131.787 5  -5124572.068 2
 94  2 15  1  9 59.9970000  0  7  2 13  7 19 27 26 15
  20324279.734    -5636943.314 8  -2625927.987 9
  22748521.346    -6533200.925 5  -6240880.125 2
  19825987.255   -19423076.811 8 -10804962.370 9
  22988982.778     5973203.714 4   8059627.802 2
  20696667.205    11626052.875 7   2989043.024 6
  21820183.601    -6739950.413 7  -9328088.425 5
  23138940.974    -6534411.587 5  -5126348.518 2
 94  2 15  1 10 29.9970000  0  7  2 13  7 19 27 26 15
  20324678.248    -5634850.390 9  -2624297.126 9
  22725673.773    -6653274.671 5  -6334443.948 2
  19820254.953   -19453200.280 8 -10828435.175 9
  23004793.113     6056275.056 5   8124358.736 2
  20708314.232    11687273.261 7   3036747.218 6
  21815870.067    -6762598.723 7  -9345736.422 5
  23138619.147    -6536142.151 5  -5127696.905 2
 94  2 15  1 10 59.9970000  0  7  2 13  7 19 27 26 15
  20325106.082    -5632605.266 8  -2622547.664 9
  22702867.332    -6773126.885 6  -6427835.216 2
  19814617.176   -19482837.502 8 -10851529.086 9
  23020648.417     6139581.189 5   8189272.581 2
  20720038.516    11748862.305 7   3084738.679 6
  21811661.461    -6784705.702 7  -9362962.611 5
  23138377.664    -6537321.083 5  -5128615.488 2
 94  2 15  1 11 29.9970000  0  7  2 13  7 19 27 26 15
  20325558.409    -5630206.660 8  -2620678.599 9
  22680104.870    -6892752.561 6  -6521049.930 2
  19809069.277   -19511988.688 8 -10874244.277 9
  23036540.055     6223117.269 5   8254365.563 2
  20731825.126    11810821.862 7   3133018.833 6
  21807567.105    -6806268.488 7  -9379764.756 5
  23138257.508    -6537945.912 5  -5129102.304 2
 94  2 15  1 11 59.9970000  0  7  2 13  7 19 27 26 15
  20326048.869    -5627652.502 9  -2618688.349 9
  22657385.129    -7012152.498 6  -6614088.766 2
  19803616.292   -19540642.747 8 -10896572.083 9
  23052480.080     6306873.128 5   8319629.888 2
  20743691.391    11873179.178 7   3181608.945 6
  21803562.808    -6827282.896 7  -9396139.575 5
  23138261.045    -6538020.173 5  -5129160.166 2
 94  2 15  1 12 29.9970000  0  7  2 13  7 19 27 26 15
  20326558.786    -5624951.869 9  -2616583.954 9
  22634701.992    -7131326.069 6  -6706951.155 2
  19798261.309   -19568807.251 8 -10918518.427 9
  23068454.971     6390828.746 5   8385049.855 2
  20755635.273    11935954.250 7   3230524.573 6
  21799668.324    -6847744.083 7  -9412083.322 5
  23138344.058    -6537545.461 5  -5128790.203 2
 94  2 15  1 12 59.9970000  0  7  2 13  7 19 27 26 15
  20327097.183    -5622105.827 8  -2614366.240 9
  22612066.342    -7250271.213 5  -6799635.532 2
  19792990.928   -19596481.797 8 -10940082.985 9
  23084467.306     6474964.944 5   8450610.432 2
  20767661.747    11999144.215 7   3279763.502 6
  21795881.735    -6867663.622 7  -9427605.004 5
  23138537.274    -6536522.402 5  -5127992.947 2
 94  2 15  1 13 29.9970000  0  7  2 13  7 19 27 26 15
  20327673.594    -5619109.802 9  -2612031.675 9
  22589480.578    -7368989.082 6  -6892142.803 2
  19787821.726   -19623654.519 8 -10961256.509 9
  23100511.719     6559274.625 5   8516306.290 2
  20779765.088    12062749.798 7   3329326.303 6
  21792187.183    -6887053.694 7  -9442714.114 5
  23138840.424    -6534954.743 5  -5126771.335 2
 94  2 15  1 13 59.9970000  0  7  2 13  7 19 27 26 15
  20328269.972    -5615962.817 8  -2609579.457 9
  22566932.768    -7487475.511 6  -6984469.786 2
  19782743.062   -19650336.718 8 -10982047.812 9
  23116587.100     6643766.665 5   8582144.254 2
  20791950.062    12126767.383 7   3379210.133 6
  21788601.125    -6905924.855 7  -9457418.911 5
  23139243.225    -6532841.463 5  -5125124.550 2
 94  2 15  1 14 29.9970000  0  7  2 13  7 19 27 26 15
  20328897.947    -5612658.206 8  -2607004.434 9
  22544431.155    -7605725.904 6  -7076612.765 2
  19777757.154   -19676542.694 8 -11002468.028 9
  23132701.694     6728451.656 6   8648132.564 2
  20804204.199    12191179.126 7   3429401.102 6
  21785108.363    -6924276.646 7  -9471718.978 5
  23139744.778    -6530180.431 5  -5123051.028 2
 94  2 15  1 14 59.9970000  0  7  2 13  7 19 27 26 15
  20329561.388    -5609188.530 8  -2604300.787 9
  22521969.295    -7723738.562 6  -7168570.577 2
  19772861.483   -19702265.530 8 -11022511.767 9
  23148860.747     6813332.321 5   8714273.310 2
  20816535.203    12255966.996 7   3479885.149 6
  21781712.614    -6942113.234 7  -9485617.601 5
  23140361.091    -6526972.294 5  -5120551.134 2
 94  2 15  1 15 29.9970000  0  7  2 13  7 19 27 26 15
  20330250.161    -5605562.627 9  -2601475.423 9
  22499560.558    -7841511.036 6  -7260341.235 2
  19768057.039   -19727496.246 8 -11042172.089 9
  23165050.439     6898412.347 5   8780569.389 2
  20828934.049    12321134.557 7   3530665.045 6
  21778418.615    -6959418.303 7  -9499102.084 5
  23141071.869    -6523217.622 5  -5117625.380 2
 94  2 15  1 15 59.9970000  0  7  2 13  7 19 27 26 15
  20330966.845    -5601788.128 9  -2598534.234 9
  22477194.152    -7959042.998 6  -7351924.390 2
  19763349.608   -19752246.402 8 -11061457.870 9
  23181279.404     6983686.452 5   8847016.768 2
  20841403.287    12386673.480 7   3581734.363 6
  21775234.609    -6976181.231 7  -9512164.051 5
  23141886.315    -6518918.530 5  -5114275.350 2
 94  2 15  1 16 29.9970000  0  7  2 13  7 19 27 26 15
  20331714.407    -5597860.686 8  -2595473.872 9
  22454877.931    -8076332.795 6  -7443318.887 2
  19758731.635   -19776497.260 8 -11080354.620 9
  23197538.738     7069143.065 5   8913606.298 2
  20853946.873    12452578.846 7   3633089.197 6
  21772147.496    -6992391.688 7  -9524795.559 5
  23142807.578    -6514076.328 5  -5110502.240 2
 94  2 15  1 16 59.9970000  0  7  2 13  7 19 27 26 15
  20332488.561    -5593788.412 8  -2592300.674 9
  22432602.902    -8193377.562 6  -7534522.428 2
  19754217.900   -19800233.595 8 -11098850.431 9
  23213830.450     7154772.499 4   8980330.443 3
  20866558.032    12518848.701 7   3684728.025 6
  21769163.542    -7008049.725 7  -9536996.583 5
  23143831.729    -6508690.744 5  -5106305.679 2
 94  2 15  1 17 29.9970000  0  7  2 13  7 19 27 26 15
  20333292.335    -5589570.641 9  -2589014.069 9
  22410376.739    -8310174.594 6  -7625532.958 2
  19749797.370   -19823458.269 8 -11116947.552 9
  23230158.976     7240580.761 4   9047193.941 3
  20879236.465    12585480.962 7   3736649.286 6
  21766290.631    -7023149.638 7  -9548762.739 5
  23144963.715    -6502761.686 5  -5101685.539 2
 94  2 15  1 17 59.9970000  0  7  2 13  7 19 27 26 15
  20334124.139    -5585200.685 8  -2585608.930 9
  22388194.555    -8426719.816 6  -7716347.340 2
  19745477.630   -19846179.444 8 -11134652.359 9
  23246525.815     7326577.869 5   9114204.656 3
  20891986.489    12652469.875 7   3788848.404 6
  21763525.045    -7037712.455 7  -9560110.392 5
  23146191.965    -6496288.265 5  -5096641.275 2
 94  2 15  1 18 29.9970000  0  7  2 13  7 19 27 26 15
  20334986.192    -5580681.164 8  -2582087.178 9
  22366066.364    -8543016.698 6  -7806968.095 2
  19741248.668   -19868395.052 8 -11151963.176 9
  23262928.390     7412764.656 5   9181363.157 3
  20904801.507    12719805.681 7   3841317.892 6
  21760847.689    -7051761.512 7  -9571057.655 5
  23147534.196    -6489276.733 5  -5091177.652 2
 94  2 15  1 18 59.9970000  0  7  2 13  7 19 27 26 15
  20335871.869    -5576014.941 8  -2578451.143 9
  22343985.541    -8659058.614 6  -7897390.249 2
  19737112.311   -19890117.087 8 -11168889.403 9
  23279364.092     7499146.046 5   9248673.309 3
  20917681.430    12787500.956 7   3894067.450 6
  21758268.634    -7065295.348 7  -9581603.447 5
  23148969.242    -6481723.332 5  -5085291.931 2
 94  2 15  1 19 29.9970000  0  7  2 13  7 19 27 26 15
  20336790.313    -5571191.792 8  -2574692.850 9
  22321949.926    -8774843.731 6  -7987612.293 2
  19733074.527   -19911357.584 8 -11185440.451 9
  23295839.456     7585726.822 5   9316138.776 3
  20930634.803    12855566.283 7   3947105.312 6
  21755797.205    -7078323.911 7  -9591755.572 5
  23150502.381    -6473628.685 5  -5078984.363 2
 94  2 15  1 19 59.9970000  0  7  2 13  7 19 27 26 15
  20337741.704    -5566212.993 8  -2570813.227 9
  22299968.153    -8890373.201 6  -8077635.110 2
  19729119.095   -19932130.677 8 -11201627.212 9
  23312349.057     7672496.775 5   9383751.670 2
  20943657.608    12924002.750 7   4000432.442 5
  21753403.812    -7090860.325 7  -9601524.128 5
  23152150.550    -6464997.122 5  -5072258.385 2
 94  2 15  1 20 29.9970000  0  7  2 13  7 19 27 26 15
  20338715.430    -5561069.173 8  -2566805.025 9
  22278032.369    -9005641.276 6  -8167454.252 2
  19725254.261   -19952439.235 8 -11217452.039 9
  23328894.992     7759448.050 5   9451505.957 2
  20956749.364    12992814.348 7   4054051.841 5
  21751119.064    -7102883.861 7  -9610893.056 5
  23153896.541    -6455825.876 5  -5065111.894 2
 94  2 15  1 20 59.9970000  0  7  2 13  7 19 27 26 15
  20339723.153    -5555765.065 8  -2562671.938 9
  22256145.121    -9120649.246 6  -8257070.710 2
  19721474.837   -19972303.402 8 -11232930.586 9
  23345476.153     7846561.484 5   9519386.592 2
  20969920.146    13062009.406 7   4107970.075 5
  21748928.300    -7114391.510 7  -9619860.007 5
  23155736.427    -6446119.084 5  -5057548.136 2
 94  2 15  1 21 29.9970000  0  7  2 13  7 19 27 26 15
  20340767.570    -5550300.590 9  -2558413.871 9
  22234310.817    -9235390.989 6  -8346479.700 2
  19717781.064   -19991711.471 8 -11248053.732 9
  23362081.358     7933837.770 6   9587394.058 2
  20983155.804    13131580.431 7   4162181.226 5
  21746831.192    -7125386.683 7  -9628427.632 5
  23157702.436    -6435873.552 5  -5049564.620 2
 94  2 15  1 21 59.9970000  0  7  2 13  7 19 27 26 15
  20341833.272    -5544692.879 8  -2554044.211 9
  22212522.890    -9349867.366 6  -8435681.891 2
  19714177.349   -20010654.883 7 -11262814.803 9
  23378720.289     8021263.870 5   9655518.238 2
  20996462.901    13201512.389 7   4216673.649 5
  21744848.365    -7135861.706 7  -9636589.971 5
  23159739.346    -6425093.246 5  -5041164.394 2
 94  2 15  1 22 29.9970000  0  7  2 13  7 19 27 26 15
  20342923.707    -5538948.552 9  -2549568.083 9
  22190796.271    -9464074.977 6  -8524674.739 2
  19710662.043   -20029114.920 8 -11277199.234 9
  23395386.171     8108833.870 5   9723754.637 2
  21009838.921    13271796.625 7   4271440.560 5
  21742949.090    -7145812.351 7  -9644343.685 5
  23161895.723    -6413777.415 5  -5032346.765 2
 94  2 15  1 22 59.9970000  0  7  2 13  7 19 27 26 15
  20344042.323    -5533081.038 8  -2544995.979 9
  22169110.964    -9578009.787 6  -8613454.937 2
  19707245.188   -20047075.222 8 -11291194.237 9
  23412073.309     8196555.758 5   9792109.311 2
  21023277.808    13342425.866 7   4326476.325 5
  21741159.538    -7155242.506 7  -9651691.831 5
  23164142.338    -6401925.214 5  -5023111.241 2
 94  2 15  1 23 29.9970000  0  7  2 13  7 19 27 26 15
  20345182.673    -5527090.999 9  -2540328.393 9
  22147481.987    -9691672.762 6  -8702023.363 2
  19703920.849   -20064532.870 8 -11304797.568 9
  23428800.409     8284435.698 5   9860587.131 2
  21036778.961    13413372.646 7   4381759.496 5
  21739458.096    -7164155.137 7  -9658636.710 5
  23166516.125    -6389540.166 5  -5013460.600 2
 94  2 15  1 23 59.9970000  0  7  2 13  7 19 27 26 15
  20346342.180    -5520972.740 9  -2535560.900 9
  22125904.965    -9805067.046 6  -8790382.392 2
  19700693.434   -20081501.798 8 -11318020.089 9
  23445552.272     8372464.279 5   9929180.827 2
  21050340.073    13484624.486 7   4437280.392 5
  21737862.001    -7172557.001 7  -9665183.624 5
  23168965.459    -6376628.925 5  -5003399.871 2
 94  2 15  1 24 29.9970000  0  7  2 13  7 19 27 26 15
  20347538.622    -5514706.370 8  -2530677.989 9
  22104378.667    -9918183.127 6  -8878524.659 2
  19697555.146   -20097992.837 7 -11330870.206 9
  23462331.206     8460643.050 5   9997891.553 2
  21063952.509    13556186.263 7   4493042.814 5
  21736364.268    -7180447.588 6  -9671332.080 5
  23171528.744    -6363185.130 5  -4992924.121 2
 94  2 15  1 24 59.9970000  0  7  2 13  7 19 27 26 15
  20348758.807    -5508284.969 9  -2525674.275 9
  22082909.120   -10031022.536 6  -8966451.319 2
  19694505.538   -20114031.579 8 -11343367.904 9
  23479135.922     8548968.803 6  10066716.785 2
  21077637.075    13628062.476 7   4549050.237 5
  21734954.674    -7187841.315 7  -9677093.434 5
  23174178.610    -6349213.305 5  -4982036.980 2
 94  2 15  1 25 29.9970000  0  7  2 13  7 19 27 26 15
  20350014.068    -5501696.855 9  -2520540.641 9
  22061491.078   -10143583.461 6  -9054160.986 2
  19691537.292   -20129622.668 8 -11355516.770 9
  23495972.627     8637428.435 5  10135646.386 2
  21091375.634    13700264.455 7   4605311.487 5
  21733641.253    -7194745.447 7  -9682473.286 5
  23176940.538    -6334714.491 5  -4970739.188 2
 94  2 15  1 25 59.9970000  0  7  2 13  7 19 27 26 15
  20351294.362    -5494949.179 9  -2515282.701 9
  22040121.361   -10255861.280 6  -9141650.046 2
  19688655.807   -20144759.472 8 -11367311.663 9
  23512829.387     8726027.950 5  10204684.949 2
  21105181.617    13772814.184 7   4661843.728 5
  21732418.820    -7201162.427 7  -9687473.503 5
  23179804.785    -6319687.368 5  -4959029.762 2
 94  2 15  1 26 29.9970000  0  7  2 13  7 19 27 26 15
  20352611.111    -5488054.522 9  -2509910.222 9
  22018811.514   -10367853.364 6  -9228916.500 2
  19685863.061   -20159439.312 8 -11378750.482 9
  23529720.713     8814782.120 5  10273844.006 2
  21119056.731    13845727.635 7   4718659.403 5
  21731286.324    -7207093.529 7  -9692095.127 5
  23182760.499    -6304132.310 5  -4946908.867 2
 94  2 15  1 26 59.9970000  0  7  2 13  7 19 27 26 15
  20353947.435    -5481027.368 9  -2504434.486 9
  21997555.599   -10479555.627 6  -9315957.110 2
  19683159.442   -20173642.725 8 -11389818.059 9
  23546643.488     8903710.414 5  10343138.790 2
  21133003.106    13919015.028 7   4775766.437 5
  21730250.780    -7212533.181 7  -9696333.823 5
  23185828.035    -6288048.337 5  -4934375.868 2
 94  2 15  1 27 29.9970000  0  7  2 13  7 19 27 26 15
  20355307.024    -5473886.578 9  -2498870.201 9
  21976352.867   -10590966.861 6  -9402770.970 2
  19680547.800   -20187370.501 8 -11400514.995 9
  23563604.966     8992818.381 5  10412573.545 2
  21147016.965    13992668.659 7   4833158.899 5
  21729319.235    -7217471.192 7  -9700181.629 5
  23188990.726    -6271437.463 5  -4921432.390 2
 94  2 15  1 27 59.9970000  0  7  2 13  7 19 27 26 15
  20356684.421    -5466641.046 9  -2493224.325 9
  21955208.236   -10702088.368 6  -9489359.030 2
  19678023.668   -20200638.986 8 -11410854.068 9
  23580594.384     9082108.591 4  10482150.307 2
  21161100.495    14066676.148 7   4890827.057 5
  21728471.722    -7221905.782 7  -9703637.133 5
  23192245.393    -6254304.303 5  -4908081.821 2
 94  2 15  1 28 29.9970000  0  7  2 13  7 19 27 26 15
  20358087.899    -5459275.291 9  -2487484.751 9
  21934118.496   -10812914.681 6  -9575717.094 2
  19675586.145   -20213446.994 8 -11420834.313 9
  23597600.591     9171558.250 4  10551851.298 2
  21175250.579    14141027.709 7   4948763.351 5
  21727724.429    -7225820.723 7  -9706687.725 5
  23195593.655    -6236646.147 5  -4894322.186 2
 94  2 15  1 28 59.9970000  0  7  2 13  7 19 27 26 15
  20359512.063    -5451784.001 9  -2481647.362 9
  21913084.997   -10923444.368 7  -9661843.984 2
  19673236.762   -20225801.282 8 -11430461.020 9
  23614660.910     9261145.486 4  10621659.532 2
  21189458.523    14215707.933 7   5006955.708 5
  21727082.544    -7229206.293 7  -9709325.854 5
  23199063.153    -6218464.693 5  -4880154.763 2
 94  2 15  1 29 29.9970000  0  7  2 13  7 19 27 26 15
  20360963.268    -5444155.612 9  -2475703.141 9
  21892107.619   -11033672.492 6  -9747735.943 2
  19670966.973   -20237714.460 8 -11439743.994 9
  23631731.303     9350850.268 4  10691559.250 2
  21203731.102    14290711.287 7   5065399.867 5
  21726534.553    -7232064.942 7  -9711553.363 5
  23202616.743    -6199758.395 5  -4865578.448 2
 94  2 15  1 29 59.9970000  0  7  2 13  7 19 27 26 15
  20362444.093    -5436371.429 9  -2469637.532 9
  21871190.320   -11143595.582 6  -9833390.194 2
  19668785.173   -20249171.559 8 -11448671.591 9
  23648812.218     9440660.532 4  10761541.258 2
  21218064.150    14366033.309 7   5124092.322 5
  21726099.524    -7234392.398 7  -9713366.950 5
  23206284.194    -6180527.194 5  -4850593.103 2
 94  2 15  1 30 29.9970000  0  8  4  2 13  7 19 27 26 15
  23881009.301     1783517.30815    -75797.919
  20363958.435    -5428431.839 9  -2463450.825 9
  21850331.660   -11253210.802 6  -9918804.526 2
  19666690.913   -20260166.905 8 -11457239.386 9
  23665931.507     9530583.413 4  10831611.020 2
  21232459.614    14441667.912 7   5183028.388 5
  21725746.938    -7236196.599 7  -9714772.811 5
  23210035.317    -6160771.426 5  -4835198.926 2
 94  2 15  1 30 59.9970000  0  8  4  2 13  7 19 27 26 15
  23860423.513     1675327.171 5   -160101.867 1
  20365496.070    -5420344.889 9  -2457149.300 9
  21829531.250   -11362517.641 6 -10003978.597 2
  19664688.240   -20270710.143 8 -11465454.868 9
  23683065.275     9620645.008 3  10901788.902 1
  21246908.741    14517612.525 6   5242205.974 5
  21725502.158    -7237493.616 7  -9715783.461 5
  23213901.830    -6140493.823 5  -4819398.196 2
 94  2 15  1 31 29.9970000  0  8  4  2 13  7 19 27 26 15
  23839811.312     1567027.356 5   -244491.114 1
  20367062.396    -5412112.311 9  -2450734.286 9
  21808789.779   -11471511.774 6 -10088908.982 2
  19662769.448   -20280792.321 8 -11473311.105 9
  23700232.620     9710848.022 4  10972076.846 1
  21261420.255    14593867.271 7   5301625.226 5
  21725352.352    -7238294.291 7  -9716407.337 5
  23217855.193    -6119693.495 5  -4803190.124 2
 94  2 15  1 31 59.9970000  0  8  4  2 13  7 19 27 26 15
  23819185.351     1458617.992 6   -328965.782 1
  20368657.022    -5403735.787 9  -2444207.120 9
  21788109.166   -11580195.132 6 -10173597.201 2
  19660938.166   -20290413.573 8 -11480808.168 9
  23717430.455     9801201.906 4  11042482.502 1
  21275987.141    14670422.847 7   5361278.913 5
  21725293.442    -7238608.791 7  -9716652.379 5
  23221917.531    -6098375.167 5  -4786578.434 2
 94  2 15  1 32 29.9970000  0  8  4  2 13  7 19 27 26 15
  23798533.308     1350114.629 6   -413513.668 1
  20370271.435    -5395236.195 9  -2437584.057 9
  21767488.931   -11688563.141 6 -10258039.724 2
  19659193.613   -20299586.183 8 -11487955.638 9
  23734660.936     9891698.980 4  11112999.717 1
  21290614.794    14747289.179 7   5421174.779 5
  21725323.931    -7238444.543 7  -9716524.401 5
  23226071.605    -6076538.121 5  -4769562.513 2
 94  2 15  1 32 59.9970000  0  9  4  2  9 13  7 19 27 26 15
  23777875.479     1241520.310 6   -498132.443 2
  20371910.880    -5386619.419 9  -2430869.673 9
  24038407.867   -15106002.74614  -3962009.924 2
  21746926.016   -11796616.100 6 -10342236.720 3
  19657533.842   -20308319.604 8 -11494760.867 9
  23751885.242     9982307.483 4  11183603.982 1
  21305304.864    14824466.475 7   5481312.939 4
  21725438.062    -7237806.227 6  -9716026.987 5
  23230326.859    -6054185.935 5  -4752145.193 2
 94  2 15  1 33 29.9970000  0  9  4  2  9 13  7 19 27 26 15
  23757193.967     1132850.913 6   -582809.775 2
  20373576.227    -5377877.987 9  -2424058.174 9
  24017877.689   -15213822.102 4  -4046024.857 2
  21726426.238   -11904343.812 6 -10426180.302 3
  19655954.236   -20316602.390 8 -11501214.963 9
  23769150.470    10073006.325 4  11254278.560 1
  21320054.054    14901963.017 7   5541699.844 4
  21725658.380    -7236687.183 7  -9715154.988 5
  23234670.492    -6031311.724 5  -4734321.103 2
 94  2 15  1 33 59.9970000  0  9  4  2  9 13  7 19 27 26 15
  23736497.405     1024095.907 6   -667553.806 2
  20375262.589    -5369017.579 9  -2417153.950 9
  23997347.842   -15321660.356 4  -4130054.479 2
  21705986.958   -12011750.610 7 -10509873.808 3
  19654464.028   -20324449.232 8 -11507329.356 9
  23786434.074    10163788.998 3  11325018.404 1
  21334856.936    14979775.434 7   5602332.895 4
  21725963.448    -7235092.382 6  -9713912.263 5
  23239126.368    -6007923.109 5  -4716096.191 2
 94  2 15  1 34 29.9970000  0  9  4  2  9 13  7 19 27 26 15
  23715785.373      915250.318 6   -752368.406 2
  20376972.545    -5360039.443 9  -2410157.998 9
  23976835.142   -15429490.856 4  -4214078.043 2
  21685608.656   -12118833.030 6 -10593314.578 3
  19653054.044   -20331856.796 8 -11513101.457 9
  23803711.144    10254650.957 3  11395819.936 1
  21349722.565    15057906.821 6   5663214.514 4
  21726354.048    -7233020.760 6  -9712298.002 5
  23243669.273    -5984019.534 5  -4697470.027 2
 94  2 15  1 34 59.9970000  0  9  4  2  9 13  7 19 27 26 15
  23695056.134      806308.584 6   -837257.983 2
  20378704.237    -5350916.150 9  -2403048.935 9
  23956314.978   -15537312.514 4  -4298094.798 2
  21665291.601   -12225587.631 6 -10676499.871 3
  19651728.721   -20338814.353 8 -11518522.899 9
  23821027.516    10345612.700 3  11466699.332 1
  21364653.188    15136348.799 6   5724338.108 4
  21726845.378    -7230465.601 7  -9710306.943 5
  23248318.994    -5959601.464 5  -4678442.887 2
 94  2 15  1 35 29.9970000  0  9  4  2  9 13  7 19 27 26 15
  23674307.108      697259.902 5   -922230.826 2
  20380468.755    -5341654.683 9  -2395832.201 9
  23935808.994   -15645123.644 5  -4382103.295 2
  21645043.438   -12332013.066 7 -10759428.693 3
  19650495.165   -20345307.469 8 -11523582.433 9
  23838366.942    10436697.764 3  11537674.700 1
  21379640.323    15215100.402 6   5785702.969 4
  21727426.166    -7227423.469 7  -9707936.429 5
  23253068.696    -5934670.837 5  -4659016.388 2
 94  2 15  1 35 59.9970000  0  9  4  2  9 13  7 19 27 26 15
  23653530.022      588116.278 6  -1007277.717 2
  20382255.188    -5332254.961 9  -2388507.726 9
  23915284.903   -15752924.373 5  -4466103.755 2
  21624852.326   -12438103.007 7 -10842096.102 3
  19649347.590   -20351337.624 8 -11528281.215 9
  23855714.193    10527930.598 3  11608765.568 1
  21394685.917    15294169.442 6   5847315.199 4
  21728097.371    -7223882.766 7  -9705177.426 5
  23257912.202    -5909224.904 5  -4639188.400 2
 94  2 15  1 36 29.9970000  0  9  4  2  9 13  7 19 27 26 15
  23632751.227      478890.230 6  -1092388.740 2
  20384073.580    -5322718.854 9  -2381076.987 9
  23894772.863   -15860743.069 5  -4550118.245 2
  21604729.207   -12543862.978 7 -10924506.378 3
  19648285.485   -20356914.795 8 -11532627.026 9
  23873106.862    10619301.431 3  11679963.567 1
  21409791.050    15373544.693 6   5909166.037 4
  21728859.594    -7219845.340 6  -9702031.363 5
  23262845.947    -5883272.354 5  -4618965.652 2
 94  2 15  1 36 59.9970000  0  9  4  2  9 13  7 19 27 26 15
  23611945.330      369603.090 6  -1177547.347 2
  20385912.746    -5313046.069 9  -2373539.736 9
  23874240.497   -15968589.708 5  -4634154.532 2
  21584668.925   -12649284.698 7 -11006653.077 3
  19647304.774   -20362046.732 8 -11536625.910 9
  23890523.994    10710811.812 3  11751270.424 1
  21424955.452    15453231.305 6   5971259.491 4
  21729728.422    -7215301.611 6  -9698490.772 5
  23267889.475    -5856808.286 5  -4598344.236 2
 94  2 15  1 37 29.9970000  0  9  4  2  9 13  7 19 27 26 15
  23591142.162      260256.871 6  -1262752.026 1
  20387776.796    -5303246.808 9  -2365903.932 9
  23853717.575   -16076460.556 5  -4718209.574 2
  21564668.241   -12754369.093 7 -11088536.948 3
  19646411.362   -20366742.354 8 -11540284.783 9
  23907954.288    10802448.978 3  11822675.887 1
  21440177.294    15533228.565 6   6033595.009 4
  21730687.398    -7210263.776 7  -9694565.180 5
  23273019.194    -5829836.927 5  -4577327.571 2
 94  2 15  1 37 59.9970000  0  9  4  2  9 13  7 19 27 26 15
  23570331.199      150873.918 5  -1347985.291 2
  20389670.345    -5293297.772 9  -2358151.407 9
  23833195.522   -16184357.222 5  -4802284.749 2
  21544738.908   -12859112.437 7 -11170155.057 3
  19645602.972   -20371010.121 8 -11543610.289 9
  23925426.462    10894201.612 3  11894171.423 1
  21455458.555    15613540.072 6   6096175.401 4
  21731734.933    -7204724.548 6  -9690248.889 5
  23278242.658    -5802358.101 5  -4555915.481 2
 94  2 15  1 38 29.9970000  0  9  4  2  9 13  7 19 27 26 15
  23549502.009       41453.743 4  -1433247.546 2
  20391593.903    -5283198.561 9  -2350281.868 9
  23812652.424   -16292277.955 5  -4886378.662 2
  21524872.261   -12963512.029 7 -11251505.292 3
  19644873.397   -20374838.617 8 -11546593.505 9
  23942903.343    10986059.458 2  11965749.064 1
  21470798.036    15694157.882 7   6158994.477 4
  21732887.335    -7198695.565 6  -9685550.978 5
  23283569.430    -5774372.805 5  -4534108.774 2
 94  2 15  1 38 59.9970000  0  9  4  2  9 13  7 19 27 26 15
  23528673.598      -68024.591 4  -1518555.169 2
  20393540.126    -5272960.499 9  -2342304.143 9
  23792118.739   -16400203.255 5  -4970476.152 2
  21505070.010   -13067565.754 7 -11332586.058 3
  19644229.683   -20378221.538 8 -11549229.523 9
  23960404.147    11078029.381 3  12037413.952 1
  21486199.514    15775080.784 7   6222051.286 4
  21734126.647    -7192174.359 6  -9680469.496 5
  23288987.909    -5745882.025 5  -4511908.139 2
 94  2 15  1 39 29.9970000  0  9  4  2  9 13  7 19 27 26 15
  23507835.984     -177559.630 4  -1603906.934 2
  20395517.977    -5262573.806 9  -2334210.575 9
  23771575.071   -16508121.481 5  -5054568.012 2
  21485338.390   -13171268.268 7 -11413393.135 3
  19643674.077   -20381149.197 8 -11551510.782 9
  23977939.218    11170115.067 3  12109169.128 1
  21501654.384    15856304.231 7   6285342.285 4
  21735459.375    -7185159.655 6  -9675003.486 5
  23294515.872    -5716884.077 5  -4489312.316 2
 94  2 15  1 39 59.9970000  0  9  4  2  9 13  7 19 27 26 15
  23486971.088     -287149.525 4  -1689301.421 2
  20397517.682    -5252060.130 9  -2326018.068 9
  23751050.830   -16616036.188 5  -5138657.233 2
  21465667.837   -13274622.241 7 -11493928.647 3
  19643198.786   -20383634.244 8 -11553447.160 9
  23995466.794    11262307.401 3  12181007.321 1
  21517165.376    15937808.278 7   6348851.936 4
  21736888.395    -7177658.741 6  -9669158.629 5
  23300115.276    -5687385.129 5  -4466326.124 2
 94  2 15  1 40 29.9970000  0  9  4  2  9 13  7 19 27 26 15
  23466102.205     -396811.160 4  -1774751.812 2
  20399539.153    -5241438.488 9  -2317741.448 9
  23730513.457   -16723936.643 5  -5222735.305 2
  21446067.616   -13377625.977 7 -11574191.203 3
  19642809.686   -20385682.712 8 -11555043.341 9
  24013040.928    11354605.758 3  12252928.015 1
  21532724.995    16019573.820 7   6412565.345 4
  21738403.846    -7169688.238 6  -9662947.845 5
  23305831.928    -5657386.892 5  -4442950.879 2
 94  2 15  1 40 59.9970000  0  8  4  2  9 13  7 27 26 15
  23445228.406     -506545.094 4  -1860258.608 2
  20401581.189    -5230698.316 9  -2309372.446 9
  23709990.235   -16831816.396 5  -5306797.262 2
  21426534.669   -13480271.352 7 -11654174.524 3
  19642499.640   -20387305.223 8 -11556307.611 9
  21548335.488    16101602.496 6   6476483.804 4
  21740013.312    -7161244.911 6  -9656368.608 5
  23311641.187    -5626884.594 5  -4419182.832 2
 94  2 15  1 41 29.9970000  0  8  4  2  9 13  7 27 26 15
  23424329.844     -616337.056 5  -1945810.583 2
  20403649.967    -5219830.512 9  -2300904.010 9
  23689445.128   -16939691.674 5  -5390855.721 2
  21407070.763   -13582556.171 7 -11733876.932 3
  19642272.368   -20388504.824 8 -11557242.350 9
  21563995.716    16183900.304 6   6540611.935 4
  21741702.433    -7152356.145 6  -9649442.298 5
  23317537.864    -5595880.043 5  -4395023.389 2
 94  2 15  1 41 59.9970000  0  8  4  2  9 13  7 27 26 15
  23403421.778     -726195.641 5  -2031414.434 2
  20405742.878    -5208835.342 9  -2292336.297 9
  23668926.103   -17047568.670 5  -5474915.551 2
  21387673.592   -13684482.395 7 -11813299.892 3
  19642126.039   -20389284.999 8 -11557850.257 9
  21579707.000    16266469.477 7   6604951.550 4
  21743481.611    -7143029.295 7  -9642174.629 5
  23323534.973    -5564378.470 5  -4370476.646 2
 94  2 15  1 42 29.9970000  0  8  4  2  9 13  7 27 26 15
  23382505.468     -836115.513 5  -2117066.036 2
  20407859.563    -5197686.492 8  -2283648.859 9
  23648379.677   -17155435.783 5  -5558967.685 2
  21368348.970   -13786043.422 7 -11892438.271 3
  19642054.389   -20389645.927 8 -11558131.483 9
  21595475.244    16349329.914 6   6669518.128 4
  21745339.215    -7133250.517 6  -9634554.778 5
  23329626.905    -5532376.768 5  -4345540.310 2
 94  2 15  1 42 59.9970000  0  8  4  2  9 13  7 27 26 15
  23361584.302     -946079.055 5  -2202751.637 3
  20410017.859    -5186372.326 9  -2274832.592 9
  23627876.691   -17263288.810 5  -5643008.871 2
  21349089.403   -13887235.502 7 -11971289.181 3
  19642066.380   -20389588.385 8 -11558086.629 9
  21611302.307    16432497.910 6   6734324.384 4
  21747285.498    -7123012.077 6  -9626576.771 5
  23335805.778    -5499875.003 5  -4320214.233 2
 94  2 15  1 43 29.9970000  0  8  4  2  9 13  7 27 26 15
  23340647.936    -1056081.022 5  -2288467.238 3
  20412205.474    -5174897.985 8  -2265891.524 9
  23607361.084   -17371130.577 5  -5727041.301 2
  21329905.144   -13988062.746 7 -12049855.802 3
  19642157.247   -20389120.782 8 -11557722.237 9
  21627180.874    16515959.938 6   6799359.745 4
  21749323.756    -7112319.779 6  -9618245.094 5
  23342086.999    -5466880.579 5  -4294504.274 2
 94  2 15  1 43 59.9970000  0  8  4  2  9 13  7 27 26 15
  23319711.210    -1166119.638 5  -2374211.413 3
  20414412.876    -5163271.264 8  -2256831.722 9
  23586831.266   -17478952.512 5  -5811058.304 2
  21310790.467   -14088523.234 7 -12128136.643 3
  19642323.692   -20388241.651 8 -11557037.186 9
  21643113.314    16599691.443 6   6864605.043 3
  21751447.666    -7101152.322 6  -9609543.171 5
  23348449.465    -5433395.099 5  -4268411.695 2
 94  2 15  1 44 29.9970000  0  8  4  2  9 13  7 27 26 15
  23298758.355    -1276191.077 6  -2459981.121 3
  20416655.084    -5151498.795 9  -2247658.340 9
  23566320.516   -17586748.865 5  -5895055.370 2
  21291743.513   -14188611.466 7 -12206127.387 3
  19642568.952   -20386946.731 8 -11556028.159 9
  21659101.516    16683694.748 6   6930062.156 3
  21753667.090    -7089512.822 6  -9600473.385 5
  23354919.855    -5399416.844 5  -4241935.134 2
 94  2 15  1 44 59.9970000  0  8  4  2  9 13  7 27 26 15
  23277812.845    -1386302.162 6  -2545781.704 3
  20418915.939    -5139598.452 8  -2238385.308 9
  23545803.499   -17694537.153 5  -5979046.125 2
  21272766.350   -14288326.686 7 -12283827.470 3
  19642895.426   -20385221.720 8 -11554683.968 9
  21675136.335    16767959.749 6   6995723.198 3
  21755962.660    -7077413.065 6  -9591045.027 5
  23361478.385    -5364948.492 5  -4215076.679 2
 94  2 15  1 45 29.9970000  0  8  4  2  9 13  7 27 26 15
  23256849.798    -1496451.123 5  -2631611.819 3
  20421204.674    -5127583.213 8  -2229022.784 9
  23525296.736   -17802320.984 5  -6063033.471 2
  21253862.907   -14387665.393 7 -12361234.179 4
  19643308.091   -20383052.634 8 -11552993.763 9
  21691226.197    16852485.355 6   7061587.298 3
  21758357.283    -7064857.349 6  -9581261.320 5
  23368127.602    -5329990.040 5  -4187836.262 2
 94  2 15  1 45 59.9970000  0  8  4  2  9 13  7 27 26 15
  23235880.605    -1606635.324 5  -2717469.350 2
  20423509.389    -5115460.208 8  -2219576.271 9
  23504803.913   -17910090.611 5  -6147009.786 2
  21235031.444   -14486624.630 7 -12438345.199 4
  19643810.093   -20380435.036 8 -11550954.055 9
  21707359.768    16937289.862 5   7127668.774 2
  21760832.039    -7051835.241 6  -9571114.204 5
  23374879.408    -5294542.196 5  -4160214.552 2
 94  2 15  1 46 29.9970000  0  8  4  2  9 13  7 27 26 15
  23214908.773    -1716845.856 6  -2803347.456 2
  20425838.326    -5103221.664 8  -2210039.720 9
  23484284.888   -18017841.016 5  -6230971.109 2
  21216272.290   -14585199.458 7 -12515156.665 4
  19644393.339   -20377371.192 8 -11548566.626 9
  21723556.745    17022400.970 5   7193989.106 2
  21763398.743    -7038349.997 6  -9560606.197 5
  23381719.832    -5258603.553 5  -4132210.413 2
 94  2 15  1 46 59.9970000  0  8  4  2  9 13  7 27 26 15
  23193936.612    -1827068.423 6  -2889234.837 2
  20428187.950    -5090878.477 8  -2200421.656 9
  23463781.482   -18125582.262 5  -6314925.281 2
  21197588.985   -14683391.405 7 -12591669.772 4
  19645054.202   -20373876.040 8 -11545843.096 9
  21739806.215    17107806.135 5   7260538.601 2
  21766054.274    -7024397.134 7  -9549733.815 5
  23388653.642    -5222179.510 5  -4103828.069 2
 94  2 15  1 47 29.9970000  0  8  4  2  9 13  7 27 26 15
  23172963.401    -1937285.697 6  -2975118.169 2
  20430562.426    -5078407.931 8  -2190704.335 9
  23443291.867   -18233288.854 5  -6398852.505 2
  21178978.798   -14781194.556 7 -12667879.946 4
  19645801.974   -20369958.701 8 -11542790.604 9
  21756118.553    17193496.536 5   7327310.381 2
  21768799.624    -7009968.314 6  -9538490.551 5
  23395677.240    -5185267.696 5  -4075065.552 2
 94  2 15  1 47 59.9970000  0  8  4  2  9 13  7 27 26 15
  23151987.553    -2047497.399 6  -3060997.161 2
  20432963.134    -5065792.060 8  -2180873.779 9
  23422812.504   -18340953.755 6  -6482747.202 2
  21160439.692   -14878605.772 7 -12743784.728 4
  19646622.326   -20365633.443 8 -11539420.256 9
  21772472.171    17279459.422 5   7394294.383 2
  21771638.059    -6995053.564 6  -9526868.654 5
  23402786.278    -5147868.544 5  -4045923.374 2
 94  2 15  1 48 29.9970000  0  8  4  2  9 13  7 27 26 15
  23131013.952    -2157703.194 6  -3146871.543 3
  20435394.990    -5053030.533 8  -2170929.724 9
  23402313.745   -18448576.973 5  -6566609.398 2
  21141980.032   -14975623.026 7 -12819382.503 4
  19647522.903   -20360910.383 8 -11535739.928 9
  21788877.084    17365674.286 5   7461474.848 2
  21774565.352    -6979661.770 6  -9514875.005 5
  23409995.507    -5109983.733 5  -4016402.748 2
 94  2 15  1 48 59.9970000  0  8  4  2  9 13  7 27 26 15
  23110044.909    -2267908.794 5  -3232745.749 3
  20437845.434    -5040128.707 8  -2160876.339 9
  23381853.120   -18556141.650 5  -6650426.083 2
  21123591.932   -15072244.123 7 -12894671.578 4
  19648501.635   -20355792.027 8 -11531751.564 9
  21805326.427    17452121.975 5   7528836.654 2
  21777584.022    -6963798.715 6  -9502514.149 5
  23417300.100    -5071614.843 5  -3986504.922 2
 94  2 15  1 49 29.9970000  0  8  4  2  9 13  7 27 26 15
  23089076.195    -2378118.549 5  -3318623.243 3
  20440336.679    -5027062.664 8  -2150695.016 9
  23361411.981   -18663619.837 6  -6734175.244 2
  21105281.807   -15168462.401 7 -12969646.802 4
  19649547.821   -20350267.766 8 -11527446.926 9
  21821826.914    17538811.723 4   7596387.214 1
  21780691.881    -6947468.177 7  -9489789.039 5
  23424697.989    -5032758.768 5  -3956227.415 2
 94  2 15  1 49 59.9970000  0  8  4  2  9 13  7 27 26 15
  23068100.556    -2488341.097 5  -3404510.698 3
  20442848.970    -5013856.160 8  -2140404.224 9
  23340961.129   -18771030.738 5  -6817871.962 2
  21087047.051   -15264280.290 7 -13044310.035 4
  19650676.720   -20344347.003 8 -11522833.319 9
  21838369.761    17625759.955 4   7664139.069 1
  21783883.801    -6930693.011 6  -9476717.458 5
  23432184.466    -4993421.542 5  -3925575.028 2
 94  2 15  1 50 29.9970000  0  8  4  2  9 13  7 27 26 15
  23047128.395    -2598563.525 6  -3490398.127 2
  20445382.876    -5000513.372 8  -2130007.249 9
  23320543.044   -18878381.507 6  -6901521.906 2
  21068888.412   -15359691.156 7 -13118656.120 4
  19651880.087   -20338020.638 8 -11517903.657 9
  21854965.762    17712976.868 4   7732100.339 1
  21787156.126    -6913488.496 6  -9463311.316 5
  23439755.845    -4953599.948 5  -3894545.234 2
 94  2 15  1 50 59.9970000  0  8  4  2  9 13  7 27 26 15
  23026147.060    -2708783.409 5  -3576283.564 2
  20447951.917    -4987024.454 8  -2119496.408 9
  23300123.910   -18985689.427 6  -6985138.350 2
  21050814.674   -15454694.987 7 -13192684.990 4
  19653162.868   -20331276.615 8 -11512648.543 9
  21871619.173    17800466.418 4   7800274.073 1
  21790514.671    -6895861.677 6  -9449576.109 5
  23447430.112    -4913297.849 5  -3863140.973 2
 94  2 15  1 51 29.9970000  0  8  4  2  9 13  7 27 26 15
  23005173.370    -2818992.960 5  -3662160.915 2
  20450546.561    -4973376.088 8  -2108861.320 8
  23279692.964   -19092971.025 5  -7068734.291 2
  21032811.957   -15549289.636 7 -13266395.084 4
  19654523.836   -20324112.856 8 -11507066.400 9
  21888325.857    17888229.684 3   7868661.048 1
  21793951.521    -6877815.480 6  -9435514.114 5
  23455192.758    -4872516.650 5  -3831363.426 2
 94  2 15  1 51 59.9970000  0  8  4  2  9 13  7 27 26 15
  22984202.648    -2929186.608 5  -3748025.883 2
  20453175.861    -4959584.182 8  -2098114.359 8
  23259278.477   -19200251.504 5  -7152329.327 2
  21014889.795   -15643474.885 7 -13339786.109 4
  19655968.656   -20316532.922 8 -11501159.889 9
  21905062.701    17976259.198 3   7937255.446
  21797463.980    -6859354.599 6  -9421128.962 4
  23463028.373    -4831259.938 5  -3799215.310 2
 94  2 15  1 52 29.9970000  0  7  4  2  9 13  7 26 15
  22963247.125    -3039364.887 5  -3833878.912 2
  20455829.174    -4945644.578 8  -2087252.301 8
  23238868.426   -19307519.095 5  -7235914.342 2
  20997045.518   -15737249.272 7 -13412856.991 4
  19657491.812   -20308533.582 8 -11494926.612 9
  21801053.035    -6840457.069 6  -9406403.588 4
  23470975.722    -4789529.799 5  -3766698.354 2
 94  2 15  1 52 59.9970000  0  7  4  2  9 13  7 26 15
  22942272.565    -3149525.549 5  -3919718.291 2
  20458510.308    -4931554.140 8  -2076272.754 8
  23218460.564   -19414746.216 5  -7319467.840 2
  20979279.787   -15830608.275 7 -13485604.216 4
  19659096.541   -20300109.753 8 -11488362.569 9
  21804740.153    -6821105.895 6  -9391324.738 4
  23479012.798    -4747325.531 5  -3733811.947 2
 94  2 15  1 53 29.9970000  0  7  4  2  9 13  7 26 15
  22921318.272    -3259666.116 5  -4005541.935 2
  20461216.714    -4917323.951 8  -2065184.289 8
  23198057.499   -19521911.784 5  -7402973.360 2
  20961591.072   -15923549.880 7 -13558026.202 4
  19660773.969   -20291279.815 8 -11481482.073 9
  21808509.593    -6801296.768 6  -9375889.017 4
  23487132.137    -4704648.613 5  -3700557.169 2
 94  2 15  1 53 59.9970000  0  7  4  2  9 13  7 26 15
  22900359.121    -3369783.084 6  -4091347.235 2
  20463950.192    -4902964.684 8  -2053995.210 8
  23177700.392   -19629005.944 6  -7486423.220 2
  20943985.880   -16016071.820 7 -13630121.125 4
  19662528.835   -20282055.990 8 -11474294.641 9
  21812366.393    -6781013.804 6  -9360084.061 4
  23495338.685    -4661500.621 5  -3666935.330 2
 94  2 15  1 54 29.9970000  0  7  4  2  9 13  7 26 15
  22879416.999    -3479865.588 6  -4177125.696 2
  20466710.981    -4888456.169 8  -2042689.853 8
  23157328.355   -19736005.549 5  -7569799.399 2
  20926462.651   -16108169.895 7 -13701885.795 4
  19664358.738   -20272440.870 8 -11466802.309 9
  21816321.765    -6760253.908 6  -9343907.520 4
  23503638.799    -4617880.837 4  -3632945.945 2
 94  2 15  1 54 59.9970000  0  7  4  2  9 13  7 26 15
  22858476.406    -3589900.841 6  -4262867.328 3
  20469499.320    -4873788.774 8  -2031260.701 8
  23136995.142   -19842907.714 5  -7653099.692 2
  20909014.880   -16199840.878 7 -13773317.666 4
  19666264.339   -20262431.535 8 -11459002.817 9
  21820353.314    -6739034.273 6  -9327372.709 4
  23512030.920    -4573789.992 5  -3598589.405 2
 94  2 15  1 55 29.9970000  0  7  4  2  9 13  7 26 15
  22837548.134    -3699891.491 6  -4348574.202 3
  20472323.635    -4858954.150 8  -2019701.235 8
  23116649.157   -19949723.410 5  -7736332.564 2
  20891654.349   -16291082.117 7 -13844414.654 4
  19668240.750   -20252044.341 8 -11450908.871 9
  21824476.569    -6717368.013 6  -9310489.862 4
  23520514.537    -4529229.062 5  -3563866.566 2
 94  2 15  1 55 59.9970000  0  7  4  2  9 13  7 26 15
  22816616.835    -3809841.261 6  -4434249.248 3
  20475179.398    -4843947.138 9  -2008007.434 8
  23096354.167   -20056459.119 5  -7819503.150 2
  20874372.483   -16381893.728 7 -13915176.870 4
  19670290.341   -20241274.124 8 -11442516.487 9
  21828683.647    -6695267.305 6  -9293268.520 4
  23529085.183    -4484201.819 5  -3528780.408 2
 94  2 15  1 56 29.9970000  0  7  4  2  9 13  7 26 15
  22795707.480    -3919753.249 5  -4519894.827 3
  20478064.961    -4828768.401 8  -1996179.831 8
  23076057.318   -20163104.644 6  -7902603.510 2
  20857174.828   -16472270.986 7 -13985600.669 4
  19672416.170   -20230108.533 8 -11433816.023 9
  21832971.428    -6672747.127 6  -9275720.341 4
  23537734.466    -4438707.423 5  -3493330.262 2
 94  2 15  1 56 59.9970000  0  7  4  2  9 13  7 26 15
  22774797.256    -4029643.292 5  -4605523.305 3
  20480985.059    -4813433.802 8  -1984230.757 8
  23055785.592   -20269663.053 5  -7985635.948 2
  20840061.805   -16562209.705 7 -14055682.705 5
  19674614.698   -20218543.398 8 -11424804.191 9
  21837332.449    -6649807.743 6  -9257845.456 4
  23546494.671    -4392745.158 5  -3457515.501 2
 94  2 15  1 57 29.9970000  0  7  4  2  9 13  7 26 15
  22753884.573    -4139520.064 5  -4691141.505 3
  20483930.730    -4797953.579 9  -1972168.222 8
  23035499.565   -20376144.839 5  -8068608.670 2
  20823027.058   -16651712.788 7 -14125425.282 5
  19676889.913   -20206592.206 8 -11415491.557 9
  21841783.138    -6626454.558 6  -9239648.124 4
  23555320.261    -4346321.599 4  -3421341.282 2
 94  2 15  1 57 59.9970000  0  7  4  2  9 13  7 26 15
  22732984.392    -4249369.572 6  -4776738.419 2
  20486897.116    -4782338.022 8  -1960000.231 8
  23015272.688   -20482552.802 6  -8151523.890 2
  20806079.761   -16740776.795 7 -14194825.746 5
  19679242.204   -20194235.567 8 -11405862.995 9
  21846301.520    -6602689.103 6  -9221129.562 4
  23564242.504    -4299436.863 5  -3384807.694 2
 94  2 15  1 58 29.9970000  0  7  4  2  9 13  7 26 15
  22712086.250    -4359179.538 6  -4862304.547 3
  20489895.940    -4766590.764 8  -1947729.620 8
  22995037.387   -20588899.683 6  -8234391.532 2
  20789216.915   -16829400.418 7 -14263883.041 5
  19681668.784   -20181476.010 8 -11395920.474 9
  21850902.795    -6578518.526 6  -9202295.333 4
  23573255.705    -4252093.272 5  -3347916.690 2
 94  2 15  1 58 59.9970000  0  7  4  2  9 13  7 26 15
  22691200.069    -4468931.055 6  -4947825.068 3
  20492924.743    -4750703.294 9  -1935349.749 8
  22974802.625   -20695199.857 5  -8317222.820 2
  20772436.332   -16917580.271 7 -14332594.549 5
  19684172.891   -20168316.927 8 -11385666.622 9
  21855576.319    -6553938.943 6  -9183142.406 4
  23582340.316    -4204291.000 5  -3310668.109 2
 94  2 15  1 59 29.9970000  0  7  4  2  9 13  7 26 15
  22670332.505    -4578602.465 6  -5033283.233 3
  20495974.742    -4734671.001 8  -1922857.038 8
  22954601.770   -20801446.348 6  -8400012.238 2
  20755740.290   -17005312.663 7 -14400957.390 5
  19686752.155   -20154758.585 8 -11375101.664 9
  21860339.962    -6528945.867 6  -9163667.252 4
  23591529.164    -4156030.658 4  -3273062.587 2
 94  2 15  1 59 59.9970000  0  7  4  2  9 13  7 26 15
  22649475.794    -4688189.372 6  -5118675.589 3
  20499051.032    -4718500.338 9  -1910256.483 8
  22934376.991   -20907619.613 6  -8482744.568 2
  20739129.509   -17092598.442 7 -14468972.208 5
  19689410.025   -20140804.212 8 -11364228.117 9
  21865165.751    -6503530.340 6  -9143862.937 4
  23600802.614    -4107316.408 5  -3235103.429 2
 94  2 15  2  0 29.9970000  0  7  4  2  9 13  7 26 15
  22628639.619    -4797694.645 5  -5204004.289 3
  20502157.362    -4702181.130 8  -1897540.188 8
  22914198.800   -21013699.604 6  -8565404.295 2
  20722606.598   -17179434.098 7 -14536636.310 5
  19692135.408   -20126462.196 8 -11353052.508 9
  21870084.895    -6477682.139 6  -9123721.473 4
  23610156.229    -4058148.692 5  -3196790.942 2
 94  2 15  2  0 59.9970000  0  8  4  2  9 12 13  7 26 15
  22607816.994    -4907120.882 5  -5289271.421 3
  20505290.763    -4685712.657 9  -1884707.594 8
  22894035.509   -21119660.295 6  -8647970.992 3
  23983765.205    -3676319.70415  -2866373.011 1
  20706168.138   -17265819.082 7 -14603949.220 5
  19694940.446   -20111725.828 8 -11341569.612 9
  21875095.267    -6451390.048 6  -9103234.115 4
  23619598.582    -4008530.630 5  -3158127.489 2
 94  2 15  2  1 29.9970000  0  8  4  2  9 12 13  7 26 15
  22587011.008    -5016458.001 5  -5374469.051 3
  20508455.252    -4669089.282 8  -1871754.286 8
  22873905.585   -21225477.280 6  -8730425.691 3
  23964664.378    -3776691.495 4  -2944584.730 1
  20689816.678   -17351743.705 7 -14670903.422 5
  19697819.353   -20096589.291 8 -11329774.906 9
  21880183.944    -6424651.741 6  -9082399.070 4
  23629118.402    -3958455.790 5  -3119108.155 2
 94  2 15  2  1 59.9970000  0  9  4  2  9 12 13  7 27 26 15
  22566221.420    -5125714.653 6  -5459604.004 3
  20511643.904    -4652313.380 8  -1858682.133 8
  22853780.577   -21331169.657 6  -8812783.346 3
  23945539.508    -3877132.221 4  -3022850.107 1
  20673551.048   -17437212.976 8 -14737502.784 5
  19700775.787   -20081062.161 8 -11317675.823 9
  22249753.786   -10246547.38615     21623.059
  21885348.858    -6397478.354 6  -9061224.967 4
  23638741.830    -3907933.186 5  -3079739.840 2
 94  2 15  2  2 29.9970000  0  9  4  2  9 12 13  7 27 26 15
  22545444.633    -5234882.944 6  -5544670.079 3
  20514865.924    -4635379.416 8  -1845486.811 8
  22833689.746   -21436765.170 6  -8895065.525 3
  23926420.424    -3977637.720 4  -3101166.115 1
  20657376.466   -17522222.334 7 -14803743.779 5
  19703806.119   -20065133.795 8 -11305264.100 9
  22267464.685   -10153518.243 5     94118.273
  21890606.558    -6369879.071 6  -9039719.038 4
  23648448.090    -3856962.056 5  -3040022.106 2
 94  2 15  2  2 59.9970000  0  9  4  2  9 12 13  7 27 26 15
  22524687.393    -5343952.278 6  -5629659.009 3
  20518121.790    -4618292.177 8  -1832172.041 8
  22813609.946   -21542276.070 6  -8977281.708 3
  23907291.027    -4078205.441 5  -3179530.556 1
  20641287.504   -17606768.602 7 -14869623.923 5
  19706913.827   -20048815.532 8 -11292548.549 9
  22285202.385   -10060273.927 5    166776.412
  21895939.147    -6341851.135 6  -9017879.079 4
  23658226.271    -3805542.579 5  -2999954.969 2
 94  2 15  2  3 29.9970000  0  9  4  2  9 12 13  7 27 26 15
  22503951.588    -5452926.104 6  -5714573.492 3
  20521401.939    -4601059.411 8  -1818743.905 8
  22793541.000   -21647724.449 6  -9059449.226 3
  23888121.937    -4178833.631 5  -3257942.055 1
  20625287.551   -17690849.562 7 -14935141.515 5
  19710089.019   -20032125.669 8 -11279543.461 9
  22302983.496    -9966813.819 5    239611.267
  21901352.469    -6313404.861 6  -8995713.136 4
  23668093.640    -3753676.567 5  -2959539.875 2
 94  2 15  2  3 59.9970000  0  9  4  2  9 12 13  7 27 26 15
  22483234.970    -5561803.418 6  -5799412.832 2
  20524704.093    -4583680.862 8  -1805202.156 8
  22773498.315   -21753106.580 6  -9141565.111 3
  23868964.060    -4279521.044 5  -3336399.709 1
  20609378.794   -17774463.481 8 -15000295.147 5
  19713336.641   -20015068.503 8 -11266252.149 9
  22320807.507    -9873143.418 5    312601.168 1
  21906846.376    -6284537.032 6  -8973218.731 4
  23678054.184    -3701365.965 5  -2918778.335 2
 94  2 15  2  4 29.9970000  0  9  4  2  9 12 13  7 27 26 15
  22462535.440    -5670570.872 5  -5884166.503 3
  20528040.213    -4566145.932 8  -1791538.553 8
  22753451.643   -21858402.168 6  -9223613.583 3
  23849797.159    -4380267.084 5  -3414903.128 1
  20593554.699   -17857609.378 8 -15065084.124 5
  19716648.838   -19997652.594 8 -11252681.291 9
  22338673.728    -9779257.465 5    385759.088 1
  21912411.243    -6255254.088 6  -8950400.862 4
  23688072.978    -3648613.513 4  -2877672.548 2
 94  2 15  2  4 59.9970000  0  9  4  2  9 12 13  7 27 26 15
  22441857.345    -5779234.561 6  -5968839.362 3
  20531410.151    -4548441.365 8  -1777742.757 8
  22733437.619   -21963582.619 6  -9305572.296 3
  23830616.078    -4481070.183 5  -3493450.872 1
  20577820.841   -17940285.363 7 -15129506.912 5
  19720031.936   -19979891.505 8 -11238841.459 9
  22356580.631    -9685155.672 5    459085.130 2
  21918067.997    -6225567.253 6  -8927268.267 4
  23698206.173    -3595420.709 5  -2836223.620 2
 94  2 15  2  5 29.9970000  0  9  4  2  9 12 13  7 27 26 15
  22421200.956    -5887799.350 6  -6053435.168 3
  20534814.024    -4530554.389 8  -1763804.843 8
  22713441.971   -22068631.007 6  -9387428.097 3
  23811427.622    -4581929.060 5  -3572042.077 1
  20562175.692   -18022489.802 7 -15193562.269 5
  19723474.753   -19961774.345 8 -11224724.186 9
  22374525.009    -9590839.934 5    532577.900 2
  21923791.125    -6195489.829 6  -8903831.304 4
  23708424.000    -3541789.769 5  -2794433.202 2
 94  2 15  2  5 59.9970000  0  9  4  2  9 12 13  7 27 26 15
  22400560.695    -5996256.703 6  -6137947.276 3
  20538260.348    -4512466.682 8  -1749710.512 8
  22693489.734   -22173524.436 6  -9469163.207 3
  23792231.161    -4682839.174 5  -3650673.127 2
  20546628.065   -18104217.952 8 -15257246.492 5
  19726995.185   -19943286.527 8 -11210318.077 9
  22392525.327    -9496301.518 5    606244.202 2
  21929587.492    -6165023.844 6  -8880091.553 4
  23718708.260    -3487719.290 5  -2752300.317 2
 94  2 15  2  6 29.9970000  0  9  4  2  9 12 13  7 27 26 15
  22379939.111    -6104620.281 6  -6222386.258 3
  20541738.450    -4494183.811 8  -1735464.111 8
  22673552.996   -22278274.516 6  -9550786.590 3
  23773000.134    -4783802.355 5  -3729345.576 2
  20531165.100   -18185471.133 8 -15320560.607 5
  19730581.543   -19924422.253 8 -11195618.633 9
  22410546.392    -9401543.663 5    680081.542 2
  21935449.994    -6134189.971 6  -8856065.174 4
  23729080.449    -3433214.510 5  -2709829.057 2
 94  2 15  2  6 59.9970000  0  8  4  2  9 12 13  7 27 26
  22359334.195    -6212905.383 6  -6306764.141 3
  20545246.172    -4475736.946 8  -1721089.913 8
  22653643.569   -22382880.027 6  -9632297.287 3
  23753786.376    -4884816.186 5  -3808057.511 2
  20515792.792   -18266246.512 8 -15383502.430 5
  19734248.724   -19905172.639 8 -11180618.927 9
  22428620.189    -9306577.420 6    754081.126 2
  21941389.182    -6102992.772 6  -8831755.686 4
 94  2 15  2  7 29.9970000  0  8  4  2  9 12 13  7 27 26
  22338745.378    -6321096.088 6  -6391068.438 3
  20548783.543    -4457141.846 8  -1706600.201 8
  22633773.565   -22487345.054 6  -9713698.534 3
  23734554.660    -4985876.466 5  -3886805.613 2
  20500514.229   -18346540.124 7 -15446068.823 5
  19737985.127   -19885527.030 8 -11165310.643 9
  22446736.708    -9211404.932 5    828241.550 2
  21947397.833    -6071421.794 6  -8807154.906 4
 94  2 15  2  7 59.9970000  0  8  4  2  9 12 13  7 27 26
  22318172.631    -6429189.435 6  -6475296.915 3
  20552348.795    -4438409.759 8  -1692003.761 8
  22613909.346   -22591676.995 6  -9794996.127 3
  23715311.551    -5086983.310 5  -3965590.036 2
  20485324.165   -18426351.330 8 -15508259.317 5
  19741795.339   -19865490.484 8 -11149697.727 9
  22464883.145    -9116043.313 5    902549.291 2
  21953479.692    -6039475.682 6  -8782261.825 4
 94  2 15  2  8 29.9970000  0  8  4  2  9 12 13  7 27 26
  22297624.796    -6537174.844 6  -6559441.269 3
  20555939.079    -4419544.740 8  -1677303.724 8
  22594079.754   -22695885.311 6  -9876197.340 3
  23696058.670    -5188132.310 5  -4044407.274 1
  20470226.347   -18505676.015 7 -15570070.713 5
  19745686.046   -19845070.501 8 -11133786.046 9
  22483057.014    -9020512.172 5    976989.119 2
  21959631.014    -6007136.033 6  -8757062.111 4
 94  2 15  2  8 59.9970000  0  8  4  2  9 12 13  7 27 26
  22277096.717    -6645041.833 6  -6643493.373 3
  20559554.816    -4400538.359 8  -1662493.549 8
  22574269.079   -22799970.093 6  -9957302.306 3
  23676808.636    -5289326.713 5  -4123259.964 1
  20455227.611   -18584516.833 8 -15631505.079 5
  19749640.818   -19824284.329 8 -11117589.001 9
  22501271.654    -8924815.398 5   1051558.057 2
  21965859.862    -5974385.431 6  -8731542.164 4
 94  2 15  2  9 29.9970000  0  8  4  2  9 12 13  7 27 26
  22256598.857    -6752781.153 6  -6727445.966 4
  20563205.959    -4381352.072 8  -1647543.180 8
  22554490.931   -22903931.687 6 -10038311.263 3
  23657554.856    -5390561.925 5  -4202144.456 1
  20440314.045   -18662869.313 7 -15692558.911 5
  19753663.343   -19803139.275 8 -11101112.327 9
  22519515.374    -8828934.213 5   1126270.664 2
  21972180.416    -5941212.340 6  -8705692.985 4
 94  2 15  2  9 59.9970000  0  8  4  2  9 12 13  7 27 26
  22236117.816    -6860391.328 6  -6811297.936 4
  20566896.074    -4361979.497 8  -1632447.651 8
  22534736.706   -23007767.592 6 -10119222.348 3
  23638279.430    -5491833.552 5  -4281057.290 1
  20425498.721   -18740728.882 8 -15753228.665 5
  19757756.500   -19781634.428 8 -11084355.280 9
  22537799.596    -8732854.562 5   1201137.930 2
  21978567.554    -5907614.763 6  -8679513.082 4
 94  2 15  2 10 29.9970000  0  8  4  2  9 12 13  7 27 26
  22215666.064    -6967865.940 6  -6895044.260 3
  20570615.030    -4342424.224 8  -1617209.766 8
  22514997.921   -23111480.793 6 -10200037.731 3
  23619000.406    -5593147.518 5  -4360003.130 2
  20410780.351   -18818101.470 8 -15813518.957 5
  19761914.861   -19759781.445 8 -11067326.964 9
  22556121.052    -8636558.442 5   1276173.882 2
  21985048.438    -5873600.315 6  -8653008.324 4
 94  2 15  2 10 59.9970000  0  8  4  2  9 12 13  7 27 26
  22195241.834    -7075206.284 6  -6978685.945 3
  20574371.909    -4322685.157 8  -1601828.656 8
  22495281.081   -23215034.889 6 -10280729.185 3
  23599723.511    -5694497.445 5  -4438976.958 2
  20396148.110   -18894980.986 8 -15873425.037 5
  19766138.397   -19737573.882 8 -11050022.348 9
  22574499.649    -8540017.163 6   1351400.853 2
  21991593.117    -5839177.470 6  -8626185.332 4
 94  2 15  2 11 29.9970000  0  8  4  2  9 12 13  7 27 26
  22174845.814    -7182408.738 6  -7062220.188 3
  20578157.058    -4302783.184 8  -1586320.597 7
  22475615.805   -23318423.339 6 -10361291.585 3
  23580409.832    -5795884.735 5  -4517980.005 2
  20381610.635   -18971368.606 8 -15932947.809 5
  19770431.905   -19715015.941 8 -11032444.716 9
  22592915.000    -8443234.420 5   1426816.004 3
  21998220.239    -5804358.584 6  -8599053.735 4
 94  2 15  2 11 59.9970000  0  8  4  2  9 12 13  7 27 26
  22154473.207    -7289451.120 6  -7145629.681 3
  20581976.054    -4282729.765 8  -1570694.552 7
  22455971.454   -23421638.617 6 -10441719.035 3
  23561114.980    -5897305.021 5  -4597008.776 2
  20367168.463   -19047260.039 8 -15992083.951 5
  19774793.705   -19692102.984 8 -11014590.456 9
  22611373.612    -8346225.458 5   1502407.429 3
  22004918.022    -5769148.349 6  -8571617.198 4
 94  2 15  2 12 29.9970000  0  8  4  2  9 12 13  7 27 26
  22134133.908    -7396326.884 6  -7228909.395 3
  20585822.092    -4262516.786 8  -1554944.141 7
  22436371.293   -23524662.425 6 -10521997.247 3
  23541811.943    -5998752.376 5  -4676058.565 2
  20352821.985   -19122649.376 8 -16050828.861 5
  19779220.591   -19668841.946 8 -10996464.964 9
  22629865.770    -8249007.935 5   1578161.329 3
  22011697.679    -5733549.389 6  -8543877.763 4
 94  2 15  2 12 59.9970000  0  8  4  2  9 12 13  7 27 26
  22113824.138    -7503048.247 6  -7312068.729 3
  20589697.509    -4242151.027 8  -1539074.710 7
  22416787.291   -23627501.508 6 -10602131.577 3
  23522495.895    -6100230.440 5  -4755132.327 2
  20338571.650   -19197540.462 8 -16109185.522 5
  19783710.612   -19645236.367 8 -10978070.988 9
  22648400.918    -8151614.111 5   1654052.589 3
  22018535.675    -5697583.722 6  -8515852.552 4
 94  2 15  2 13 29.9970000  0  8  4  2  9 12 13  7 27 26
  22093548.215    -7609595.041 6  -7395092.074 3
  20593602.636    -4221623.141 8  -1523078.923 7
  22397264.087   -23730188.268 6 -10682147.206 3
  23503187.162    -6201736.116 5  -4834227.689 2
  20324417.578   -19271930.083 8 -16167151.422 5
  19788269.316   -19621278.705 8 -10959402.665 9
  22666960.200    -8054065.332 5   1730064.660 3
  22025452.487    -5661259.499 6  -8487547.967 4
 94  2 15  2 13 59.9970000  0  8  4  2  9 12 13  7 27 26
  22073311.834    -7715960.299 6  -7477973.975 3
  20597543.707    -4200917.220 8  -1506944.436 7
  22377743.670   -23832731.534 6 -10762050.970 3
  23483869.226    -6303266.091 5  -4913341.887 2
  20310357.192   -19345815.551 8 -16224724.475 5
  19792898.831   -19596960.931 8 -10940453.740 9
  22685558.035    -7956369.399 5   1806191.372 3
  22032430.636    -5624587.003 6  -8458972.038 4
 94  2 15  2 14 29.9970000  0  8  4  2  9 12 13  7 27 26
  22053102.375    -7822154.685 6  -7560722.756 4
  20601519.165    -4180023.400 8  -1490663.520 7
  22358261.148   -23935131.824 6 -10841843.359 3
  23464535.040    -6404818.347 5  -4992473.478 2
  20296395.858   -19419194.830 8 -16281903.101 5
  19797593.281   -19572281.981 8 -10921223.377 9
  22704178.954    -7858516.020 5   1882440.752 3
  22039477.048    -5587568.173 6  -8430126.179 4
 94  2 15  2 14 59.9970000  0  8  4  2  9 12 13  7 27 26
  22032930.630    -7928171.781 6  -7643333.355 4
  20605529.789    -4158930.789 8  -1474227.681 7
  22338808.365   -24037388.499 6 -10921523.855 3
  23445213.896    -6506393.363 5  -5071622.892 2
  20282523.591   -19492068.756 8 -16338687.942 5
  19802357.313   -19547241.555 8 -10901711.325 9
  22722833.660    -7760491.685 6   1958823.342 3
  22046582.848    -5550202.190 6  -8401009.815 4
 94  2 15  2 15 29.9970000  0  8  4  2  9 12 13  7 27 26
  22012785.895    -8034004.175 6  -7725800.072 4
  20609586.490    -4137635.180 8  -1457633.685 7
  22319369.552   -24139491.696 6 -11001084.737 4
  23425882.439    -6607989.594 5  -5150788.721 2
  20268754.064   -19564436.128 8 -16395078.090 5
  19807187.689   -19521849.448 8 -10881925.268 9
  22741518.974    -7662289.600 6   2035344.434 2
  22053760.629    -5512478.132 6  -8371614.505 4
 94  2 15  2 15 59.9970000  0  8  4  2  9 12 13  7 27 26
  21992680.164    -8139668.622 6  -7808135.900 4
  20613678.088    -4116134.406 8  -1440879.837 7
  22299976.158   -24241414.400 6 -11080504.965 4
  23406531.196    -6709602.672 5  -5229967.686 2
  20255078.461   -19636292.774 8 -16451070.237 5
  19812088.427   -19496116.416 8 -10861873.533 9
  22760244.311    -7563903.496 5   2112008.970 2
  22061008.532    -5474388.621 6  -8341934.359 4
 94  2 15  2 16 29.9970000  0  8  4  2  9 12 13  7 27 26
  21972600.845    -8245179.306 6  -7890351.911 4
  20617807.069    -4094430.952 8  -1423968.022 7
  22280612.473   -24343147.121 6 -11159777.171 4
  23387198.779    -6811231.958 6  -5309159.438 2
  20241502.360   -19707638.330 8 -16506664.146 5
  19817049.152   -19470051.473 8 -10841563.185 9
  22778999.627    -7465335.462 5   2188815.200 2
  22068325.386    -5435931.920 6  -8311968.094 4
 94  2 15  2 16 59.9970000  0  8  4  2  9 12 13  7 27 26
  21952558.550    -8350525.501 6  -7972439.765 4
  20621969.058    -4072540.274 8  -1406910.334 7
  22261291.329   -24444694.606 6 -11238905.039 4
  23367857.279    -6912871.787 6  -5388359.192 2
  20228026.778   -19778467.718 8 -16561855.856 6
  19822068.428   -19443658.766 8 -10820997.414 9
  22797784.023    -7366597.152 4   2265754.201 2
  22075714.761    -5397106.427 6  -8281714.453 4
 94  2 15  2 17 29.9970000  0  8  4  2  9 12 13  7 27 26
  21932539.249    -8455722.818 6  -8054411.604 4
  20626167.262    -4050482.678 8  -1389722.584 7
  22241996.296   -24546082.396 6 -11317908.445 4
  23348522.314    -7014525.424 6  -5467569.818 2
  20214644.913   -19848784.523 8 -16616648.125 6
  19827153.537   -19416942.464 8 -10800179.507 9
  22816614.736    -7267698.326 4   2342818.183 2
  22083178.154    -5357917.327 6  -8251177.538 4
 94  2 15  2 17 59.9970000  0  8  4  2  9 12 13  7 27 26
  21912547.619    -8560763.177 6  -8136261.195 4
  20630398.922    -4028261.998 8  -1372407.761 7
  22222737.599   -24647307.745 6 -11396785.307 4
  23329172.450    -7116187.071 6  -5546786.644 2
  20201361.259   -19918583.402 8 -16671036.847 5
  19832301.843   -19389886.540 8 -10779096.940 9
  22835469.553    -7168627.560 4   2420016.199 2
  22090701.775    -5318365.771 6  -8220358.114 4
 94  2 15  2 18 29.9970000  0  8  4  2  9 12 13  7 27 26
  21892593.883    -8665619.579 6  -8217967.385 4
  20634658.703    -4005886.766 8  -1354972.502 7
  22203509.570   -24748367.736 6 -11475533.326 4
  23309819.078    -7217857.382 6  -5626010.162 2
  20188176.566   -19987865.567 8 -16725022.919 5
  19837515.264   -19362491.035 8 -10757749.781 9
  22854344.367    -7069379.247 4   2497352.562 2
  22098296.628    -5278459.204 6  -8189262.104 4
 94  2 15  2 18 59.9970000  0  8  4  2  9 12 13  7 27 26
  21872678.490    -8770276.375 6  -8299518.071 4
  20638942.767    -3983358.970 8  -1337418.387 7
  22184309.182   -24849248.733 6 -11554141.820 4
  23290482.644    -7319531.555 6  -5705236.712 2
  20175093.743   -20056626.660 8 -16778602.970 6
  19842796.708   -19334747.570 8 -10736131.473 9
  22873273.772    -6969942.054 4   2574836.092 2
  22105956.415    -5238192.168 6  -8157885.180 4
 94  2 15  2 19 29.9970000  0  8  4  2  9 12 13  7 27 26
  21852805.518    -8874734.461 6  -8380913.952 3
  20643258.819    -3960669.152 8  -1319737.988 7
  22165155.592   -24949933.100 6 -11632597.124 4
  23271125.675    -7421212.331 6  -5784468.425 2
  20162106.674   -20124870.129 8 -16831779.662 6
  19848140.358   -19306652.258 8 -10714239.001 9
  22892229.649    -6870310.943 4   2652470.722 2
  22113688.632    -5197573.260 6  -8126234.103 4
 94  2 15  2 19 59.9970000  0  8  4  2  9 12 13  7 27 26
  21832969.839    -8978967.721 6  -8462134.625 4
  20647608.568    -3937811.323 8  -1301926.681 7
  22146043.043   -25050394.208 6 -11710878.451 4
  23251775.031    -7522893.684 6  -5863700.640 2
  20149220.365   -20192590.056 8 -16884548.403 6
  19853554.310   -19278203.916 8 -10692071.443 9
  22911219.883    -6770487.661 4   2730255.129 2
  22121482.247    -5156608.663 6  -8094313.626 4
 94  2 15  2 20 29.9970000  0  8  4  2  9 12 13  7 27 26
  21813172.265    -9082976.698 6  -8543180.504 4
  20651991.714    -3914774.954 8  -1283976.263 7
  22126951.900   -25150628.014 6 -11788982.662 4
  23232432.781    -7624572.622 6  -5942930.828 2
  20136431.728   -20259784.345 8 -16936907.548 6
  19859033.767   -19249421.032 8 -10669643.201 9
  22930263.149    -6670489.208 4   2808175.965 2
  22129338.548    -5115301.602 6  -8062126.303 4
 94  2 15  2 20 59.9970000  0  8  4  2  9 12 13  7 27 26
  21793419.630    -9186775.560 6  -8624062.714 4
  20656411.314    -3891558.343 8  -1265885.370 7
  22107926.201   -25250652.163 6 -11866923.485 4
  23213072.424    -7726249.578 6  -6022159.531 2
  20123748.589   -20326454.189 8 -16988858.057 6
  19864572.523   -19220311.457 8 -10646960.402 9
  22949306.835    -6570334.166 3   2886218.884 2
  22137272.555    -5073648.022 6  -8029668.963 4
 94  2 15  2 21 29.9970000  0  8  4  2  9 12 13  7 27 26
  21773716.250    -9290353.642 6  -8704772.871 4
  20660868.988    -3868154.550 8  -1247648.646 7
  22088935.518   -25350471.912 6 -11944705.033 4
  23193735.421    -7827921.695 5  -6101384.484 2
  20111161.413   -20392597.428 8 -17040398.205 6
  19870172.856   -19190888.348 8 -10624033.277 9
  22968394.621    -6470039.212 4   2964370.753 2
  22145256.238    -5031657.334 6  -7996948.950 4
 94  2 15  2 21 59.9970000  0  8  4  2  9 12 13  7 27 26
  21754041.740    -9393712.889 6  -8785312.503 4
  20665353.104    -3844567.528 8  -1229269.146 7
  22069963.872   -25450094.667 6 -12022333.102 4
  23174383.008    -7929590.836 5  -6180607.185 2
  20098672.838   -20458216.376 8 -17091529.823 6
  19875822.804   -19161169.111 8 -10600875.423 9
  22987506.360    -6369619.163 4   3042620.187 2
  22153308.604    -4989333.104 6  -7963969.016 4
 94  2 15  2 22 29.9970000  0  8  4  2  9 12 13  7 27 26
  21734417.986    -9496857.807 6  -8865685.156 4
  20669879.340    -3820781.586 8  -1210734.630 7
  22051057.790   -25549519.914 6 -12099807.267 4
  23155036.592    -8031252.900 6  -6259824.298 2
  20086285.144   -20523308.093 8 -17142250.606 6
  19881536.039   -19131150.442 8 -10577484.250 9
  23006636.417    -6269079.437 5   3120962.782 1
  22161431.330    -4946665.243 6  -7930721.314 4
 94  2 15  2 22 59.9970000  0  8  4  2  9 12 13  7 27 26
  21714829.187    -9599783.511 6  -8945886.991 4
  20674446.109    -3796798.339 8  -1192046.383 7
  22032172.724   -25648740.462 6 -12177121.905 4
  23135688.526    -8132904.788 5  -6339033.460 2
  20074003.067   -20587870.108 8 -17192558.645 6
  19887311.091   -19100808.598 8 -10553841.246 9
  23025794.354    -6168405.938 5   3199409.695 1
  22169620.581    -4903656.525 6  -7897208.027 4
 94  2 15  2 23 29.9970000  0  8  4  2  9 12 13  7 27 26
  21695286.736    -9702475.449 6  -9025906.637 4
  20679041.088    -3772615.598 8  -1173202.672 7
  22013330.079   -25747741.888 6 -12254265.799 4
  23116354.461    -8234539.406 5  -6418229.224 2
  20061816.503   -20651895.823 8 -17242448.778 6
  19893149.639   -19070126.869 8 -10529933.392 9
  23044982.331    -6067586.844 5   3277970.048 1
  22177865.743    -4860317.878 6  -7863437.693 4
 94  2 15  2 23 59.9970000  0  8  4  2  9 12 13  7 27 26
  21675784.007    -9804943.522 6  -9105751.835 5
  20683686.792    -3748233.357 8  -1154203.508 7
  21994539.657   -25846529.624 6 -12331243.236 4
  23097014.520    -8336159.418 5  -6497413.643 2
  20049735.617   -20715389.293 8 -17291924.167 6
  19899057.709   -19039093.195 8 -10505751.307 9
  23064203.374    -5966614.541 5   3356649.875 1
  22186177.519    -4816648.491 6  -7829409.577 4
 94  2 15  2 24 29.9970000  0  9  4  2  9 12 13  7 24 27 26
  21656334.881    -9907182.242 6  -9185418.340 5
  20688365.772    -3723652.319 8  -1135049.451 7
  21975772.409   -25945102.433 6 -12408053.143 4
  23077685.101    -8437763.617 5  -6576585.644 2
  20037753.662   -20778349.880 8 -17340984.329 6
  19905031.374   -19007700.398 8 -10481289.382 9
  23818637.031   -17522680.40214   -945725.048 3
  23083443.215    -5865487.014 5   3435450.540 1
  22194544.756    -4772656.503 6  -7795130.088 4
 94  2 15  2 24 59.9970000  0  9  4  2  9 12 13  7 24 27 26
  21636920.771   -10009190.832 6  -9264905.513 5
  20693076.321    -3698882.437 8  -1115748.226 7
  21957060.473   -26043463.036 7 -12484697.697 4
  23058343.931    -8539347.306 5  -6655741.700 2
  20025875.585   -20840773.898 8 -17389626.390 6
  19911071.892   -18975953.706 8 -10456551.693 9
  23796205.630   -17640541.999 4  -1037564.965 3
  23102713.035    -5764195.791 5   3514378.843 1
  22202975.940    -4728351.666 6  -7760606.859 4
 94  2 15  2 25 29.9970000  0  9  4  2  9 12 13  7 24 27 26
  21617553.939   -10110969.179 6  -9344213.271 4
  20697828.302    -3673916.518 8  -1096294.256 7
  21938381.335   -26141616.431 7 -12561180.827 4
  23039023.416    -8640910.216 5  -6734881.689 2
  20014096.289   -20902661.876 8 -17437850.748 6
  19917175.067   -18943880.532 8 -10431559.602 9
  23773767.573   -17758489.970 5  -1129472.241 3
  23122023.536    -5662758.081 5   3593421.120 1
  22211471.578    -4683732.139 6  -7725838.398 3
 94  2 15  2 25 59.9970000  0  9  4  2  9 12 13  7 24 27 26
  21598225.899   -10212531.154 6  -9423352.448 4
  20702616.227    -3648749.566 7  -1076683.638 7
  21919749.024   -26239545.856 7 -12637489.426 4
  23019703.171    -8742448.921 6  -6814002.672 2
  20002423.061   -20964011.729 8 -17485655.816 6
  19923337.181   -18911497.887 8 -10406326.390 9
  23751301.666   -17876510.872 5  -1221436.339 2
  23141356.852    -5561166.531 5   3672583.309 1
  22220020.820    -4638784.547 6  -7690814.302 4
 94  2 15  2 26 29.9970000  0  9  4  2  9 12 13  7 24 27 26
  21578940.550   -10313878.743 6  -9502324.544 4
  20707440.247    -3623395.674 7  -1056927.340 7
  21901158.533   -26337237.142 6 -12713612.439 4
  23000386.913    -8843961.916 6  -6893103.580 2
  19990853.440   -21024822.779 8 -17533041.006 6
  19929555.146   -18878821.054 8 -10380863.905 9
  23728837.827   -17994586.619 5  -1313443.197 2
  23160707.706    -5459428.696 5   3751859.595 1
  22228634.397    -4593519.846 6  -7655543.058 4
 94  2 15  2 26 59.9970000  0  9  4  2  9 12 13  7 24 27 26
  21559700.230   -10415008.894 6  -9581127.218 4
  20712302.282    -3597848.698 8  -1037020.588 7
  21882613.432   -26434688.698 7 -12789548.648 4
  22981077.131    -8945445.720 6  -6972181.838 2
  19979381.882   -21085092.481 8 -17580004.363 6
  19935826.415   -18845867.890 8 -10355186.108 9
  23706352.464   -18112709.127 5  -1405486.554 2
  23180093.545    -5357547.813 5   3831247.299 1
  22237308.801    -4547939.560 6  -7620025.976 3
 94  2 15  2 27 29.9970000  0  9  4  2  9 12 13  7 24 27 26
  21540496.545   -10515903.462 6  -9659746.342 4
  20717202.809    -3572101.734 8  -1016958.021 7
  21864119.415   -26531878.617 7 -12865281.005 4
  22961765.790    -9046898.493 6  -7051235.899 2
  19968015.910   -21144820.452 8 -17626545.621 6
  19942148.558   -18812634.352 8 -10329289.844 9
  23683868.659   -18230841.949 5  -1497537.955 2
  23199514.880    -5255523.194 4   3910746.916 1
  22246041.096    -4502038.174 6  -7584258.667 3
 94  2 15  2 27 59.9970000  0  9  4  2  9 12 13  7 24 27 26
  21521344.094   -10616550.370 6  -9738172.446 4
  20722136.254    -3546172.046 8   -996753.051 7
  21845671.356   -26628808.744 7 -12940810.937 4
  22942465.901    -9148321.966 6  -7130267.104 2
  19956752.618   -21204009.326 8 -17672666.780 6
  19948527.362   -18779109.146 8 -10303166.307 9
  23661395.527   -18348976.995 5  -1589591.060 2
  23218952.254    -5153360.533 4   3990354.159 1
  22254831.880    -4455829.153 6  -7548251.610 3
 94  2 15  2 28 29.9970000  0  9  4  2  9 12 13  7 24 27 26
  21502246.624   -10716914.375 6  -9816378.077 4
  20727102.226    -3520055.476 7   -976402.470 7
  21827276.931   -26725487.295 7 -13016144.798 4
  22923184.659    -9249707.727 6  -7209268.902 2
  19945597.730   -21262651.920 8 -17718362.286 6
  19954966.904   -18745284.497 8 -10276809.420 9
  23638912.921   -18467110.488 5  -1681643.017 2
  23238423.264    -5051069.906 4   4070061.169 1
  22263687.840    -4409320.175 6  -7512010.832 3
 94  2 15  2 28 59.9970000  0  9  4  2  9 12 13  7 24 27 26
  21483202.488   -10816982.201 6  -9894352.958 4
  20732115.145    -3493747.093 8   -955902.415 7
  21808924.086   -26821918.542 7 -13091285.975 4
  22903876.466    -9351055.217 6  -7288240.863 2
  19934538.986   -21320748.907 8 -17763632.618 6
  19961461.338   -18711162.459 8 -10250220.798 9
  23616427.617   -18585250.157 5  -1773699.748 2
  23257907.256    -4948653.933 3   4149865.859 1
  22272595.363    -4362501.884 6  -7475529.062 3
 94  2 15  2 29 29.9970000  0  9  4  2  9 12 13  7 24 27 26
  21464217.441   -10916754.888 6  -9972097.888 4
  20737153.367    -3467255.763 7   -935259.814 6
  21790624.694   -26918103.273 7 -13166235.090 4
  22884610.334    -9452366.668 6  -7367184.787 2
  19923583.550   -21378303.589 8 -17808480.390 6
  19968013.122   -18676729.845 8 -10223390.186 9
  23593944.712   -18703405.194 5  -1865768.541 2
  23277422.216    -4846114.200 3   4229766.950 1
  22281562.335    -4315374.898 6  -7438806.756 3
 94  2 15  2 29 59.9970000  0  9  4  2  9 12 13  7 24 27 26
  21445284.439   -11016244.964 6 -10049622.554 4
  20742229.094    -3440583.814 7   -914476.485 6
  21772364.126   -27014050.342 7 -13240998.969 4
  22865329.542    -9553640.066 6  -7446099.044 2
  19912734.990   -21435315.399 8 -17852905.159 6
  19974619.139   -18641992.672 8 -10196322.252 9
  23571458.809   -18821593.782 5  -1957863.472 1
  23296961.879    -4743457.521 3   4309759.122 1
  22290585.759    -4267946.878 6  -7401849.846 3
 94  2 15  2 30 29.9970000  0  9  4  2  9 12 13  7 24 27 26
  21426399.972   -11115459.420 6 -10126932.459 4
  20747341.964    -3413709.640 7   -893535.536 6
  21754150.775   -27109748.326 7 -13315568.761 4
  22846073.992    -9654868.158 6  -7524977.941 2
  19901990.968   -21491778.218 8 -17896902.134 6
  19981286.613   -18606956.299 8 -10169021.169 9
  23548957.646   -18939815.571 5  -2049984.203 1
  23316514.343    -4640681.760 3   4389844.164 2
  22299673.907    -4220214.893 6  -7364656.078 3
 94  2 15  2 30 59.9970000  0  9  4  2  9 12 13  7 24 27 26
  21407573.965   -11214414.339 6 -10204040.141 4
  20752496.506    -3386626.783 7   -872432.008 6
  21735984.431   -27205193.367 7 -13389941.481 4
  22826819.342    -9756054.012 6  -7603823.968 2
  19891352.683   -21547696.650 8 -17940474.892 6
  19988015.935   -18571615.924 8 -10141483.195 9
  23526449.528   -19058089.856 5  -2142145.908 1
  23336094.388    -4537798.978 3   4470012.596 2
  22308812.061    -4172184.391 5  -7327229.710 3
 94  2 15  2 31 29.9970000  0  9  4  2  9 12 13  7 24 27 26
  21388791.068   -11313121.966 6 -10280955.135 4
  20757691.369    -3359327.947 7   -851160.184 6
  21717866.954   -27300388.096 6 -13464119.147 4
  22807568.709    -9857195.436 6  -7682635.341 2
  19880814.558   -21603069.667 8 -17983622.671 6
  19994799.728   -18535966.583 8 -10113704.470 9
  23503940.421   -19176412.050 5  -2234344.868 2
  23355690.742    -4434813.126 3   4550261.361 2
  22318008.194    -4123862.101 6  -7289576.010 3
 94  2 15  2 31 59.9970000  0  9  4  2  9 12 13  7 24 27 26
  21370056.258   -11411582.661 7 -10357677.692 4
  20762928.863    -3331815.064 7   -829721.561 6
  21699808.625   -27395321.885 7 -13538093.472 5
  22788327.969    -9958287.231 6  -7761408.111 2
  19870380.702   -21657893.494 8 -18026342.499 6
  20001642.911   -18500009.435 8 -10085685.909 9
  23481409.728   -19294778.120 4  -2326578.046 2
  23375301.815    -4331723.951 3   4630590.584 1
  22327257.211    -4075244.237 5  -7251691.925 3
 94  2 15  2 32 29.9970000  0  9  4  2  9 12 13  7 24 27 26
  21351365.757   -11509786.377 7 -10434199.994 4
  20768203.202    -3304087.893 7   -808115.964 6
  21681794.426   -27489986.146 7 -13611857.795 5
  22769108.124   -10059327.604 6  -7840140.793 2
  19860052.792   -21712167.927 8 -18068634.241 6
  20008542.904   -18463737.784 8 -10057422.265 9
  23458877.897   -19413184.736 4  -2418842.799 2
  23394946.436    -4228524.291 3   4711006.203 1
  22336561.210    -4026335.633 6  -7213581.327 3
 94  2 15  2 32 59.9970000  0  9  4  2  9 12 13  7 24 27 26
  21332734.375   -11607720.167 7 -10510511.996 4
  20773516.304    -3276157.323 7   -786351.871 6
  21663825.736   -27584368.445 7 -13685402.417 5
  22749895.025   -10160310.873 6  -7918828.946 2
  19849828.550   -21765888.769 8 -18110494.593 6
  20015506.903   -18427144.567 8 -10028908.051 9
  23436337.701   -19531623.345 3  -2511132.536 2
  23414601.519    -4125195.970 3   4791521.932 1
  22345935.211    -3977120.637 6  -7175232.008 3
 94  2 15  2 33 29.9970000  0  9  4  2  9 12 13  7 24 27 26
  21314146.134   -11705380.665 6 -10586611.027 4
  20778867.359    -3248034.399 7   -764437.917 6
  21645928.126   -27678461.431 7 -13758721.579 5
  22730684.924   -10261236.215 6  -7997471.952 2
  19839713.462   -21819056.573 8 -18151924.041 6
  20022524.535   -18390248.052 8 -10000157.510 9
  23413793.128   -19650071.933 3  -2603430.036 2
  23434300.042    -4021722.896 3   4872150.451 1
  22355352.891    -3927600.155 6  -7136644.617 3
 94  2 15  2 33 59.9970000  0  9  4  2  9 12 13  7 24 27 26
  21295618.990   -11802742.344 7 -10662477.194 4
  20784259.097    -3219724.470 7   -742378.203 6
  21628077.673   -27772257.976 7 -13831809.756 5
  22711490.382   -10362102.120 6  -8076068.678 2
  19829697.276   -21871671.503 8 -18192922.652 6
  20029602.215   -18353055.736 8  -9971176.483 9
  23391262.616   -19768530.248 3  -2695735.153 2
  23454018.171    -3918099.052 3   4952896.337 1
  22364829.301    -3877790.877 5  -7097832.197 3
 94  2 15  2 34 29.9960000  0  9  4  2  9 12 13  7 24 27 26
  21277152.854   -11899789.544 7 -10738098.317 5
  20789685.011    -3191217.048 7   -720164.628 6
  21610288.529   -27865771.604 7 -13904677.480 5
  22692313.198   -10462901.983 6  -8154614.004 2
  19819794.292   -21923730.013 8 -18233487.694 6
  20036735.836   -18315577.242 8  -9941972.439 9
  23368720.561   -19886994.677 3  -2788044.960 2
  23473777.252    -3814334.204 3   5033752.112 1
  22374365.849    -3827697.728 6  -7058798.547 3
 94  2 15  2 34 59.9960000  0  8  4  2  9 12 13  7 24 26
  21258743.678   -11996529.189 7 -10813479.799 5
  20795146.120    -3162510.601 7   -697795.955 6
  21592538.297   -27959016.720 7 -13977335.974 5
  22673146.058   -10563642.667 6  -8233113.167 2
  19809991.918   -21975237.508 8 -18273623.384 6
  20043917.874   -18277822.877 8  -9912553.428 9
  23346166.006   -20005462.497 4  -2880357.352 2
  22383951.982    -3777319.726 5  -7019543.004 3
 94  2 15  2 35 29.9960000  0  8  4  2  9 12 13  7 24 26
  21240396.170   -12092946.696 7 -10888610.256 5
  20800648.331    -3133593.917 7   -675263.471 6
  21574849.642   -28051999.959 7 -14049790.416 5
  22653985.902   -10664317.717 6  -8311561.146 2
  19800296.240   -22026190.646 8 -18313327.097 6
  20051159.481   -18239790.481 8  -9882917.785 9
  23323629.557   -20123909.545 4  -2972653.630 2
  22393585.603    -3726681.022 5  -6980084.271 3
 94  2 15  2 35 59.9960000  0  8  4  2  9 12 13  7 24 26
  21222106.102   -12189042.299 7 -10963489.863 5
  20806191.673    -3104462.107 7   -652563.347 6
  21557200.441   -28144737.104 7 -14122053.087 5
  22634827.545   -10764927.544 6  -8389958.345 2
  19790705.190   -22076591.580 8 -18352600.523 6
  20058448.395   -18201472.727 8  -9853059.804 9
  23301097.126   -20242345.973 4  -3064941.637 2
  22403269.289    -3675790.269 5  -6940429.163 3
 94  2 15  2 36 29.9960000  0  8  4  2  9 12 13  7 24 26
  21203878.930   -12284827.113 7 -11038127.318 5
  20811772.340    -3075114.393 7   -629694.991 6
  21539594.919   -28237221.946 7 -14194119.180 5
  22615711.099   -10865469.204 6  -8468302.459 2
  19781217.808   -22126439.081 8 -18391442.694 6
  20065797.118   -18162866.627 8  -9822977.107 9
  23278553.213   -20360758.098 4  -3157210.673 2
  22413005.889    -3624633.986 5  -6900567.113 3
 94  2 15  2 36 59.9960000  0  8  4  2  9 12 13  7 24 26
  21185715.734   -12380294.741 6 -11112517.628 5
  20817403.072    -3045545.476 7   -606654.269 6
  21522055.321   -28329429.795 7 -14265969.402 5
  22596587.728   -10965936.362 6  -8546588.504 2
  19771838.831   -22175728.755 8 -18429850.218 6
  20073201.842   -18123967.587 8  -9792666.165 9
  23256034.842   -20479123.284 5  -3249443.170 2
  22422792.314    -3573223.437 5  -6860506.978 3
 94  2 15  2 37 29.9960000  0  8  4  2  9 12 13  7 24 26
  21167603.683   -12475450.164 7 -11186664.654 5
  20823070.648    -3015759.949 7   -583444.771 6
  21504560.213   -28421370.676 7 -14337611.616 5
  22577476.378   -11066332.604 6  -8624819.255 3
  19762564.421   -22224465.856 8 -18467827.164 6
  20080656.721   -18084784.451 8  -9762133.825 9
  23233518.989   -20597456.001 5  -3341650.330 2
  22432619.061    -3521565.328 5  -6820253.895 3
 94  2 15  2 37 59.9960000  0  8  4  2  9 12 13  7 24 26
  21149561.034   -12570293.588 7 -11260568.549 5
  20828780.615    -2985768.479 7   -560074.784 6
  21487107.945   -28513031.918 7 -14409035.927 5
  22558392.999   -11166655.420 6  -8702992.840 3
  19753395.299   -22272649.650 8 -18505372.935 6
  20088161.845   -18045328.122 8  -9731388.641 9
  23211007.034   -20715770.613 5  -3433843.373 3
  22442501.120    -3469650.663 5  -6779800.896 3
 94  2 15  2 38 29.9960000  0  8  4  2  9 12 13  7 24 26
  21131573.486   -12664822.318 7 -11334227.224 5
  20834519.572    -2955587.025 7   -536556.742 6
  21469724.539   -28604396.909 7 -14480229.390 5
  22539315.017   -11266903.686 6  -8781108.360 2
  19744332.843   -22320280.685 8 -18542488.006 6
  20095723.000   -18005610.986 8  -9700440.221 9
  23188498.527   -20834058.520 5  -3526015.591 3
  22452422.062    -3417480.861 5  -6739149.127 3
 94  2 15  2 38 59.9960000  0  8  4  2  9 12 13  7 24 26
  21113645.178   -12759039.171 7 -11407642.936 5
  20840300.530    -2925222.400 7   -512896.009 6
  21452395.546   -28695470.843 7 -14551196.057 5
  22520242.850   -11367077.721 6  -8859165.955 3
  19735373.335   -22367361.540 8 -18579174.369 7
  20103324.088   -17965649.413 8  -9669301.315 9
  23165986.901   -20952330.297 5  -3618175.302 3
  22462403.891    -3365070.457 5  -6698309.834 3
 94  2 15  2 39 29.9960000  0  8  4  2  9 12 13  7 24 26
  21095774.040   -12852939.952 7 -11480812.307 5
  20846113.746    -2894672.760 7   -489091.082 6
  21435117.157   -28786246.218 7 -14621930.087 5
  22501203.451   -11467173.168 6  -8937162.346 3
  19726518.366   -22413889.510 8 -18615429.887 7
  20110978.719   -17925440.772 8  -9637969.893 9
  23143483.730   -21070597.411 6  -3710331.378 3
  22472423.315    -3312403.072 5  -6657270.344 3
 94  2 15  2 39 59.9960000  0  8  4  2  9 12 13  7 24 26
  21077969.935   -12946519.629 7 -11553731.492 5
  20851967.074    -2863927.328 7   -465133.598 6
  21417906.762   -28876707.751 7 -14692419.534 5
  22482175.893   -11567186.337 6  -9015094.659 2
  19717770.152   -22459862.847 8 -18651253.236 7
  20118671.813   -17884976.628 8  -9606439.387 9
  23120985.325   -21188849.913 6  -3802476.072 3
  22482492.474    -3259486.655 5  -6616036.744 3
 94  2 15  2 40 29.9960000  0  8  4  2  9 12 13  7 24 26
  21060218.834   -13039784.465 7 -11626405.361 5
  20857853.798    -2832969.004 7   -441010.210 6
  21400757.074   -28966846.446 7 -14762657.461 5
  22463156.460   -11667113.000 6  -9092959.560 3
  19709129.234   -22505279.510 8 -18686642.828 7
  20126427.414   -17844251.119 8  -9574705.215 9
  23098479.875   -21307086.644 5  -3894608.458 2
  22492617.425    -3206315.149 5  -6574604.453 3
 94  2 15  2 40 59.9960000  0  8  4  2  9 12 13  7 24 26
  21042534.347   -13132722.257 7 -11698824.388 5
  20863790.139    -2801777.252 7   -416704.950 6
  21383666.955   -29056665.030 7 -14832645.920 5
  22444158.912   -11766952.529 6  -9170756.557 3
  19700589.436   -22550140.968 8 -18721599.766 7
  20134226.785   -17803255.224 8  -9542760.350 9
  23075982.909   -21425310.614 5  -3986730.919 2
  22502785.786    -3152884.519 6  -6532970.188 3
 94  2 15  2 41 29.9960000  0  8  4  2  9 12 13  7 24 26
  21024910.987   -13225323.674 7 -11770981.295 5
  20869773.247    -2770344.469 7   -392211.871 6
  21366632.838   -29146163.287 7 -14902384.765 5
  22425180.940   -11866707.672 6  -9248487.773 3
  19692162.330   -22594451.876 8 -18756127.728 7
  20142081.407   -17761984.641 8  -9510601.437 9
  23053485.074   -21543524.238 5  -4078845.332 2
  22512993.209    -3099197.459 5  -6491136.077 3
 94  2 15  2 41 59.9960000  0  8  4  2  9 12 13  7 24 26
  21007353.222   -13317580.538 7 -11842869.702 5
  20875797.576    -2738676.674 7   -367535.649 6
  21349666.623   -29235334.460 7 -14971868.745 5
  22406212.022   -11966370.752 6  -9326147.300 3
  19683834.485   -22638206.593 8 -18790222.284 7
  20149988.014   -17720440.297 8  -9478229.208 9
  23030990.147   -21661702.743 5  -4170932.363 2
  22523259.302    -3045262.488 5  -6449108.829 3
 94  2 15  2 42 29.9960000  0  8  4  2  9 12 13  7 24 26
  20989861.741   -13409484.393 7 -11914483.058 5
  20881865.945    -2706794.408 7   -342692.296 6
  21332755.990   -29324184.473 7 -15041102.482 5
  22387259.353   -12065943.704 6  -9403736.520 3
  19675612.107   -22681409.108 8 -18823886.554 7
  20157942.587   -17678641.590 8  -9445658.774 9
  23008519.084   -21779839.309 5  -4262986.759 2
  22533567.966    -2991073.760 5  -6406883.892 3
 94  2 15  2 42 59.9960000  0  8  4  2  9 12 13  7 24 26
  20972446.587   -13501026.177 7 -11985814.282 5
  20887967.651    -2674704.488 7   -317687.173 6
  21315908.763   -29412724.227 7 -15110094.454 5
  22368333.755   -12165423.907 6  -9481253.511 3
  19667494.537   -22724059.284 8 -18857120.438 7
  20165941.289   -17636602.498 8  -9412901.032 9
  22986055.065   -21897913.055 5  -4354992.164 2
  22543924.956    -2936657.532 5  -6364481.631 3
 94  2 15  2 43 29.9960000  0  8  4  2  9 12 13  7 24 26
  20955093.191   -13592212.898 7 -12056868.862 5
  20894116.424    -2642413.412 7   -292525.329 6
  21299115.589   -29500949.249 7 -15178841.211 6
  22349416.941   -12264804.109 6  -9558692.634 3
  19659486.121   -22766151.822 8 -18889919.826 7
  20173984.661   -17594333.872 8  -9379964.448 9
  22963598.901   -22015913.192 5  -4446940.286 2
  22554322.447    -2882021.655 6  -6321908.212 3
 94  2 15  2 43 59.9960000  0  8  4  2  9 12 13  7 24 26
  20937802.541   -13683063.784 7 -12127661.720 5
  20900293.258    -2609941.593 7   -267222.582 5
  21282388.909   -29588869.345 7 -15247350.319 5
  22330517.305   -12364090.958 6  -9636058.932 3
  19651577.116   -22807695.681 8 -18922291.634 7
  20182072.312   -17551841.372 8  -9346853.400 9
  22941156.768   -22133838.362 5  -4538829.929 2
  22564758.703    -2827185.530 5  -6279178.752 3
 94  2 15  2 44 29.9960000  0  8  4  2  9 12 13  7 24 26
  20920582.222   -13773577.232 7 -12198191.621 5
  20906512.063    -2577265.396 7   -241760.599 5
  21265715.322   -29676484.070 7 -15315621.489 5
  22311649.776   -12463278.081 6  -9713347.509 3
  19643781.883   -22848686.601 8 -18954232.576 7
  20190201.994   -17509112.614 8  -9313558.257 9
  22918725.247   -22251698.949 4  -4630669.263 2
  22575230.093    -2772143.175 5  -6236288.616 3
 94  2 15  2 44 59.9960000  0  8  4  2  9 12 13  7 24 26
  20903418.295   -13863763.832 7 -12268466.855 5
  20912773.858    -2544368.310 7   -216126.481 5
  21249108.798   -29763788.462 7 -15383650.812 6
  22292794.929   -12562363.168 6  -9790556.618 3
  19636085.011   -22889124.702 8 -18985742.750 7
  20198379.583   -17466128.122 8  -9280063.833 9
  22896301.490   -22369515.680 4  -4722474.474 2
  22585747.742    -2716905.264 6  -6193246.080 3
 94  2 15  2 45 29.9960000  0  8  4  2  9 12 13  7 24 26
  20886322.720   -13953615.148 7 -12338480.848 5
  20919075.615    -2511253.794 7   -190322.965 5
  21232551.261   -29850771.350 7 -15451429.655 6
  22273956.121   -12661343.465 6  -9867684.116 3
  19628493.936   -22929009.548 8 -19016821.832 7
  20206612.363   -17422870.358 8  -9246356.470 9
  22873894.193   -22487300.422 4  -4814254.714 2
  22596296.210    -2661455.734 6  -6150038.615 3
 94  2 15  2 45 59.9960000  0  8  4  2  9 12 13  7 24 26
  20869288.033   -14043117.514 7 -12408222.918 5
  20925417.605    -2477915.445 7   -164345.030 5
  21216069.361   -29937428.142 7 -15518954.405 6
  22255147.142   -12760216.803 6  -9944728.190 3
  19621011.866   -22968341.360 8 -19047469.984 7
  20214897.728   -17379335.792 8  -9212433.428 9
  22851487.884   -22605054.045 5  -4906010.720 2
  22606878.554    -2605790.773 5  -6106663.293 3
 94  2 15  2 46 29.9960000  0  8  4  2  9 12 13  7 24 26
  20852322.927   -14132262.172 7 -12477686.250 5
  20931803.754    -2444348.892 7   -138189.247 5
  21199635.698   -30023752.427 7 -15586220.024 6
  22236346.558   -12858980.243 6 -10021686.663 3
  19613630.286   -23007119.609 8 -19077686.763 7
  20223230.279   -17335538.152 8  -9178305.388 9
  22829083.674   -22722776.130 5  -4997742.149 2
  22617520.346    -2549903.953 5  -6063115.181 2
 94  2 15  2 46 59.9960000  0  8  4  2  9 12 13  7 24 26
  20835433.520   -14221035.048 7 -12546859.899 5
  20938236.670    -2410574.456 7   -111871.526 5
  21183273.955   -30109725.380 7 -15653211.923 6
  22217577.481   -12957630.070 6 -10098556.617 3
  19606356.962   -23045342.870 8 -19107471.105 7
  20231612.566   -17291485.964 8  -9143978.988 9
  22806691.456   -22840448.084 5  -5089434.517 2
  22628202.821    -2493797.558 5  -6019395.902 2
 94  2 15  2 47 29.9960000  0  8  4  2  9 12 13  7 24 26
  20818614.803   -14309422.489 7 -12615733.189 5
  20944697.498    -2376604.745 7    -85401.605 5
  21166979.185   -30195347.910 7 -15719930.716 6
  22198829.450   -13056168.671 6 -10175339.896 3
  19599190.033   -23083016.078 8 -19136826.844 7
  20240040.242   -17247201.220 8  -9109471.382 9
  22784312.369   -22958045.123 5  -5181068.482 2
  22638920.282    -2437480.566 5  -5975512.515 2
 94  2 15  2 47 59.9960000  0  8  4  2  9 12 13  7 24 26
  20801865.998   -14397422.822 7 -12684304.841 5
  20951201.585    -2342423.876 7    -58767.160 5
  21150758.015   -30280613.551 7 -15786371.442 6
  22180097.458   -13154591.560 7 -10252032.973 3
  19592127.223   -23120137.284 8 -19165752.435 7
  20248511.717   -17202689.050 8  -9074786.555 9
  22761954.387   -23075561.115 5  -5272639.324 2
  22649660.676    -2380963.529 5  -5931473.185 2
 94  2 15  2 48 29.9960000  0  9  4  2  9 12 13  7 24  5 26
  20785195.708   -14485027.893 7 -12752568.505 6
  20957747.194    -2308030.876 7    -31967.404 5
  21134604.268   -30365522.838 7 -15852534.476 6
  22161387.920   -13252893.629 7 -10328631.950 3
  19585165.682   -23156704.053 8 -19194246.007 7
  20257025.433   -17157940.359 8  -9039917.450 9
  22739595.835   -23192994.014 5  -5364145.395 2
  23789682.206     5481101.21214  -3179043.075 2
  22660463.997    -2324254.601 5  -5887284.498 2
 94  2 15  2 48 59.9960000  0  9  4  2  9 12 13  7 24  5 26
  20768602.406   -14572221.110 7 -12820511.226 6
  20964331.805    -2273418.762 7     -4996.931 5
  21118509.520   -30450083.086 7 -15918425.527 6
  22142713.339   -13351073.647 7 -10405135.805 3
  19578314.855   -23192717.365 8 -19222308.319 7
  20265586.127   -17112946.942 8  -9004857.638 9
  22717269.631   -23310350.964 5  -5455592.379 2
  23772556.681     5391035.048 4  -3249224.464 1
  22671290.132    -2267365.391 5  -5842955.243 2
 94  2 15  2 49 29.9960000  0  9  4  2  9 12 13  7 24  5 26
  20752090.617   -14659011.650 7 -12888140.172 6
  20970967.771    -2238577.479 7     22152.139 5
  21102474.371   -30534320.058 7 -15984064.713 6
  22124044.453   -13449136.571 7 -10481548.428 3
  19571559.991   -23228184.788 8 -19249945.238 7
  20274194.937   -17067717.896 8  -8969614.217 9
  22694951.402   -23427652.759 5  -5546996.328 2
  23755381.272     5300903.420 4  -3319456.908 1
  22682149.185    -2210305.626 5  -5798493.081 2
 94  2 15  2 49 59.9960000  0  9  4  2  9 12 13  7 24  5 26
  20735648.140   -14745412.216 7 -12955465.260 6
  20977636.804    -2203507.240 7     49479.602 5
  21086509.523   -30618232.806 7 -16049451.223 6
  22105404.917   -13547075.961 7 -10557864.771 3
  19564919.288   -23263102.582 8 -19277153.891 7
  20282846.198   -17022254.674 8  -8934188.303 9
  22672635.961   -23544906.666 6  -5638362.997 2
  23738226.698     5210710.367 4  -3389737.121 2
  22693033.989    -2153057.536 5  -5753884.148 2
 94  2 15  2 50 29.9960000  0  9  4  2  9 12 13  7 24  5 26
  20719280.131   -14831430.146 7 -13022492.205 6
  20984350.087    -2168224.911 7     76972.339 5
  21070605.923   -30701814.975 7 -16114580.147 6
  22086792.212   -13644887.266 7 -10634081.317 3
  19558379.975   -23297469.060 8 -19303932.939 7
  20291540.509   -16976564.784 8  -8898585.777 9
  22650339.766   -23662097.021 5  -5729680.089 2
  23721058.753     5120461.054 4  -3460061.251 2
  22703975.035    -2095605.530 5  -5709116.334 2
 94  2 15  2 50 59.9960000  0  9  4  2  9 12 13  7 24  5 26
  20702977.477   -14917078.068 7 -13089230.799 6
  20991105.580    -2132737.784 7    104624.660 5
  21054765.999   -30785049.815 7 -16179438.428 6
  22068209.157   -13742569.945 7 -10710197.654 3
  19551943.491   -23331286.265 8 -19330283.993 7
  20300275.292   -16930660.861 8  -8862816.485 9
  22628050.796   -23779214.547 5  -5820940.406 2
  23703873.900     5030169.967 4  -3530417.886 2
  22714937.036    -2037931.362 5  -5664175.471 2
 94  2 15  2 51 29.9960000  0  9  4  2  9 12 13  7 24  5 26
  20686748.422   -15002375.404 7 -13155696.213 6
  20997892.012    -2097051.039 7    132432.505 5
  21038991.369   -30867921.285 7 -16244013.569 6
  22049637.673   -13840118.344 7 -10786209.333 3
  19545611.755   -23364550.876 8 -19356204.445 7
  20309050.427   -16884549.506 8  -8826885.551 9
  22605781.883   -23896231.093 5  -5912122.123 2
  23686685.569     4939843.204 4  -3600802.333 2
  22725970.268    -1980023.580 5  -5619052.548 2
 94  2 15  2 51 59.9960000  0  9  4  2  9 12 13  7 24  5 26
  20670583.313   -15087325.081 7 -13221890.749 6
  21004721.074    -2061170.007 7    160391.750 5
  21023296.245   -30950427.677 7 -16308304.227 6
  22031098.298   -13937534.445 7 -10862117.914 3
  19539388.753   -23397268.101 8 -19381698.370 7
  20317867.323   -16838230.423 8  -8790792.741 9
  22583527.749   -24013132.954 5  -6003214.486 2
  23669508.240     4849498.696 5  -3671200.593 2
  22737020.408    -1921897.957 5  -5573759.802 2
 94  2 15  2 52 29.9960000  0  9  4  2  9 12 13  7 24  5 26
  20654489.345   -15171907.864 7 -13287799.378 6
  21011589.319    -2025082.547 7    188511.874 5
  21007667.914   -31032561.310 7 -16372304.411 6
  22012605.121   -14034813.892 7 -10937920.059 3
  19533267.260   -23429436.306 8 -19406764.495 7
  20326721.633   -16791695.071 8  -8754531.413 9
  22561309.590   -24129914.072 5  -6094212.687 2
  23652303.121     4759151.524 4  -3741600.919 2
  22748123.132    -1863580.394 5  -5528317.555 2
 94  2 15  2 52 59.9960000  0  9  4  2  9 12 13  7 24  5 26
  20638466.337   -15256098.672 7 -13353402.581 6
  21018499.745    -1988767.857 7    216809.040 5
  20992098.463   -31114321.957 7 -16436013.984 6
  21994110.864   -14131950.319 7 -11013610.703 3
  19527250.516   -23461051.852 8 -19431399.956 7
  20335618.095   -16744942.763 8  -8718101.028 8
  22539107.321   -24246568.661 5  -6185112.352 2
  23635104.388     4668805.719 4  -3812000.219 2
  22759251.818    -1805091.060 5  -5482741.476 2
 94  2 15  2 53 29.9960000  0  9  4  2  9 12 13  7 24  5 26
  20622520.676   -15339891.614 7 -13418695.773 6
  21025457.209    -1952214.586 7    245292.119 5
  20976616.341   -31195722.102 7 -16499442.637 6
  21975655.820   -14228942.407 7 -11089188.890 4
  19521342.116   -23492116.199 8 -19455605.919 7
  20344557.066   -16697978.389 8  -8681505.401 8
  22516937.429   -24363098.589 5  -6275914.876 3
  23617918.935     4578441.425 4  -3882413.825 2
  22770404.157    -1746468.215 5  -5437061.334 2
 94  2 15  2 53 59.9960000  0  9  4  2  9 12 13  7 24  5 26
  20606658.687   -15423270.480 7 -13483666.276 6
  21032459.911    -1915418.475 7    273964.406 5
  20961192.259   -31276757.136 7 -16562586.769 6
  21957214.117   -14325790.513 6 -11164654.873 3
  19515531.599   -23522632.455 8 -19479384.804 8
  20353533.482   -16650803.908 8  -8644746.048 8
  22494784.355   -24479523.827 5  -6366635.754 3
  23600699.396     4488056.451 4  -3952843.610 2
  22781593.221    -1687732.453 5  -5391293.163 2
 94  2 15  2 54 29.9960000  0  9  4  2  9 12 13  7 24  5 26
  20590867.989   -15506232.411 7 -13548311.912 6
  21039507.972    -1878390.291 7    302817.553 5
  20945851.189   -31357408.220 7 -16625431.752 6
  21938827.636   -14422495.707 7 -11240009.557 3
  19509829.576   -23552604.940 8 -19502739.979 8
  20362545.303   -16603434.055 8  -8607834.464 8
  22472644.982   -24595851.849 5  -6457280.948 3
  23583514.902     4397631.579 4  -4023304.550 2
  22792782.705    -1628882.818 5  -5345436.310 2
 94  2 15  2 54 59.9960000  0  9  4  2  9 12 13  7 24  5 26
  20575160.183   -15588772.504 7 -13612628.827 6
  21046597.014    -1841128.523 7    331852.700 5
  20930572.266   -31437665.683 7 -16687969.999 6
  21920447.600   -14519053.352 7 -11315249.212 4
  19504232.601   -23582031.782 8 -19525669.965 8
  20371597.027   -16555870.579 8  -8570771.991 8
  22450528.932   -24712076.974 6  -6547845.867 3
  23566298.871     4307155.933 5  -4093804.946 2
  22804012.631    -1569901.310 5  -5299476.714 2
 94  2 15  2 55 29.9960000  0  9  4  2  9 12 13  7 24  5 26
  20559530.233   -15670896.248 7 -13676621.332 6
  21053726.858    -1803643.943 7    361061.452 5
  20915376.206   -31517525.177 7 -16750198.140 6
  21902110.584   -14615460.314 7 -11390371.446 4
  19498732.428   -23610912.841 8 -19548174.672 8
  20380691.381   -16508100.039 8  -8533548.186 8
  22428433.209   -24828205.963 5  -6638335.941 2
  23549072.466     4216631.938 5  -4164343.066 2
  22815261.683    -1510775.333 5  -5253404.499 2
 94  2 15  2 55 59.9960000  0  9  4  2  9 12 13  7 24  5 26
  20543986.984   -15752595.120 7 -13740282.759 6
  21060899.033    -1765948.729 7    390434.378 5
  20900251.167   -31596991.455 7 -16812119.895 6
  21883779.475   -14711714.509 7 -11465374.676 4
  19493342.640   -23639248.894 8 -19570254.701 8
  20389820.991   -16460116.529 8  -8496158.431 8
  22406354.064   -24944238.921 5  -6728751.135 3
  23531816.203     4126059.461 5  -4234918.893 2
  22826547.190    -1451484.406 5  -5207203.799 3
 94  2 15  2 56 29.9960000  0  9  4  2  9 12 13  7 24  5 26
  20528520.811   -15833870.044 7 -13803613.824 7
  21068114.588    -1728040.571 7    419973.225 5
  20885209.380   -31676072.918 7 -16873741.782 6
  21865494.593   -14807808.478 7 -11540253.067 4
  19488052.862   -23667035.554 8 -19591906.610 8
  20398988.734   -16411916.912 8  -8458600.269 8
  22384290.928   -25060158.356 5  -6819077.938 3
  23514585.062     4035426.428 5  -4305541.990 2
  22837859.949    -1392011.922 5  -5160861.566 3
 94  2 15  2 56 59.9960000  0  9  4  2  9 12 13  7 24  5 26
  20513132.254   -15914729.859 7 -13866621.453 6
  21075372.473    -1689921.839 7    449676.104 5
  20870226.173   -31754795.512 7 -16935084.041 6
  21847242.719   -14903742.936 7 -11615007.118 4
  19482870.979   -23694276.737 8 -19613133.489 8
  20408204.834   -16363497.393 8  -8420870.769 8
  22362258.011   -25175961.050 5  -6909313.711 3
  23497330.207     3944729.150 5  -4376215.144 2
  22849206.613    -1332366.366 5  -5114384.565 3
 94  2 15  2 57 29.9960000  0  9  4  2  9 12 13  7 24  5 26
  20497824.192   -15995176.782 7 -13929307.355 6
  21082661.207    -1651595.344 7    479540.900 5
  20855315.545   -31833168.701 7 -16996154.041 6
  21829021.873   -14999517.208 7 -11689636.395 4
  19477790.156   -23720974.769 8 -19633937.138 8
  20417463.984   -16314856.117 8  -8382968.465 8
  22340245.240   -25291645.878 6  -6999457.686 3
  23480041.056     3853968.475 5  -4446937.664 2
  22860594.800    -1272569.046 5  -5067789.244 3
 94  2 15  2 57 59.9960000  0  9  4  2  9 12 13  7 24  5 26
  20482594.465   -16075203.962 7 -13991666.184 6
  21089999.437    -1613045.225 7    509579.991 5
  20840470.872   -31911171.116 7 -17056935.104 6
  21810829.687   -15095122.637 7 -11764134.096 4
  19472813.722   -23747123.951 8 -19654313.100 8
  20426756.171   -16266005.135 8  -8344902.755 8
  22318252.046   -25407194.980 6  -7089495.864 3
  23462765.785     3763149.404 5  -4517705.693 2
  22872006.879    -1212617.702 5  -5021073.872 3
 94  2 15  2 58 29.9960000  0  9  4  2  9 12 13  7 24  5 26
  20467445.682   -16154823.895 7 -14053707.679 6
  21097375.141    -1574276.063 7    539789.760 5
  20825703.695   -31988788.675 7 -17117416.304 6
  21792663.883   -15190565.886 7 -11838505.375 4
  19467937.987   -23772734.380 8 -19674269.251 8
  20436090.059   -16216959.686 8  -8306685.507 8
  22296290.479   -25522612.622 6  -7179431.614 3
  23445482.480     3672275.397 5  -4588516.558 2
  22883432.869    -1152527.489 5  -4974250.341 3
 94  2 15  2 58 59.9960000  0  9  4  2  9 12 13  7 24  5 26
  20452376.374   -16234022.485 7 -14115420.820 6
  21104796.773    -1535274.328 7    570180.693 5
  20811009.968   -32065998.119 7 -17177579.489 6
  21774532.765   -15285840.223 7 -11912745.053 4
  19463167.270   -23797802.284 8 -19693802.672 8
  20445460.192   -16167711.533 8  -8268310.317 8
  22274347.260   -25637895.304 6  -7269262.215 3
  23428161.731     3581381.154 5  -4659343.168 2
  22894897.712    -1092306.484 5  -4927324.924 3
 94  2 15  2 59 29.9960000  0  9  4  2  9 12 13  7 24  5 26
  20437385.283   -16312789.350 7 -14176797.553 6
  21112265.832    -1496029.421 7    600761.163 5
  20796393.946   -32142780.854 7 -17237410.174 6
  21756436.033   -15380941.935 7 -11986850.270 4
  19458503.249   -23822327.411 8 -19712913.140 8
  20454871.397   -16118267.197 8  -8229782.252 8
  22252441.245   -25753041.968 6  -7358986.806 3
  23410876.957     3490478.479 5  -4730176.362 2
  22906377.755    -1031947.906 5  -4880292.258 3
 94  2 15  2 59 59.9960000  0  9  4  2  9 12 13  7 24  5 26
  20422478.462   -16391119.021 7 -14237833.650 6
  21119779.321    -1456534.415 7    631536.515 5
  20781865.524   -32219130.658 7 -17296903.492 6
  21738371.858   -15475865.562 7 -12060816.687 4
  19453941.127   -23846307.255 8 -19731598.719 8
  20464317.348   -16068627.601 8  -8191102.038 8
  22230555.886   -25868047.330 5  -7448601.308 3
  23393585.588     3399579.513 5  -4801006.650 2
  22917891.344     -971444.242 5  -4833146.534 3
 94  2 15  3  0 29.9960000  0  9  4  2  9 12 13  7 24  5 26
  20407657.113   -16469001.489 7 -14298521.243 7
  21127343.235    -1416795.143 7    662502.184 5
  20767424.191   -32295068.228 7 -17356075.595 6
  21720340.841   -15570611.647 7 -12134644.727 4
  19449477.757   -23869745.661 8 -19749862.383 8
  20473802.182   -16018789.104 8  -8152266.828 8
  22208699.697   -25982915.772 6  -7538109.131 3
  23376291.040     3308681.502 5  -4871836.233 2
  22929428.557     -910809.827 5  -4785898.919 3
 94  2 15  3  0 59.9960000  0  9  4  2  9 12 13  7 24  5 26
  20392926.241   -16546430.290 7 -14358855.347 7
  21134951.188    -1376807.467 7    693661.408 5
  20753039.790   -32370611.139 7 -17414940.178 6
  21702345.409   -15665177.986 7 -12208332.732 4
  19445118.864   -23892643.762 8 -19767705.048 8
  20483324.699   -15968750.790 8  -8113275.917 8
  22186869.350   -26097641.190 6  -7627505.532 3
  23358991.337     3217777.725 5  -4942670.325 2
  22940994.400     -850043.959 5  -4738548.917 3
 94  2 15  3  1 29.9960000  0  9  4  2  9 12 13  7 24  5 26
  20378276.193   -16623408.068 7 -14418838.023 6
  21142610.345    -1336588.234 7    725001.068 5
  20738735.402   -32445773.534 7 -17473508.268 6
  21684383.164   -15759562.735 7 -12281879.262 4
  19440868.587   -23915003.032 8 -19785127.832 8
  20492881.423   -15918521.436 8  -8074136.162 8
  22165062.237   -26212221.405 5  -7716788.769 3
  23341680.001     3126837.245 5  -5013532.968 2
  22952584.257     -789143.995 5  -4691094.402 3
 94  2 15  3  1 59.9960000  0  9  4  2  9 12 13  7 24  5 26
  20363709.607   -16699931.157 7 -14478466.375 6
  21150303.260    -1296139.815 7    756519.310 5
  20724512.409   -32520549.190 7 -17531774.989 6
  21666460.162   -15853758.002 7 -12355278.116 4
  19436712.024   -23936818.979 8 -19802127.261 8
  20502473.493   -15868092.019 8  -8034840.503 8
  22143283.874   -26326651.286 5  -7805954.852 3
  23324368.306     3035859.410 5  -5084424.730 2
  22964194.499     -728119.771 5  -4643543.036 3
 94  2 15  3  2 29.9960000  0  9  4  2  9 12 13  7 24  5 26
  20349238.176   -16776002.726 7 -14537742.894 6
  21158047.319    -1255476.799 7    788204.784 5
  20710356.359   -32594931.679 7 -17589735.352 6
  21648568.248   -15947767.796 7 -12428532.450 4
  19432665.935   -23958098.881 8 -19818708.992 8
  20512104.745   -15817470.531 8  -7995395.172 8
  22121537.648   -26440936.036 6  -7895007.878 3
  23307052.413     2944838.917 5  -5155349.756 2
  22975827.436     -666976.598 5  -4595899.001 2
 94  2 15  3  2 59.9960000  0  9  4  2  9 12 13  7 24  5 26
  20334843.191   -16851630.790 7 -14596673.828 6
  21165820.367    -1214599.296 7    820057.382 5
  20696279.304   -32668906.078 8 -17647377.713 6
  21630716.956   -16041588.372 7 -12501639.375 4
  19428716.889   -23978842.363 8 -19834872.736 8
  20521780.367   -15766660.605 8  -7955802.999 8
  22099816.875   -26555067.615 5  -7983941.502 3
  23289721.681     2853785.041 5  -5226300.797 2
  22987483.606     -605716.450 4  -4548163.842 2
 94  2 15  3  3 29.9960000  0  9  4  2  9 12 13  7 24  5 26
  20320542.281   -16926808.361 7 -14655253.726 6
  21173634.998    -1173513.698 6    852072.147 5
  20682283.283   -32742452.293 7 -17704686.418 7
  21612902.509   -16135215.445 7 -12574595.498 4
  19424872.531   -23999048.584 8 -19850617.822 8
  20531485.518   -15715663.769 8  -7916065.197 8
  22078127.730   -26669042.349 6  -8072752.926 3
  23272392.208     2762701.572 5  -5297274.872 2
  22999162.501     -544358.429 4  -4500352.403 2
 94  2 15  3  3 59.9960000  0  9  4  2  9 12 13  7 24  5 26
  20306319.947   -17001533.590 7 -14713481.149 6
  21181494.477    -1132211.257 6    884255.846 5
  20668366.737   -32815561.229 7 -17761654.413 6
  21595118.760   -16228647.730 7 -12647399.816 5
  19421132.530   -24018719.769 8 -19865946.020 8
  20541223.797   -15664487.154 8  -7876187.289 8
  22056477.588   -26782856.742 6  -8161439.448 3
  23255042.649     2671604.597 5  -5368259.541 2
  23010859.114     -482910.271 4  -4452470.705 2
 94  2 15  3  4 29.9960000  0  9  4  2  9 12 13  7 24  5 26
  20292187.401   -17075798.095 7 -14771349.562 6
  21189398.505    -1090690.262 7    916609.887 5
  20654538.001   -32888235.523 7 -17818283.718 7
  21577376.983   -16321882.478 7 -12720050.240 4
  19417489.931   -24037856.708 8 -19880857.894 8
  20550997.870   -15613138.070 7  -7836175.004 8
  22034849.121   -26896497.983 6  -8249991.001 4
  23237714.075     2580484.564 5  -5439262.082 2
  23022561.033     -421361.915 4  -4404510.953 2
 94  2 15  3  4 59.9960000  0  9  4  2  9 12 13  7 24  5 26
  20278141.495   -17149606.595 7 -14828862.654 6
  21197342.105    -1048941.618 6    949141.289 5
  20640792.007   -32960487.902 7 -17874584.234 7
  21559678.915   -16414917.396 7 -12792544.966 4
  19413948.183   -24056460.485 8 -19895354.334 8
  20560797.576   -15561626.762 7  -7796036.298 8
  22013256.929   -27009963.923 6  -8338405.971 4
  23220345.779     2489327.788 4  -5510293.312 2
  23034304.923     -359711.368 4  -4356471.585 2
 94  2 15  3  5 29.9960000  0  9  4  2  9 12 13  7 24  5 26
  20264188.674   -17222950.245 7 -14886013.524 6
  21205332.024    -1006956.372 6    981857.061 5
  20627125.848   -33032315.329 8 -17930553.654 7
  21542008.428   -16507743.413 7 -12864876.889 5
  19410510.313   -24074525.662 8 -19909431.084 8
  20570629.510   -15509952.086 7  -7755770.307 8
  21991697.804   -27123253.841 6  -8426683.815 4
  23203018.644     2398136.760 5  -5581351.229 2
  23046051.271     -297944.785 5  -4308341.774 2
 94  2 15  3  5 59.9960000  0  9  4  2  9 12 13  7 24  5 26
  20250315.568   -17295843.289 8 -14942813.280 6
  21213366.012     -964725.424 6   1014764.302 5
  20613535.596   -33103727.959 7 -17986199.828 7
  21524387.347   -16600362.127 7 -12937047.258 4
  19407173.893   -24092057.330 8 -19923092.113 8
  20580491.272   -15458115.368 7  -7715378.062 8
  21970162.783   -27236374.819 6  -8514829.989 4
  23185642.344     2306911.638 5  -5652435.697 2
  23057829.097     -236050.606 4  -4260112.521 2
 94  2 15  3  6 29.9960000  0  9  4  2  9 12 13  7 24  5 26
  20236532.580   -17368278.958 8 -14999256.656 6
  21221447.308     -922261.169 6   1047853.325 5
  20600020.443   -33174735.867 7 -18041530.630 7
  21506799.572   -16692775.918 7 -13009058.007 4
  19403937.214   -24109061.501 8 -19936342.112 8
  20590387.961   -15406115.789 7  -7674858.906 8
  21948677.497   -27349335.626 6  -8602851.333 4
  23168289.187     2215655.732 5  -5723544.137 2
  23069636.093     -174038.332 4  -4211791.238 2
 94  2 15  3  6 59.9960000  0  9  4  2  9 12 13  7 24  5 26
  20222836.112   -17440255.451 8 -15055342.197 6
  21229574.112     -879566.305 6   1081122.034 4
  20586586.533   -33245327.799 7 -18096537.316 7
  21489259.825   -16784982.781 7 -13080907.473 4
  19400800.126   -24125539.839 8 -19949182.365 8
  20600313.250   -15353944.821 7  -7634206.180 8
  21927212.627   -27462140.468 6  -8690751.195 4
  23150915.285     2124386.217 4  -5794663.179 2
  23081458.769     -111929.602 4  -4163394.893 2
 94  2 15  3  7 29.9960000  0  9  4  2  9 12 13  7 24  5 26
  20209225.624   -17511757.573 8 -15111058.118 7
  21237745.255     -836639.709 6   1114571.336 4
  20573241.391   -33315479.084 8 -18151200.654 7
  21471752.365   -16876975.168 7 -13152589.820 4
  19397768.294   -24141488.278 8 -19961609.713 8
  20610275.113   -15301580.913 7  -7593403.114 8
  21905770.241   -27574781.128 6  -8778523.109 4
  23133549.147     2033117.827 4  -5865781.345 2
  23093275.118      -49738.457 4  -4114934.223 2
 94  2 15  3  7 59.9960000  0  9  4  2  9 12 13  7 24  5 26
  20195715.957   -17582776.840 8 -15166397.809 7
  21245956.690     -793479.915 6   1148202.316 4
  20559973.866   -33385185.491 7 -18205517.306 7
  21454286.007   -16968751.385 7 -13224103.764 4
  19394834.705   -24156909.052 8 -19973625.907 8
  20620282.366   -15249016.784 7  -7552444.070 8
  21884380.828   -27687253.005 6  -8866163.500 4
  23116177.763     1941843.037 4  -5936904.553 2
  23105136.887       12518.956 4  -4066421.927 2
 94  2 15  3  8 29.9960000  0  9  4  2  9 12 13  7 24  5 26
  20182291.760   -17653304.390 8 -15221354.296 7
  21254217.831     -750095.200 6   1182008.589 4
  20546793.071   -33454437.700 8 -18259480.051 7
  21436859.041   -17060311.526 7 -13295449.270 5
  19391999.508   -24171805.633 8 -19985233.605 8
  20630318.967   -15196266.072 7  -7511339.604 7
  21863007.095   -27799546.898 6  -8953665.182 4
  23098796.636     1850547.183 4  -6008044.117 2
  23116992.329       74829.037 4  -4017868.582 2
 94  2 15  3  8 59.9960000  0  9  4  2  9 12 13  7 24  5 26
  20168962.688   -17723357.720 8 -15275941.266 7
  21262519.984     -706464.363 6   1216006.631 4
  20533710.728   -33523216.804 8 -18313074.121 7
  21419477.374   -17151650.970 7 -13366622.832 5
  19389262.583   -24186177.405 8 -19996432.370 8
  20640395.771   -15143331.835 7  -7470092.123 7
  21841667.059   -27911654.716 6  -9041021.902 4
  23081427.650     1759209.869 5  -6079215.994 2
  23128856.975      137197.109 5  -3969270.061 2
 94  2 15  3  9 29.9960000  0  9  4  2  9 12 13  7 24  5 26
  20155720.375   -17792945.085 8 -15330165.223 7
  21270867.105     -662574.867 6   1250206.224 4
  20520711.757   -33591524.095 7 -18366300.595 7
  21402142.205   -17242766.870 7 -13437622.253 5
  19386627.197   -24200025.038 8 -20007222.751 8
  20650499.707   -15090228.497 7  -7428712.916 7
  21820377.237   -28023568.795 6  -9128227.617 4
  23064034.531     1667814.394 5  -6150433.242 2
  23140741.078      199642.429 4  -3920611.448 2
 94  2 15  3  9 59.9960000  0  9  4  2  9 12 13  7 24  5 26
  20142569.259   -17862061.144 8 -15384021.835 7
  21279266.750     -618428.401 6   1284606.064 4
  20507796.368   -33659367.139 7 -18419165.257 7
  21384844.210   -17333655.486 7 -13508444.497 5
  19384093.981   -24213348.537 8 -20017604.667 8
  20660631.462   -15036980.077 7  -7387220.622 7
  21799116.736   -28135273.885 6  -9215270.501 4
  23046631.519     1576365.978 5  -6221691.695 2
  23152642.689      262187.548 4  -3871874.956 2
 94  2 15  3 10 29.9960000  0  9  4  2  9 12 13  7 24  5 26
  20129504.244   -17930713.179 7 -15437516.917 7
  21287723.656     -574037.317 6   1319196.476 4
  20494975.923   -33726746.394 8 -18471668.573 7
  21367590.675   -17424319.824 7 -13579092.024 5
  19381658.287   -24226154.953 8 -20027583.690 8
  20670788.881   -14983600.932 7  -7345626.484 7
  21777893.048   -28246761.162 6  -9302143.685 4
  23029228.627     1484875.327 5  -6292983.077 2
  23164565.315      324840.111 5  -3823054.780 2
 94  2 15  3 10 59.9960000  0  9  4  2  9 12 13  7 24  5 26
  20116531.355   -17998889.606 8 -15490641.393 7
  21296204.035     -529406.034 6   1353974.117 4
  20482240.980   -33793671.031 7 -18523817.622 7
  21350388.014   -17514752.654 7 -13649559.164 5
  19379320.386   -24238440.601 8 -20037156.908 8
  20680974.479   -14930081.092 7  -7303922.697 7
  21756730.819   -28358022.038 6  -9388840.417 4
  23011804.120     1393351.012 5  -6364300.751 2
  23176510.995      387604.535 5  -3774147.445 2
 94  2 15  3 11 29.9960000  0  9  4  2  9 12 13  7 24  5 26
  20103651.372   -18066569.340 7 -15543378.797 7
  21304744.792     -484552.211 6   1388925.168 4
  20469590.727   -33860155.126 8 -18575623.375 7
  21333224.086   -17604954.532 7 -13719846.287 5
  19377079.497   -24250209.793 8 -20046327.681 8
  20691184.601   -14876425.393 7  -7262113.021 7
  21735599.048   -28469054.731 6  -9475359.327 4
  22994387.467     1301806.942 5  -6435633.717 2
  23188477.601      450473.814 5  -3725158.381 2
 94  2 15  3 11 59.9960000  0  9  4  2  9 12 13  7 24  5 26
  20090870.650   -18133731.870 7 -15595713.211 7
  21313315.349     -439482.759 6   1424044.203 4
  20457025.646   -33926200.966 8 -18627087.644 7
  21316099.282   -17694920.569 7 -13789949.658 5
  19374936.910   -24261461.856 8 -20055095.508 8
  20701422.573   -14822617.599 7  -7220184.865 7
  21714511.137   -28579868.698 6  -9561707.857 4
  22976978.279     1210268.516 5  -6506962.323 2
  23200457.517      513421.660 5  -3676108.135 2
 94  2 15  3 12 29.9960000  0  9  4  2  9 12 13  7 24  5 26
  20078187.210   -18200374.457 7 -15647642.489 7
  21321941.847     -394189.422 6   1459337.701 4
  20444535.812   -33991804.329 7 -18678207.120 7
  21299022.743   -17784648.178 7 -13859867.267 5
  19372895.474   -24272197.797 8 -20063461.164 8
  20711695.082   -14768636.855 7  -7178121.952 7
  21693461.329   -28690473.971 6  -9647893.729 4
  22959550.834     1118726.950 5  -6578293.406 2
  23212445.888      576420.771 5  -3627017.847 2
 94  2 15  3 12 59.9960000  0  9  4  2  9 12 13  7 24  5 26
  20065609.388   -18266494.167 7 -15699164.317 7
  21330602.131     -348657.776 6   1494816.926 4
  20432138.195   -34056976.216 7 -18728990.388 7
  21281999.119   -17874133.427 7 -13929595.993 5
  19370948.831   -24282417.676 8 -20071424.686 8
  20722004.885   -14714474.703 7  -7135917.671 7
  21672454.692   -28800885.670 6  -9733928.778 4
  22942123.778     1027169.507 5  -6649636.806 2
  23224440.464      639463.166 5  -3577893.942 2
 94  2 15  3 13 29.9960000  0  9  4  2  9 12 13  7 24  5 26
  20053119.944   -18332103.165 7 -15750288.217 7
  21339307.835     -302882.812 6   1530485.725 4
  20419816.995   -34121709.059 7 -18779431.588 7
  21265014.017   -17963374.172 7 -13999134.235 5
  19369101.510   -24292123.299 8 -20078987.541 8
  20732345.956   -14660130.074 7  -7093571.212 7
  21651478.993   -28911107.585 6  -9819815.998 4
  22924699.990      935607.689 5  -6720983.631 2
  23236440.527      702547.101 5  -3528737.676 2
 94  2 15  3 13 59.9960000  0  9  4  2  9 12 13  7 24  5 26
  20040732.490   -18397213.349 7 -15801023.373 7
  21348070.558     -256868.358 6   1566341.162 4
  20407582.345   -34186003.418 7 -18829531.042 7
  21248076.283   -18052370.395 7 -14068481.911 5
  19367353.420   -24301318.591 8 -20086152.651 8
  20742719.224   -14605611.260 7  -7051088.974 7
  21630546.704   -29021130.454 6  -9905548.038 4
  22907272.365      844038.400 5  -6792336.195 2
  23248458.697      765661.853 5  -3479557.290 2
 94  2 15  3 14 29.9960000  0  9  4  2  9 12 13  7 24  5 26
  20028430.926   -18461837.168 7 -15851379.576 7
  21356872.225     -210614.345 6   1602383.209 4
  20395430.647   -34249853.451 7 -18879284.303 7
  21231192.661   -18141118.253 7 -14137636.043 5
  19365699.165   -24310003.422 8 -20092920.047 8
  20753125.680   -14550932.374 7  -7008482.056 7
  21609649.161   -29130938.764 6  -9991112.937 4
  22889853.974      752437.820 5  -6863713.261 2
  23260475.698      828825.729 5  -3430338.699 2
 94  2 15  3 14 59.9960000  0  9  4  2  9 12 13  7 24  5 26
  20016226.585   -18525980.702 7 -15901361.524 8
  21365707.618     -164125.636 6   1638608.207 4
  20383367.658   -34313260.279 8 -18928692.201 7
  21214353.019   -18229614.334 7 -14206593.996 5
  19364143.602   -24318178.718 8 -20099290.389 8
  20763558.697   -14496108.101 7  -6965761.829 7
  21588795.208   -29240534.373 6 -10076512.086 4
  22872405.663      660815.738 5  -6935106.988 2
  23272503.371      892043.020 5  -3381078.476 2
 94  2 15  3 15 29.9960000  0  9  4  2  9 12 13  7 24  5 26
  20004113.830   -18589636.267 8 -15950963.224 8
  21374604.139     -117408.514 6   1675011.188 4
  20371389.271   -34376200.327 8 -18977736.377 7
  21197563.052   -18317850.492 7 -14275349.434 5
  19362685.502   -24325840.159 8 -20105260.321 8
  20774014.649   -14441145.036 7  -6922933.454 7
  21567979.538   -29349898.491 6 -10161730.844 4
  22854967.875      569184.544 5  -7006507.784 2
  23284546.784      955305.820 5  -3331782.782 2
 94  2 15  3 15 59.9960000  0  9  4  2  9 12 13  7 24  5 26
  19992096.679   -18652797.782 7 -16000179.983 8
  21383542.272      -70461.990 6   1711592.888 4
  20359498.932   -34438672.027 7 -19026415.593 7
  21180814.667   -18405829.006 7 -14343904.067 5
  19361326.842   -24332993.994 8 -20110834.733 8
  20784497.192   -14386054.830 7  -6880005.996 7
  21547215.133   -29459038.779 6 -10246775.182 4
  22837526.819      477528.691 5  -7077927.845 2
  23296583.271     1018606.319 4  -3282457.723 2
 94  2 15  3 16 29.9960000  0  9  4  2  9 12 13  7 24  5 26
  19980171.355   -18715470.692 7 -16049015.981 8
  21392522.915      -23282.592 6   1748356.057 4
  20347704.707   -34500669.725 7 -19074725.486 7
  21164125.851   -18493551.424 7 -14412259.159 6
  19360057.131   -24339646.045 8 -20116018.128 8
  20795004.828   -14330838.722 7  -6836980.451 7
  21526481.037   -29567975.737 6 -10331661.099 4
  22820095.447      385842.078 5  -7149371.842 2
  23308627.883     1081943.826 4  -3233103.833 3
 94  2 15  3 16 59.9960000  0  9  4  2  9 12 13  7 24  5 26
  19968338.127   -18777647.707 8 -16097465.575 8
  21401543.070       24132.247 6   1785302.695 4
  20335998.741   -34562192.439 8 -19122665.245 7
  21147483.802   -18581014.168 7 -14480411.938 6
  19358889.949   -24345796.694 8 -20120810.826 8
  20805538.605   -14275495.950 7  -6793856.189 7
  21505794.129   -29676693.595 6 -10416376.295 4
  22802631.397      294145.254 5  -7220823.853 2
  23320704.362     1145312.482 4  -3183725.680 3
 94  2 15  3 17 29.9960000  0  9  4  2  9 12 13  7 24  5 26
  19956601.672   -18839318.256 8 -16145520.518 8
  21410614.160       71787.908 6   1822436.984 4
  20324382.083   -34623225.578 8 -19170223.510 7
  21130883.544   -18668216.370 7 -14548361.677 6
  19357811.146   -24351449.045 8 -20125215.240 8
  20816095.737   -14220014.772 7  -6750624.105 7
  21485148.771   -29785169.439 6 -10500902.890 4
  22785179.698      202432.280 5  -7292288.440 2
  23332754.550     1208716.254 4  -3134320.137 3
 94  2 15  3 17 59.9960000  0  9  4  2  9 12 13  7 24  5 26
  19944962.380   -18900471.617 8 -16193172.470 8
  21419728.211      119689.076 6   1859762.573 4
  20312858.900   -34683768.050 7 -19217399.474 7
  21114345.103   -18755152.924 7 -14616104.400 6
  19356834.572   -24356602.356 8 -20129230.789 8
  20826679.010   -14164388.497 7  -6707278.918 7
  21464558.455   -29893401.038 6 -10585239.189 4
  22767741.730      110711.690 5  -7363758.892 3
  23344837.895     1272156.588 4  -3084886.118 3
 94  2 15  3 18 29.9960000  0  9  4  2  9 12 13  7 24  5 26
  19933427.895   -18961111.457 8 -16240424.279 8
  21428890.678      167835.106 6   1897278.965 4
  20301430.062   -34743828.590 7 -19264199.865 8
  21097846.445   -18841820.282 7 -14683637.370 6
  19355947.037   -24361257.012 8 -20132857.785 8
  20837290.914   -14108617.320 7  -6663820.843 7
  21444007.503   -30001374.059 6 -10669373.984 5
  22750280.978       18995.309 5  -7435226.105 3
  23356897.526     1335625.629 3  -3035429.722 3
 94  2 15  3 18 59.9960000  0  9  4  2  9 12 13  7 24  5 26
  19921987.065   -19021221.845 8 -16287263.510 8
  21438092.447      216226.481 6   1934986.539 4
  20290095.989   -34803397.108 8 -19310616.879 8
  21081415.959   -18928212.936 7 -14750956.300 6
  19355157.233   -24365411.907 8 -20136095.357 8
  20847933.366   -14052697.462 7  -6620246.930 7
  21423512.821   -30109074.355 6 -10753296.273 5
  22732812.461      -72713.168 5  -7506687.150 3
  23368995.231     1399116.431 3  -2985956.385 2
 94  2 15  3 19 29.9960000  0  8  4  2  9 12 13  7 24  5
  19910648.435   -19080797.616 8 -16333686.166 8
  21447354.266      264863.260 6   1972885.322 4
  20278860.487   -34862462.819 8 -19356642.088 8
  21065026.695   -19014326.766 8 -14818057.968 6
  19354459.826   -24369066.716 8 -20138943.237 8
  20858606.487   -13996633.302 7  -6576560.559 7
  21403069.343   -30216524.077 6 -10837023.312 5
  22715364.990     -164421.999 5  -7578148.538 2
 94  2 15  3 19 59.9960000  0  8  4  2  9 12 13  7 24  5
  19899409.156   -19139857.420 8 -16379706.749 8
  21456651.489      313735.042 6   2010967.224 4
  20267707.308   -34921048.999 8 -19402293.648 8
  21048682.610   -19100165.981 7 -14884945.651 6
  19353858.952   -24372229.981 8 -20141408.115 8
  20869291.750   -13940458.292 7  -6532787.822 7
  21382658.903   -30323747.449 6 -10920573.961 5
  22697907.955     -256139.517 5  -7649616.659 2
 94  2 15  3 20 29.9960000  0  8  4  2  9 12 13  7 24  5
  19888270.757   -19198399.341 8 -16425323.815 8
  21465995.481      362840.847 6   2049231.498 4
  20256650.902   -34979147.172 8 -19447564.943 8
  21032412.664   -19185727.161 8 -14951616.699 6
  19353350.294   -24374902.688 8 -20143490.734 8
  20880002.525   -13884179.956 7  -6488934.560 7
  21362299.098   -30430736.316 6 -11003941.889 5
  22680459.944     -347876.042 5  -7721099.546 3
 94  2 15  3 20 59.9960000  0  8  4  2  9 12 13  7 24  5
  19877231.169   -19256411.021 8 -16470527.706 8
  21475382.912      412181.009 6   2087678.381 4
  20245695.946   -35036740.681 8 -19492442.979 8
  21016179.592   -19271005.566 8 -15018067.369 6
  19352933.613   -24377084.054 8 -20145190.470 8
  20890733.776   -13827797.773 7  -6445000.383 7
  21341990.048   -30537481.873 6 -11087120.219 5
  22663000.032     -439645.909 5  -7792608.446 3
 94  2 15  3 21 29.9960000  0  8  4  2  9 12 13  7 24  5
  19866292.222   -19313902.967 8 -16515326.599 8
  21484817.201      461753.804 6   2126306.561 4
  20234827.540   -35093849.770 8 -19536943.544 8
  21000008.367   -19355999.726 8 -15084296.542 6
  19352613.734   -24378776.969 8 -20146509.621 8
  20901482.025   -13771313.233 7  -6400986.440 7
  21321722.279   -30643973.946 6 -11170101.031 5
  22645519.493     -531452.537 5  -7864146.036 3
 94  2 15  3 21 59.9960000  0  8  4  2  9 12 13  7 24  5
  19855450.648   -19370865.078 7 -16559712.640 8
  21494292.411      511559.076 6   2165115.864 4
  20224053.119   -35150465.018 8 -19581059.318 8
  20983888.107   -19440701.996 8 -15150298.326 6
  19352386.701   -24379978.111 8 -20147445.565 8
  20912252.639   -13714703.564 7  -6356875.020 6
  21301515.967   -30750183.849 6 -11252861.996 5
  22628061.259     -623285.500 5  -7935704.152 3
 94  2 15  3 22 29.9960000  0  9  4  2  9 12 13  7 24  5 26
  19844711.962   -19427291.214 8 -16603681.025 8
  21503817.987      561593.553 6   2204103.733 3
  20213372.443   -35206582.448 8 -19624787.161 8
  20967823.368   -19525114.453 8 -15216074.223 6
  19352249.906   -24380693.593 8 -20148003.063 8
  20923051.013   -13657954.444 7  -6312654.905 7
  21281361.730   -30856093.099 6 -11335388.647 5
  22610569.778     -715146.289 5  -8007283.919 3
  23453602.599     3816666.26014     32010.466
 94  2 15  3 22 59.9960000  0  9  4  2  9 12 13  7 24  5 26
  19834077.484   -19483179.366 8 -16647230.227 8
  21513388.501      611865.703 6   2243276.850 3
  20202790.789   -35262203.694 7 -19668128.375 8
  20951816.909   -19609232.290 8 -15281620.574 6
  19352202.269   -24380923.069 8 -20148181.892 8
  20933880.836   -13601049.556 7  -6268313.446 6
  21261260.346   -30961707.976 6 -11417685.929 5
  22593092.777     -807026.248 5  -8078878.654 3
  23465702.792     3880278.689 4     81581.637
 94  2 15  3 23 29.9960000  0  9  4  2  9 12 13  7 24  5 26
  19823546.015   -19538531.402 8 -16690361.658 8
  21522999.488      662365.563 6   2282627.403 3
  20192301.650   -35317325.675 8 -19711080.552 8
  20935868.970   -19693055.159 8 -15346937.078 6
  19352250.236   -24380670.532 8 -20147985.071 8
  20944737.010   -13543995.121 7  -6223855.433 6
  21241216.642   -31067049.836 6 -11499770.466 5
  22575605.404     -898905.213 5  -8150472.635 3
  23477833.204     3943907.536 4    131162.519 1
 94  2 15  3 23 59.9960000  0  9  4  2  9 12 13  7 24  5 26
  19813119.203   -19593337.611 8 -16733067.756 8
  21532646.509      713104.814 6   2322164.462 3
  20181907.336   -35371930.593 7 -19753629.812 8
  20919972.355   -19776580.112 8 -15412021.423 6
  19352391.768   -24379937.209 8 -20147413.635 8
  20955623.524   -13486799.413 7  -6179287.331 6
  21221222.973   -31172125.297 6 -11581647.433 5
  22558130.022     -990771.738 6  -8222056.895 3
  23489926.622     4007540.470 5    180746.885 1
 94  2 15  3 24 29.9960000  0  9  4  2  9 12 13  7 24  5 26
  19802788.565   -19647602.993 7 -16775352.471 8
  21542357.536      764094.525 6   2361896.675 3
  20171615.311   -35426030.982 8 -19795785.967 8
  20904131.831   -19859804.542 8 -15476871.604 6
  19352620.420   -24378724.920 8 -20146468.990 8
  20966527.005   -13429479.205 7  -6134622.224 6
  21201274.783   -31276948.984 6 -11663328.216 5
  22540649.363    -1082625.897 6  -8293631.499 3
  23502033.021     4071166.010 4    230324.941 1
 94  2 15  3 24 59.9960000  0  9  4  2  9 12 13  7 24  5 26
  19792566.092   -19701327.350 8 -16817215.565 8
  21552104.748      815333.150 6   2401822.884 3
  20161412.115   -35479614.994 7 -19837539.723 8
  20888356.452   -19942719.270 8 -15541480.488 6
  19352947.553   -24377029.000 8 -20145147.480 8
  20977464.424   -13372027.964 7  -6089855.017 6
  21181372.971   -31381534.492 6 -11744823.401 5
  22523180.007    -1174452.300 6  -8365184.518 3
  23514142.568     4134802.441 4    279911.936 1
 94  2 15  3 25 29.9960000  0  9  4  2  9 12 13  7 24  5 26
  19782444.619   -19754523.614 8 -16858667.170 8
  21561900.857      866809.265 6   2441934.148 3
  20151311.867   -35532695.619 7 -19878901.231 8
  20872638.663   -20025330.859 8 -15605853.118 6
  19353357.340   -24374860.172 8 -20143457.468 8
  20988416.082   -13314473.136 7  -6045007.114 6
  21161521.224   -31485873.734 6 -11826126.675 5
  22505706.274    -1266261.174 6  -8436723.873 3
  23526258.830     4198441.670 5    329500.960 1
 94  2 15  3 25 59.9960000  0  9  4  2  9 12 13  7 24  5 26
  19772423.576   -19807189.856 8 -16899705.812 8
  21571746.581      918541.064 6   2482244.620 3
  20141310.281   -35585272.842 7 -19919870.491 8
  20856972.468   -20107627.921 8 -15669980.682 6
  19353861.231   -24372211.324 8 -20141393.422 8
  20999394.512   -13256802.163 7  -6000068.673 6
  21141713.996   -31589935.299 6 -11907213.606 5
  22488231.671    -1358065.202 6  -8508259.425 3
  23538368.407     4262087.005 5    379094.800 1
 94  2 15  3 26 29.9960000  0  9  4  2  9 12 13  7 24  5 26
  19762500.955   -19859326.988 8 -16940332.106 8
  21581630.318      970508.128 6   2522738.431 3
  20131397.763   -35637359.545 7 -19960457.514 8
  20841372.198   -20189612.024 8 -15733864.393 6
  19354456.229   -24369088.760 8 -20138960.245 8
  21010383.674   -13199025.641 7  -5955047.998 6
  21121967.566   -31693716.052 6 -11988081.708 5
  22470761.655    -1449885.123 6  -8579807.378 3
  23550482.450     4325724.578 5    428682.609 1
 94  2 15  3 26 59.9960000  0  9  4  2  9 12 13  7 24  5 26
  19752682.183   -19910925.440 8 -16980538.685 8
  21591565.081     1022710.004 6   2563415.193 3
  20121580.789   -35688948.686 7 -20000656.815 8
  20825832.876   -20271280.064 8 -15797501.805 6
  19355141.075   -24365493.621 8 -20136158.817 8
  21021399.188   -13141147.178 7  -5909947.875 6
  21102280.405   -31797189.162 6 -12068710.095 5
  22453291.040    -1541713.377 6  -8651361.828 3
  23562584.412     4389335.356 5    478249.333 1
 94  2 15  3 27 29.9960000  0  9  4  2  9 12 13  7 24  5 26
  19742966.599   -19961972.727 8 -17020315.778 8
  21601546.191     1075162.772 6   2604287.500 3
  20111857.501   -35740038.301 7 -20040466.905 8
  20810353.092   -20352627.948 8 -15860889.739 6
  19355916.278   -24361426.010 8 -20132989.240 8
  21032431.341   -13083176.481 7  -5864775.901 6
  21082652.663   -31900328.191 6 -12149078.132 5
  22435808.313    -1633565.390 6  -8722934.796 3
  23574679.389     4452900.199 4    527780.393 1
 94  2 15  3 27 59.9960000  0  9  4  2  9 12 13  7 24  5 26
  19733359.210   -20012459.668 7 -17059656.219 8
  21611577.966     1127873.781 6   2645360.964 3
  20102231.555   -35790624.107 7 -20079884.419 8
  20794935.006   -20433654.841 8 -15924027.582 6
  19356778.691   -24356889.718 8 -20129454.457 8
  21043478.123   -13025106.602 7  -5819526.644 6
  21063085.359   -32003147.650 7 -12229197.176 5
  22418320.580    -1725435.316 6  -8794521.699 3
  23586767.471     4516411.384 4    577269.622 2
 94  2 15  3 28 29.9960000  0  8  4  2  9 12 13  7 24  5
  19723861.785   -20062377.967 8 -17098553.569 8
  21621658.577     1180843.701 6   2686636.245 3
  20092704.480   -35840689.854 7 -20118896.672 8
  20779579.936   -20514354.073 8 -15986910.072 6
  19357731.072   -24351882.560 8 -20125552.758 8
  21054548.799   -12966935.917 7  -5774198.834 6
  21043578.734   -32105652.606 6 -12309071.145 5
  22400848.195    -1817293.117 6  -8866099.182 3
 94  2 15  3 28 59.9960000  0  8  4  2  9 12 13  7 24  5
  19714469.467   -20111731.580 8 -17137010.915 8
  21631789.584     1234079.942 6   2728119.030 3
  20083284.312   -35890209.862 7 -20157483.683 8
  20764283.596   -20594722.973 8 -16049535.176 6
  19358774.259   -24346406.392 8 -20121285.600 8
  21065642.289   -12908647.645 7  -5728779.376 6
  21024132.276   -32207853.444 7 -12388708.138 5
  22383362.980    -1909125.620 6  -8937656.919 3
 94  2 15  3 29 29.9960000  0  8  4  2  9 12 13  7 24  5
  19705182.886   -20160526.137 7 -17175032.624 8
  21641966.308     1287574.884 6   2769803.417 3
  20073966.132   -35939179.326 8 -20195641.701 8
  20749054.528   -20674759.825 8 -16111901.538 6
  19359905.856   -24340463.815 8 -20116655.013 8
  21076758.474   -12850229.973 7  -5683259.105 6
  21004737.923   -32309771.796 7 -12468125.037 5
  22365892.125    -2000942.274 6  -9009202.296 3
 94  2 15  3 29 59.9960000  0  8  4  2  9 12 13  7 24  5
  19696003.271   -20208764.176 8 -17212620.670 8
  21652199.334     1341318.448 6   2811681.451 3
  20064746.255   -35987600.343 7 -20233372.332 8
  20733891.446   -20754458.308 8 -16174004.235 6
  19361125.322   -24334052.894 8 -20111659.487 8
  21087899.901   -12791674.675 7  -5637631.616 6
  20985393.874   -32411411.451 6 -12547324.721 5
  22348429.814    -2092721.553 6  -9080718.567 3
 94  2 15  3 30 29.9960000  0  8  4  2  9 12 13  7 24  5
  19686926.994   -20256460.060 8 -17249786.291 8
  21662464.078     1395290.867 6   2853737.903 3
  20055640.659   -36035478.052 8 -20270679.644 8
  20718788.351   -20833822.980 8 -16235846.838 6
  19362427.890   -24327183.047 8 -20106306.341 8
  21099062.793   -12732992.219 7  -5591905.015 6
  20966104.118   -32512761.444 6 -12626298.718 6
  22330973.199    -2184484.463 6  -9152222.086 3
 94  2 15  3 30 59.9960000  0  8  4  2  9 12 13  7 24  5
  19677956.184   -20303602.710 8 -17286520.834 8
  21672781.376     1449493.587 6   2895973.754 3
  20046633.035   -36082819.286 8 -20307568.951 8
  20703748.063   -20912847.214 8 -16297424.202 6
  19363826.782   -24319851.854 8 -20100593.759 8
  21110256.713   -12674179.788 7  -5546077.151 6
  20946874.980   -32613813.453 6 -12705040.553 5
  22313496.738    -2276243.877 5  -9223722.929 3
 94  2 15  3 31 29.9960000  0  8  4  2  9 12 13  7 24  5
  19669092.071   -20350191.339 8 -17322823.630 8
  21683136.027     1503930.068 6   2938391.798 3
  20037718.196   -36129644.045 7 -20344055.751 8
  20688775.499   -20991528.162 8 -16358733.970 7
  19365308.836   -24312061.230 8 -20094523.125 8
  21121474.797   -12615248.863 7  -5500156.955 5
  20927707.600   -32714556.943 7 -12783541.922 5
  22296045.549    -2368009.135 5  -9295228.249 3
 94  2 15  3 31 59.9960000  0  8  4  2  9 12 13  7 24  5
  19660331.895   -20396227.684 8 -17358696.089 8
  21693542.693     1558604.475 6   2980995.234 3
  20028906.696   -36175950.758 7 -20380138.896 8
  20673865.561   -21069865.119 8 -16419775.745 6
  19366874.742   -24303814.764 8 -20088097.297 8
  21132704.843   -12556216.678 7  -5454157.834 5
  20908596.250   -32814988.887 7 -12861800.554 5
  22278580.210    -2459775.226 5  -9366734.271 3
 94  2 15  3 32 29.9960000  0  8  4  2  9 12 13  7 24  5
  19651678.236   -20441694.003 8 -17394124.390 8
  21703992.828     1613526.345 6   3023791.463 3
  20020196.287   -36221723.215 8 -20415805.733 8
  20659027.573   -21147850.749 8 -16480543.750 7
  19368531.874   -24295109.912 8 -20081314.278 8
  21143961.750   -12497089.214 7  -5408084.470 5
  20889543.750   -32915108.971 7 -12939816.177 5
  22261130.400    -2551542.175 6  -9438240.922 3
 94  2 15  3 32 59.9960000  0  8  4  2  9 12 13  7 24  5
  19643133.672   -20486598.179 8 -17429114.619 8
  21714492.490     1668693.879 5   3066779.209 3
  20011588.556   -36266967.234 7 -20451060.790 8
  20644250.203   -21225489.231 8 -16541041.239 7
  19370272.349   -24285955.287 8 -20074180.798 8
  21155224.623   -12437875.434 6  -5361943.846 5
  20870550.578   -33014925.828 7 -13017595.505 5
  22243661.164    -2643304.020 6  -9509743.564 3
 94  2 15  3 33 29.9960000  0  8  4  2  9 12 13  7 24  5
  19634695.893   -20530948.652 8 -17463673.397 8
  21725036.850     1724111.393 5   3109961.647 2
  20003086.262   -36311672.381 7 -20485895.962 8
  20629548.081   -21302776.754 8 -16601265.280 7
  19372102.612   -24276351.504 8 -20066697.306 8
  21166508.361   -12378568.194 6  -5315730.389 5
  20851615.117   -33114417.589 7 -13095121.522 5
  22226201.611    -2735049.487 5  -9581233.493 3
 94  2 15  3 33 59.9960000  0  8  4  2  9 12 13  7 24  5
  19626362.442   -20574747.218 8 -17497802.121 8
  21735630.496     1779771.103 5   3153332.814 2
  19994679.092   -36355830.031 7 -20520304.496 8
  20614907.237   -21379710.437 8 -16661213.576 7
  19374019.725   -24266300.179 8 -20058865.083 8
  21177814.434   -12319172.263 7  -5269447.847 5
  20832749.268   -33213568.438 7 -13172381.863 5
  22208733.634    -2826765.421 5  -9652700.436 3
 94  2 15  3 34 29.9960000  0  8  4  2  9 12 13  7 24  5
  19618133.589   -20617990.047 8 -17531497.820 8
  21746266.623     1835670.906 5   3196891.123 3
  19986380.866   -36399444.469 8 -20554289.773 8
  20600331.687   -21456286.800 8 -16720883.435 7
  19376013.495   -24255802.565 8 -20050685.117 8
  21189138.435   -12259679.072 7  -5223089.523 5
  20813949.792   -33312362.341 7 -13249364.084 6
  22191291.199    -2918455.154 6  -9724146.947 3
 94  2 15  3 34 59.9960000  0  8  4  2  9 12 13  7 24  5
  19610006.665   -20660682.817 8 -17564764.894 9
  21756954.404     1891814.815 5   3240639.612 3
  19978182.382   -36442520.877 8 -20587855.794 8
  20585834.593   -21532501.727 8 -16780271.697 7
  19378097.622   -24244859.152 8 -20042157.779 8
  21200469.780   -12200080.308 7  -5176648.922 5
  20795220.858   -33410791.458 7 -13326062.080 6
  22173865.672    -3010120.845 6  -9795574.709 3
 94  2 15  3 35 29.9960000  0  8  4  2  9 12 13  7 24  5
  19601989.165   -20702805.435 8 -17597587.733 9
  21767672.794     1948206.458 5   3284581.096 2
  19970088.735   -36485063.630 8 -20621006.019 8
  20571399.017   -21608352.205 8 -16839375.996 7
  19380263.593   -24233471.330 8 -20033284.172 8
  21211837.520   -12140386.684 7  -5130134.423 5
  20776556.080   -33508860.747 6 -13402479.708 5
  22156415.683    -3101766.436 6  -9866986.850 3
 94  2 15  3 35 59.9960000  0  8  4  2  9 12 13  7 24  5
  19594085.227   -20744353.353 8 -17629962.724 9
  21778457.528     2004844.981 5   3328714.992 2
  19962088.893   -36527079.009 7 -20653745.266 8
  20557032.003   -21683838.505 8 -16898196.466 7
  19382516.203   -24221644.321 8 -20024068.300 8
  21223206.970   -12080623.598 7  -5083565.771 5
  20757956.865   -33606591.314 6 -13478633.351 5
  22138984.130    -3193402.260 6  -9938391.354 3
 94  2 15  3 36 29.9960000  0  8  4  2  9 12 13  7 24  5
  19586290.983   -20785314.960 8 -17661880.839 9
  21789291.607     2061743.812 5   3373051.737 3
  19954195.778   -36568573.349 7 -20686078.500 9
  20542736.010   -21758958.559 8 -16956731.585 7
  19384845.351   -24209380.385 8 -20014511.981 8
  21234600.162   -12020781.715 6  -5036935.739 5
  20739421.088   -33703998.433 7 -13554534.964 5
  22121544.663    -3285032.370 6 -10009791.403 3
 94  2 15  3 36 59.9960000  0  8  4  2  9 12 13  7 24  5
  19578608.831   -20825684.920 8 -17693337.940 8
  21800159.803     2118905.907 5   3417593.615 3
  19946395.927   -36609541.330 7 -20718001.606 9
  20528515.654   -21833710.051 8 -17014979.481 7
  19387267.404   -24196681.818 8 -20004616.985 8
  21245993.115   -11960869.369 6  -4990250.797 5
  20720948.716   -33801086.130 6 -13630187.678 5
  22104100.250    -3376644.234 6 -10081177.261 3
 94  2 15  3 37 29.9960000  0  8  4  2  9 12 13  7 24  5
  19571037.453   -20865468.949 8 -17724338.472 8
  21811092.215     2176323.158 5   3462334.251 2
  19938700.165   -36649981.395 7 -20749513.345 9
  20514362.003   -21908090.107 8 -17072937.962 7
  19389768.063   -24183550.534 8 -19994384.816 8
  21257411.520   -11900882.953 7  -4943508.111 5
  20702534.534   -33897847.575 7 -13705586.192 5
  22086678.860    -3468230.120 6 -10152542.873 3
 94  2 15  3 37 59.9960000  0  8  4  2  9 12 13  7 24  5
  19563577.747   -20904677.097 8 -17754890.233 9
  21822062.101     2233998.323 5   3507275.988 2
  19931106.002   -36689885.217 7 -20780607.213 9
  20500279.192   -21982094.765 8 -17130603.914 7
  19392343.010   -24169987.111 8 -19983815.876 8
  21268844.825   -11840801.744 7  -4896691.571 6
  20684184.417   -33994278.915 7 -13780727.462 5
  22069255.552    -3559781.320 6 -10223881.424 3
 94  2 15  3 38 29.9960000  0  8  4  2  9 12 13  7 24  5
  19556227.106   -20943301.626 8 -17784987.282 9
  21833081.572     2291915.875 5   3552406.535 3
  19923618.806   -36729248.673 8 -20811280.047 9
  20486265.903   -22055722.362 8 -17187976.070 7
  19395006.756   -24155994.386 8 -19972912.457 8
  21280294.439   -11780613.674 6  -4849791.810 5
  20665898.396   -34090372.227 7 -13855605.356 5
  22051845.645    -3651289.745 6 -10295186.679 3
 94  2 15  3 38 59.9960000  0  8  4  2  9 12 13  7 24  5
  19548985.919   -20981347.444 8 -17814633.347 9
  21844148.920     2350049.987 5   3597705.773 3
  19916236.207   -36768060.517 8 -20841523.012 9
  20472326.453   -22128969.839 8 -17245052.001 7
  19397750.037   -24141574.163 8 -19961675.907 7
  21291775.231   -11720316.831 7  -4802807.224 5
  20647677.670   -34186115.111 7 -13930210.143 5
  22034449.498    -3742752.757 6 -10366456.523 4
 94  2 15  3 39 29.9960000  0  8  4  2  9 12 13  7 24  5
  19541856.075   -21018827.593 8 -17843838.627 9
  21855238.543     2408390.844 5   3643166.235 3
  19908952.479   -36806316.792 8 -20871333.074 9
  20458459.493   -22201839.069 8 -17301833.202 7
  19400578.039   -24126732.726 8 -19950111.132 7
  21303268.764   -11659904.572 7  -4755732.715 5
  20629526.586   -34281507.356 7 -14004541.738 6
  22017046.696    -3834185.961 6 -10437703.115 4
 94  2 15  3 39 59.9960000  0  8  4  2  9 12 13  7 24  5
  19534834.695   -21055727.902 8 -17872592.098 9
  21866396.639     2466940.294 5   3688789.161 3
  19901783.872   -36844002.492 8 -20900698.566 9
  20444663.584   -22274324.365 8 -17358315.252 7
  19403480.210   -24111469.271 8 -19938217.533 7
  21314784.782   -11599385.416 7  -4708574.940 5
  20611446.373   -34376534.538 7 -14078588.871 6
  21999639.427    -3925587.238 6 -10508924.895 4
 94  2 15  3 40 29.9960000  0  8  4  2  9 12 13  7 24  5
  19527922.261   -21092042.164 8 -17900888.903 9
  21877574.370     2525690.944 5   3734568.866 3
  19894720.402   -36881113.631 8 -20929616.336 9
  20430946.700   -22346420.256 8 -17414493.842 7
  19406465.274   -24095782.742 8 -19925994.236 7
  21326321.905   -11538762.991 7  -4661336.690 5
  20593432.683   -34471178.436 7 -14152337.330 6
  21982255.241    -4016948.885 6 -10580115.787 4
 94  2 15  3 40 59.9960000  0  8  4  2  9 12 13  7 24  5
  19521118.111   -21127783.764 8 -17928739.502 9
  21888796.262     2584661.212 5   3780519.660 2
  19887766.626   -36917657.413 8 -20958092.001 9
  20417301.137   -22418128.310 8 -17470370.255 7
  19409523.427   -24079679.576 8 -19913446.317 7
  21337877.855   -11478041.683 7  -4614021.379 5
  20575490.734   -34565447.857 7 -14225793.986 6
  21964884.007    -4108283.751 6 -10651285.756 4
 94  2 15  3 41 29.9960000  0  8  4  2  9 12 13  7 24  5
  19514429.172   -21162951.392 8 -17956142.823 9
  21900062.852     2643885.900 5   3826668.782 2
  19880919.606   -36953637.942 8 -20986128.766 9
  20403730.102   -22489446.262 8 -17525942.650 7
  19412670.378   -24063161.951 8 -19900575.429 7
  21349442.978   -11417254.178 6  -4566654.474 5
  20557627.511   -34659343.021 7 -14298959.022 6
  21947505.158    -4199598.779 6 -10722440.305 4
 94  2 15  3 41 59.9960000  0  8  4  2  9 12 13  7 24  5
  19507845.969   -21197540.960 8 -17983095.712 9
  21911390.090     2703383.172 5   3873030.285 2
  19874176.944   -36989064.998 8 -21013734.259 9
  20390234.195   -22560369.222 8 -17581207.290 7
  19415895.335   -24046229.817 8 -19887381.556 7
  21361021.473   -11356412.462 6  -4519245.333 5
  20539827.393   -34752871.388 7 -14371838.264 6
  21930125.320    -4290890.626 6 -10793576.781 4
 94  2 15  3 42 29.9960000  0  8  4  2  9 12 13  7 24  5
  19501372.431   -21231560.256 8 -18009604.258 9
  21922757.441     2763167.522 5   3919615.484 2
  19867539.119   -37023951.372 8 -21040918.435 9
  20376814.825   -22630894.424 8 -17636161.994 7
  19419196.770   -24028884.848 8 -19873865.995 7
  21372608.301   -11295522.530 6  -4471798.636 5
  20522096.348   -34846053.836 7 -14444447.929 6
  21912762.840    -4382162.627 6 -10864697.783 4
 94  2 15  3 42 59.9960000  0  8  4  2  9 12 13  7 24  5
  19495004.479   -21265022.449 8 -18035678.672 9
  21934197.281     2823243.979 5   3966428.286 2
  19861000.885   -37058302.265 8 -21067685.374 9
  20363469.204   -22701024.766 8 -17690809.003 7
  19422570.754   -24011134.850 8 -19860034.833 7
  21384199.477   -11234612.481 6  -4424336.262 5
  20504430.448   -34938891.472 7 -14516788.925 6
  21895397.901    -4473438.482 6 -10935821.786 4
 94  2 15  3 43 29.9960000  0  8  4  2  9 12 13  7 24  5
  19488743.074   -21297920.091 8 -18061313.150 9
  21945679.063     2883601.337 5   4013460.002 2
  19854573.095   -37092103.352 8 -21094023.874 9
  20350199.550   -22770753.809 8 -17745143.318 7
  19426029.250   -23992977.951 8 -19845886.587 7
  21395793.081   -11173676.842 6  -4376853.949 5
  20486832.091   -35031361.938 7 -14588843.826 6
  21878015.965    -4564708.143 6 -11006941.033 4
 94  2 15  3 43 59.9960000  0  8  4  2  9 12 13  7 24  5
  19482591.902   -21330254.611 8 -18086508.934 9
  21957209.710     2944206.852 5   4060684.998 2
  19848239.170   -37125350.582 8 -21119930.826 9
  20337006.134   -22840079.870 8 -17799163.646 7
  19429564.642   -23974417.111 8 -19831423.611 7
  21407399.546   -11112682.640 6  -4329326.011 5
  20469307.393   -35123461.747 7 -14660609.900 6
  21860654.234    -4655959.594 6 -11078045.989 4
 94  2 15  3 44 29.9950000  0  8  4  2  9 12 13  7 24  5
  19476547.217   -21362007.086 8 -18111251.065 9
  21968791.562     3005042.751 5   4108089.562 2
  19842024.862   -37158027.410 8 -21145393.266 9
  20323895.640   -22908995.574 8 -17852864.174 7
  19433167.338   -23955452.512 8 -19816645.984 7
  21419022.259   -11051619.354 6  -4281744.210 5
  20451859.053   -35215156.515 7 -14732060.343 6
  21843294.362    -4747181.385 6 -11149127.888 4
 94  2 15  3 44 59.9950000  0  8  4  2  9 12 13  7 24  5
  19470619.541   -21393165.062 8 -18135530.023 9
  21980407.291     3066102.317 5   4155668.478 2
  19835916.771   -37190119.416 8 -21170400.047 9
  20310856.706   -22977504.986 8 -17906248.130 7
  19436853.616   -23936087.047 8 -19801556.029 7
  21430657.385   -10990471.664 6  -4234096.704 5
  20434487.189   -35306436.790 7 -14803187.820 6
  21825943.484    -4838374.434 6 -11220187.396 4
 94  2 15  3 45 29.9950000  0  8  4  2  9 12 13  7 24  5
  19464805.935   -21423716.600 8 -18159336.407 9
  21992068.977     3127385.395 5   4203421.530 2
  19829923.919   -37221623.712 8 -21194948.848 9
  20297896.109   -23045600.054 8 -17959309.214 7
  19440614.153   -23916320.222 8 -19786153.304 7
  21442312.896   -10929218.163 6  -4186366.684 5
  20417194.500   -35397312.985 7 -14874000.406 6
  21808606.906    -4929510.834 6 -11291202.724 4
 94  2 15  3 45 59.9950000  0  8  4  2  9 12 13  7 24  5
  19459102.534   -21453670.351 8 -18182676.983 9
  22003783.518     3188898.624 5   4251353.934 2
  19824037.015   -37252553.325 8 -21219049.821 9
  20285018.914   -23113278.920 8 -18012045.972 7
  19444453.625   -23896154.911 8 -19770440.051 7
  21453990.771   -10867874.255 6  -4138566.209 5
  20399978.319   -35487790.689 7 -14944502.476 6
  21791284.418    -5020588.386 6 -11362172.206 4
 94  2 15  3 46 29.9950000  0  8  4  2  9 12 13  7 24  5
  19453521.327   -21483031.334 8 -18205555.659 9
  22015534.423     3250656.673 5   4299476.990 2
  19818258.095   -37282920.019 8 -21242712.199 9
  20272220.923   -23180542.689 8 -18064459.323 7
  19448362.739   -23875596.845 8 -19754420.806 7
  21465672.064   -10806456.778 6  -4090708.438 5
  20382834.178   -35577879.517 7 -15014701.564 6
  21773952.396    -5111612.714 6 -11433100.270 4
 94  2 15  3 46 59.9950000  0  8  4  2  9 12 13  7 24  5
  19448041.781   -21511823.881 8 -18227991.388 9
  22027328.738     3312659.156 5   4347790.614 2
  19812583.054   -37312737.399 8 -21265946.510 9
  20259502.258   -23247391.093 8 -18116548.975 7
  19452349.798   -23854650.366 8 -19738098.852 7
  21477377.191   -10744972.368 6  -4042798.532 4
  20365758.239   -35667611.858 7 -15084622.836 6
  21756634.106    -5202586.849 6 -11503989.140 4
 94  2 15  3 47 29.9950000  0  8  4  2  9 12 13  7 24  5
  19442663.654   -21540062.936 8 -18249995.862 9
  22039176.506     3374913.837 5   4396300.708 2
  19807019.416   -37342009.318 8 -21288755.791 9
  20246863.128   -23313815.502 8 -18168308.233 8
  19456413.905   -23833311.657 8 -19721471.271 7
  21489091.372   -10683419.110 6  -3994834.928 4
  20348751.133   -35756990.038 7 -15154268.144 6
  21739340.398    -5293503.166 6 -11574832.977 4
 94  2 15  3 47 59.9950000  0  8  4  2  9 12 13  7 24  5
  19437398.579   -21567746.251 8 -18271567.266 9
  22051055.812     3437404.269 5   4444994.455 2
  19801550.002   -37370728.373 8 -21311134.291 9
  20234302.184   -23379815.806 8 -18219737.066 7
  19460540.908   -23811585.157 8 -19704541.548 7
  21500811.668   -10621800.154 6  -3946820.175 4
  20331809.381   -35846006.774 7 -15223631.808 6
  21722038.566    -5384374.559 6 -11645641.880 4
 94  2 15  3 48 29.9950000  0  8  4  2  9 12 13  7 24  5
  19432238.671   -21594858.411 8 -18292693.625 9
  22063004.999     3500118.959 5   4493863.079 2
  19796188.634   -37398889.334 8 -21333077.892 9
  20221823.953   -23445391.271 8 -18270834.810 8
  19464759.258   -23789474.613 8 -19687312.547 7
  21512552.770   -10560101.413 6  -3898743.220 4
  20314940.060   -35934669.096 7 -15292719.312 6
  21704760.117    -5475206.622 6 -11716420.078 4
 94  2 15  3 48 59.9950000  0  8  4  2  9 12 13  7 24  5
  19427188.098   -21621387.166 8 -18313365.342 9
  22074978.470     3563045.072 5   4542896.455 2
  19790941.366   -37426491.364 8 -21354585.943 9
  20209423.817   -23510541.288 8 -18321601.026 8
  19469032.799   -23766984.554 8 -19669787.791 7
  21524309.820   -10498337.152 6  -3850615.199 4
  20298138.161   -36022967.829 7 -15361523.472 6
  21687496.059    -5566008.402 6 -11787174.658 4
 94  2 15  3 49 29.9950000  0  8  4  2  9 12 13  7 24  5
  19422259.989   -21647304.351 8 -18333560.562 9
  22086990.525     3626194.137 5   4592103.440 2
  19785798.577   -37453519.196 8 -21375646.627 9
  20197105.735   -23575256.635 8 -18372028.608 8
  19473388.154   -23744110.069 8 -19651963.544 7
  21536069.569   -10436509.981 6  -3802438.217 4
  20281408.663   -36110867.361 7 -15430016.631 6
  21670220.489    -5656773.066 6 -11857900.395 4
 94  2 15  3 49 59.9950000  0  8  4  2  9 12 13  7 24  5
  19417447.841   -21672603.330 8 -18353274.040 9
  22099048.777     3689559.251 5   4641478.777 2
  19780759.665   -37479983.928 8 -21396268.476 9
  20184872.673   -23639540.744 8 -18422120.093 8
  19477813.240   -23720859.510 8 -19633846.209 7
  21547849.464   -10374626.201 6  -3754217.052 4
  20264763.856   -36198352.941 7 -15498187.160 6
  21652941.740    -5747509.360 6 -11928603.954 4
 94  2 15  3 50 29.9950000  0  8  4  2  9 12 13  7 24  5
  19412746.555   -21697288.587 8 -18372509.286 9
  22111154.336     3753151.015 5   4691030.807 2
  19775831.227   -37505887.277 8 -21416452.894 9
  20172726.492   -23703389.876 8 -18471872.649 8
  19482306.380   -23697233.292 8 -19615436.161 7
  21559634.875   -10312693.220 6  -3705957.570 4
  20248195.556   -36285422.273 7 -15566033.367 6
  21635689.164    -5838203.862 6 -11999274.981 4
 94  2 15  3 50 59.9950000  0  8  4  2  9 12 13  7 24  5
  19408166.686   -21721364.374 8 -18391269.663 9
  22123296.351     3816986.846 5   4740772.980 2
  19771011.583   -37531212.291 8 -21436186.697 9
  20160656.668   -23766799.367 8 -18521282.670 8
  19486874.048   -23673231.637 8 -19596733.583 7
  21571428.861   -10250713.379 6  -3657661.616 4
  20231707.031   -36372066.831 7 -15633548.626 6
  21618436.798    -5928837.702 6 -12069898.772 4
 94  2 15  3 51 29.9950000  0  8  4  2  9 12 13  7 24  5
  19403695.551   -21744851.938 8 -18409571.648 9
  22135499.223     3881080.422 6   4790715.971 2
  19766301.934   -37555954.513 8 -21455466.354 9
  20148673.693   -23829769.913 8 -18570350.610 8
  19491511.987   -23648860.150 8 -19577742.810 7
  21583237.296   -10188662.770 6  -3609310.493 4
  20215299.240   -36458291.017 7 -15700736.263 7
  21601206.616    -6019409.821 6 -12140474.411 4
 94  2 15  3 51 59.9950000  0  8  4  2  9 12 13  7 24  5
  19399337.978   -21767756.541 8 -18427419.374 9
  22147742.987     3945435.023 5   4840862.456 2
  19761705.606   -37580104.592 8 -21474284.583 9
  20136778.348   -23892293.271 8 -18619070.105 8
  19496219.178   -23624114.782 8 -19558460.705 7
  21595057.033   -10126523.557 6  -3560890.329 4
  20198968.645   -36544094.598 7 -15767596.169 6
  21583986.897    -6109913.229 6 -12210996.529 4
 94  2 15  3 52 29.9950000  0  8  4  2  9 12 13  7 24  5
  19395088.719   -21790094.337 8 -18444825.442 9
  22160028.691     4010038.402 5   4891202.731 2
  19757225.747   -37603663.918 8 -21492642.508 9
  20124963.258   -23954376.687 8 -18667446.799 8
  19500999.099   -23599007.659 9 -19538896.706 7
  21606900.634   -10064314.855 6  -3512415.990 4
  20182718.095   -36629497.344 7 -15834143.755 6
  21566763.760    -6200357.652 6 -12281472.731 4
 94  2 15  3 52 59.9950000  0  8  4  2  9 12 13  7 24  5
  19390942.380   -21811868.465 8 -18461792.288 9
  22172380.740     4074902.346 5   4941745.979 2
  19752853.874   -37626641.571 8 -21510547.176 9
  20113233.728   -24016016.200 8 -18715477.589 8
  19505843.655   -23573539.444 8 -19519051.344 7
  21618749.871   -10002041.354 6  -3463891.219 4
  20166543.872   -36714485.178 7 -15900368.035 6
  21549570.003    -6290756.371 6 -12351913.254 4
 94  2 15  3 53 29.9950000  0  8  4  2  9 12 13  7 24  5
  19386906.994   -21833079.923 8 -18478320.697 9
  22184764.867     4140016.912 5   4992484.585 2
  19748590.136   -37649053.218 8 -21528010.795 9
  20101588.290   -24077205.001 8 -18763157.176 8
  19510762.950   -23547707.810 8 -19498922.788 7
  21630614.757    -9939707.149 6  -3415319.094 4
  20150456.889   -36799045.124 7 -15966258.893 6
  21532379.694    -6381125.033 6 -12422330.375 4
 94  2 15  3 53 59.9950000  0  8  4  2  9 12 13  7 24  5
  19382978.543   -21853727.448 8 -18494409.667 9
  22197207.123     4205355.137 5   5043397.436 2
  19744428.507   -37670917.111 8 -21545047.595 9
  20090030.301   -24137947.997 8 -18810489.373 8
  19515738.545   -23521522.389 8 -19478518.563 7
  21642477.485    -9877349.683 6  -3366728.849 4
  20134442.426   -36883192.333 7 -16031828.127 6
  21515180.121    -6471459.901 6 -12492721.181 4
 94  2 15  3 54 29.9950000  0  8  4  2  9 12 13  7 24  5
  19379160.836   -21873797.508 8 -18510048.664 9
  22209686.734     4270923.606 5   5094489.693 2
  19740371.685   -37692234.087 8 -21561658.226 9
  20078560.272   -24198237.354 8 -18857468.092 8
  19520797.093   -23494979.801 8 -19457836.032 7
  21654346.388    -9814971.037 6  -3318122.107 4
  20118510.465   -36966928.112 7 -16097076.777 6
  21498000.544    -6561747.826 6 -12563075.381 4
 94  2 15  3 54 59.9950000  0  8  4  2  9 12 13  7 24  5
  19375452.643   -21893278.459 8 -18525228.633 9
  22222206.367     4336721.860 4   5145761.062 2
  19736420.211   -37713000.645 8 -21577839.962 9
  20067173.135   -24258071.129 8 -18904091.817 8
  19525910.743   -23468082.883 8 -19436877.386 7
  21666228.872    -9752557.052 6  -3269487.842 4
  20102653.453   -37050255.483 7 -16162007.179 6
  21480830.441    -6651982.787 6 -12633388.341 4
 94  2 15  3 55 29.9950000  0  8  4  2  9 12 13  7 24  5
  19371859.301   -21912160.896 8 -18539942.207 9
  22234755.349     4402729.354 5   5197195.468 2
  19732570.216   -37733204.888 8 -21593583.545 9
  20055874.467   -24317449.828 8 -18950360.931 8
  19531096.913   -23440836.562 9 -19415646.477 7
  21678109.347    -9690099.824 6  -3220819.916 4
  20086867.221   -37133191.992 7 -16226633.015 7
  21463664.145    -6742151.060 6 -12703649.302 4
 94  2 15  3 55 59.9950000  0  8  4  2  9 12 13  7 24  5
  19368382.608   -21930435.040 8 -18554181.798 9
  22247361.712     4468949.479 5   5248795.468 2
  19728838.579   -37752831.896 8 -21608877.323 9
  20044658.212   -24376367.837 8 -18996271.071 8
  19536346.129   -23413239.922 8 -19394142.609 7
  21690005.172    -9627588.004 6  -3172109.389 4
  20071164.392   -37215729.598 7 -16290948.037 7
  21446528.187    -6832237.212 6 -12773846.302 4
 94  2 15  3 56 29.9950000  0  8  4  2  9 12 13  7 24  5
  19365018.846   -21948100.912 8 -18567947.420 9
  22260011.095     4535392.281 5   5300569.056 2
  19725214.898   -37771866.623 8 -21623709.579 9
  20033538.790   -24434820.683 8 -19041818.751 8
  19541667.895   -23385293.207 9 -19372365.953 7
  21701914.607    -9565007.027 6  -3123344.993 4
  20055537.141   -37297844.694 7 -16354933.806 7
  21429404.762    -6922246.241 6 -12843983.224 4
 94  2 15  3 56 59.9950000  0  8  4  2  9 12 13  7 24  5
  19361771.704   -21965165.161 8 -18581244.226 9
  22272699.151     4602055.730 5   5352514.611 2
  19721707.236   -37790307.461 8 -21638079.061 9
  20022502.470   -24492808.733 8 -19087004.238 8
  19547048.810   -23357001.006 8 -19350320.079 7
  21713836.664    -9502361.921 6  -3074530.633 4
  20039991.642   -37379519.027 7 -16418576.115 7
  21412286.642    -7012185.730 6 -12914065.911 4
 94  2 15  3 57 29.9950000  0  8  4  2  9 12 13  7 24  5
  19358643.700   -21981637.264 8 -18594079.626 9
  22285420.664     4668939.723 4   5404631.969 2
  19718306.031   -37808166.806 8 -21651995.435 9
  20011554.229   -24550333.953 8 -19131829.076 8
  19552504.613   -23328369.880 9 -19328010.112 7
  21725766.905    -9439673.375 6  -3025682.418 4
  20024537.611   -37460740.656 7 -16481865.691 7
  21395188.999    -7102065.757 6 -12984102.275 4
 94  2 15  3 57 59.9950000  0  8  4  2  9 12 13  7 24  5
  19355613.068   -21997527.520 8 -18606461.636 9
  22298185.947     4736060.303 4   5456933.656 2
  19715022.224   -37825447.742 8 -21665461.106 9
  20000697.995   -24607393.221 8 -19176290.855 8
  19558008.622   -23299401.488 9 -19305437.340 7
  21737693.698    -9376956.674 6  -2976812.271 4
  20009172.318   -37541489.326 7 -16544786.715 7
  21378091.145    -7191886.544 6 -13054092.511 4
 94  2 15  3 58 29.9950000  0  8  4  2  9 12 13  7 24  5
  19352701.693   -22012838.637 8 -18618392.363 9
  22311007.261     4803422.728 4   5509423.844 2
  19711840.916   -37842144.421 8 -21678471.519 9
  19989929.390   -24663984.549 8 -19220387.990 8
  19563587.130   -23270098.313 9 -19282603.686 7
  21749639.048    -9314217.971 6  -2927924.958 4
  19993894.265   -37621779.284 7 -16607350.309 7
  21361010.290    -7281645.643 6 -13124034.646 4
 94  2 15  3 58 59.9950000  0  8  4  2  9 12 13  7 24  5
  19349899.683   -22027567.970 8 -18629869.753 9
  22323868.747     4871023.806 5   5562099.982 2
  19708776.798   -37858260.266 8 -21691029.298 9
  19979248.984   -24720103.530 8 -19264117.035 8
  19569229.524   -23240460.378 9 -19259509.175 7
  21761585.568    -9251455.662 6  -2879019.251 4
  19978698.385   -37701623.521 7 -16669566.567 7
  21343943.016    -7371342.639 6 -13193928.373 4
 94  2 15  3 59 29.9950000  0  8  4  2  9 12 13  7 24  5
  19347203.979   -22041721.269 8 -18640898.304 9
  22336793.370     4938860.325 5   5614959.526 2
  19705823.422   -37873782.845 8 -21703124.828 9
  19968658.306   -24775747.776 8 -19307476.220 8
  19574930.618   -23210489.950 9 -19236155.613 7
  21773526.241    -9188663.863 6  -2830090.589 4
  19963587.916   -37781034.251 7 -16731445.065 7
  21326878.619    -7460973.362 6 -13263770.533 4
 94  2 15  3 59 59.9950000  0  8  4  2  9 12 13  7 24  5
  19344622.257   -22055299.001 8 -18651478.340 9
  22349735.320     5006922.566 5   5667995.068 2
  19702981.150   -37888705.775 7 -21714753.082 9
  19958161.702   -24830913.106 8 -19350462.166 8
  19580693.888   -23180186.997 9 -19212542.908 7
  21785487.301    -9125834.382 6  -2781132.551 4
  19948558.091   -37860017.653 7 -16792990.555 7
  21309840.814    -7550530.245 6 -13333555.053 4
 94  2 15  4  0 29.9950000  0  8  4  2  9 12 13  7 24  5
  19342148.939   -22068293.451 8 -18661603.887 9
  22362731.443     5075198.646 4   5721197.244 2
  19700256.246   -37903038.069 7 -21725921.115 9
  19947758.394   -24885602.714 8 -19393077.453 8
  19586527.549   -23149559.460 9 -19188677.313 7
  21797449.260    -9062956.128 6  -2732136.525 4
  19933609.329   -37938585.238 7 -16854212.017 7
  21292807.296    -7640020.387 6 -13403287.654 5
 94  2 15  4  0 59.9950000  0  8  4  2  9 12 13  7 24  5
  19339784.925   -22080702.137 8 -18671272.990 9
  22375760.873     5143688.485 4   5774565.880 2
  19697639.178   -37916790.819 8 -21736637.558 9
  19937442.596   -24939810.959 8 -19435317.655 8
  19592414.304   -23118606.163 8 -19164557.861 7
  21809430.286    -9000027.942 6  -2683101.613 4
  19918738.484   -38016722.688 7 -16915098.361 7
  21275793.655    -7729445.109 7 -13472969.255 5
 94  2 15  4  1 29.9950000  0  8  4  2  9 12 13  7 24  5
  19337534.084   -22092521.453 8 -18680482.850 9
  22388838.719     5212397.723 4   5828105.445 2
  19695132.194   -37929961.999 8 -21746900.815 9
  19927219.973   -24993532.120 8 -19477178.299 8
  19598369.891   -23087326.001 9 -19140183.710 7
  21821405.645    -8937058.407 6  -2634034.459 4
  19903956.048   -38094411.823 7 -16975635.330 7
  21258788.527    -7818787.476 6 -13542586.673 5
 94  2 15  4  1 59.9950000  0  8  4  2  9 12 13  7 24  5
  19335398.482   -22103753.612 8 -18689235.176 9
  22401959.196     5281323.846 5   5881814.102 2
  19692731.426   -37942578.237 8 -21756731.671 9
  19917089.566   -25046769.047 8 -19518661.624 8
  19604383.907   -23055726.170 9 -19115560.468 7
  21833398.483    -8874059.020 6  -2584943.999 4
  19889255.035   -38171653.411 7 -17035823.564 7
  21241809.032    -7908047.568 7 -13612139.999 5
 94  2 15  4  2 29.9950000  0  8  4  2  9 12 13  7 24  5
  19333372.335   -22114403.387 8 -18697533.696 9
  22415116.068     5350470.231 5   5935694.323 2
  19690430.009   -37954653.521 7 -21766140.975 9
  19907054.253   -25099520.895 8 -19559766.970 8
  19610452.186   -23023810.019 9 -19090690.724 7
  21845388.652    -8811038.190 6  -2535836.834 4
  19874643.720   -38248442.675 7 -17095659.344 7
  21224840.988    -7997227.094 7 -13681630.492 5
 94  2 15  4  2 59.9950000  0  8  4  2  9 12 13  7 24  5
  19331454.023   -22124480.635 8 -18705386.095 9
  22428313.562     5419835.105 5   5989744.828 2
  19688242.124   -37966177.784 8 -21775120.927 9
  19897107.199   -25151781.769 8 -19600489.728 8
  19616593.525   -22991576.477 9 -19065573.702 7
  21857387.515    -8748004.983 6  -2486720.073 4
  19860115.448   -38324773.157 7 -17155137.628 7
  21207884.757    -8086318.922 7 -13751052.712 5
 94  2 15  4  3 29.9950000  0  8  4  2  9 12 13  7 24  5
  19329647.264   -22133982.399 8 -18712790.055 9
  22441559.622     5489427.462 4   6043972.671 2
  19686156.348   -37977138.447 7 -21783661.713 9
  19887255.899   -25203548.032 8 -19640827.076 8
  19622781.181   -22959026.008 9 -19040209.691 7
  21869384.880    -8684952.777 6  -2437588.484 3
  19845680.801   -38400636.677 7 -17214252.048 7
  21190952.239    -8175310.124 7 -13820396.501 5
 94  2 15  4  3 59.9950000  0  8  4  2  9 12 13  7 24  5
  19327947.800   -22142914.587 8 -18719750.201 9
  22454837.370     5559253.428 4   6098382.495 2
  19684177.178   -37987540.626 8 -21791767.312 9
  19877495.706   -25254820.705 8 -19680779.802 8
  19629034.972   -22926164.203 9 -19014603.084 7
  21881385.302    -8621867.065 5  -2388430.778 3
  19831328.747   -38476056.008 7 -17273020.339 8
  21174033.691    -8264205.505 7 -13889665.610 5
 94  2 15  4  4 29.9950000  0  8  4  2  9 12 13  7 24  5
  19326357.251   -22151273.181 8 -18726263.375 9
  22468180.472     5629325.463 5   6152983.996 2
  19682306.173   -37997361.666 7 -21799420.065 9
  19867836.573   -25305594.819 8 -19720344.043 8
  19635350.969   -22892990.495 9 -18988753.431 7
  21893402.273    -8558742.549 6  -2339242.794 4
  19817061.983   -38551038.403 7 -17331448.142 8
  21157135.440    -8353005.102 7 -13958860.091 5
 94  2 15  4  4 59.9950000  0  8  4  2  9 12 13  7 24  5
  19324870.640   -22159061.611 8 -18732332.288 9
  22481564.167     5699647.247 4   6207780.154 2
  19680547.081   -38006588.556 7 -21806609.863 9
  19858268.547   -25355873.288 8 -19759522.079 8
  19641722.998   -22859512.032 9 -18962666.326 7
  21905421.103    -8495570.721 6  -2290018.025 3
  19802874.995   -38625588.277 7 -17389538.950 8
  21140250.859    -8441707.825 7 -14027979.096 5
 94  2 15  4  5 29.9950000  0  8  4  2  9 12 13  7 24  5
  19323500.769   -22166279.907 8 -18737956.938 9
  22494990.192     5770221.677 4   6262773.234 2
  19678906.886   -38015230.667 8 -21813343.990 9
  19848792.047   -25405649.714 8 -19798308.907 8
  19648148.240   -22825726.819 8 -18936340.195 7
  21917454.772    -8432339.825 6  -2240747.234 3
  19788771.289   -38699706.387 7 -17447293.339 8
  21123396.977    -8530322.167 7 -14097029.218 5
 94  2 15  4  5 59.9950000  0  8  4  2  9 12 13  7 24  5
  19322235.525   -22172926.208 8 -18743135.852 9
  22508464.754     5841044.234 4   6317959.655 2
  19677369.521   -38023300.097 7 -21819631.844 9
  19839418.616   -25454918.828 8 -19836700.414 8
  19654636.528   -22791634.078 8 -18909774.410 7
  21929493.897    -8369050.619 6  -2191430.932 3
  19774752.214   -38773388.149 7 -17504707.665 8
  21106542.195    -8618863.853 7 -14166022.722 5
 94  2 15  4  6 29.9950000  0  8  4  2  9 12 13  7 24  5
  19321080.334   -22178998.510 8 -18747867.518 9
  22521984.974     5912084.503 4   6373315.634 2
  19675944.967   -38030796.772 8 -21825473.416 9
  19830143.218   -25503685.769 8 -19874700.641 8
  19661176.261   -22757242.991 8 -18882976.158 7
  21941546.214    -8305717.712 6  -2142080.587 3
  19760817.621   -38846599.741 7 -17561755.652 7
  21089711.457    -8707349.232 7 -14234972.364 5
 94  2 15  4  6 59.9950000  0  8  4  2  9 12 13  7 24  5
  19320033.609   -22184489.587 8 -18752146.279 9
  22535541.979     5983320.004 4   6428823.764 2
  19674625.310   -38037724.354 8 -21830871.557 9
  19820959.016   -25551945.582 8 -19912305.694 8
  19667776.192   -22722553.093 8 -18855945.084 7
  21953608.033    -8242338.869 6  -2092694.507 3
  19746981.869   -38919310.602 7 -17618413.460 7
  21072879.939    -8795777.055 7 -14303877.143 5
 94  2 15  4  7 29.9950000  0  8  4  2  9 12 13  7 24  5
  19319100.805   -22189388.416 8 -18755963.561 9
  22549134.449     6054742.506 4   6484477.632 2
  19673414.658   -38044092.602 8 -21835833.841 9
  19811871.527   -25599700.049 8 -19949516.967 8
  19674437.700   -22687570.529 8 -18828685.943 7
  21965675.309    -8178932.787 6  -2043287.170 3
  19733238.004   -38991524.862 7 -17674684.313 7
  21056070.126    -8884146.508 7 -14372736.469 5
 94  2 15  4  7 59.9950000  0  8  4  2  9 12 13  7 24  5
  19318285.699   -22193674.777 8 -18759303.566 9
  22562765.413     6126358.741 4   6540282.410 2
  19672310.793   -38049880.985 7 -21840344.283 9
  19802879.102   -25646945.416 8 -19986331.551 8
  19681152.961   -22652295.633 8 -18801199.006 7
  21977741.296    -8115500.651 6  -1993859.546 3
  19719591.421   -39063232.095 7 -17730560.049 7
  21039252.309    -8972433.312 7 -14441531.355 5
 94  2 15  4  8 29.9950000  0  8  4  2  9 12 13  7 24  5
  19317589.161   -22197347.237 8 -18762165.217 9
  22576426.535     6198167.918 4   6596237.596 2
  19671325.315   -38055067.465 7 -21844385.701 9
  19793981.292   -25693677.747 8 -20022746.358 8
  19687920.656   -22616728.795 8 -18773484.589 7
  21989818.615    -8052040.849 6  -1944410.327 3
  19706042.960   -39134444.162 7 -17786049.971 7
  21022484.017    -9060611.751 7 -14510241.817 5
 94  2 15  4  8 59.9950000  0  8  4  2  9 12 13  7 24  5
  19317005.495   -22200422.933 8 -18764561.859 9
  22590132.387     6270192.476 5   6652360.623 2
  19670448.962   -38059657.436 7 -21847962.297 9
  19785186.191   -25739895.956 8 -20058760.528 8
  19694745.551   -22580873.497 8 -18745545.390 7
  22001892.337    -7988564.134 6  -1894947.946 3
  19692581.110   -39205192.591 7 -17841178.608 7
  21005730.355    -9148681.624 7 -14578867.694 5
 94  2 15  4  9 29.9950000  0  8  4  2  9 12 13  7 24  5
  19316530.624   -22202914.033 8 -18766502.974 9
  22603879.610     6342451.454 5   6708666.204 1
  19669689.228   -38063655.196 7 -21851077.451 9
  19776494.907   -25785597.426 8 -20094372.092 8
  19701625.608   -22544731.006 8 -18717382.400 7
  22013981.048    -7925075.191 6  -1845476.069 3
  19679202.542   -39275489.670 7 -17895955.541 7
  20988987.456    -9236634.583 7 -14647402.450 6
 94  2 15  4  9 59.9950000  0  8  4  2  9 12 13  7 24  5
  19316159.361   -22204843.115 8 -18768006.157 9
  22617670.453     6414939.473 5   6765150.368 2
  19669045.183   -38067053.186 8 -21853725.248 9
  19767896.440   -25830780.962 8 -20129580.033 8
  19708551.534   -22508304.260 8 -18688997.936 7
  22026064.873    -7861565.923 6  -1795988.313 3
  19665911.633   -39345323.719 7 -17950371.672 7
  20972267.731    -9324479.180 7 -14715852.770 6
 94  2 15  4 10 29.9950000  0  8  4  2  9 12 13  7 24  5
  19315902.139   -22206221.601 8 -18769080.288 9
  22631510.761     6487661.838 5   6821817.149 2
  19668512.722   -38069860.660 8 -21855912.885 9
  19759400.682   -25875444.193 8 -20164382.545 8
  19715536.818   -22471595.225 8 -18660393.496 6
  22038151.965    -7798049.086 6  -1746494.672 3
  19652716.208   -39414686.605 7 -18004420.653 7
  20955578.495    -9412229.650 7 -14784229.785 6
 94  2 15  4 10 59.9950000  0  8  4  2  9 12 13  7 24  5
  19315744.179   -22207039.968 8 -18769717.983 9
  22645400.026     6560629.947 4   6878675.291 1
  19668086.357   -38072090.107 7 -21857650.146 9
  19751000.167   -25919584.726 8 -20198777.787 8
  19722575.435   -22434605.527 8 -18631570.349 6
  22050249.250    -7734520.714 6  -1696992.046 3
  19639607.123   -39483561.307 7 -18058089.268 7
  20938885.661    -9499886.855 7 -14852534.080 6
 94  2 15  4 11 29.9950000  0  8  4  2  9 12 13  7 24  5
  19315699.090   -22207281.850 8 -18769906.449 9
  22659327.844     6633837.889 4   6935720.454 1
  19667770.676   -38073740.751 7 -21858936.350 9
  19742696.845   -25963198.477 8 -20232762.522 8
  19729669.454   -22397335.308 8 -18602528.608 6
  22062338.291    -7670971.320 5  -1647473.080 3
  19626592.713   -39551941.046 7 -18111372.169 7
  20922227.633    -9587426.418 7 -14920746.720 6
 94  2 15  4 11 59.9950000  0  8  4  2  9 12 13  7 24  5
  19315766.963   -22206941.490 8 -18769641.236 9
  22673309.624     6707283.236 4   6992950.478 1
  19667565.917   -38074810.991 7 -21859770.325 9
  19734497.192   -26006287.220 8 -20266338.162 8
  19736812.969   -22359790.730 8 -18573273.101 6
  22074435.696    -7607403.196 5  -1597939.456 3
  19613678.763   -39619827.991 7 -18164271.091 7
  20905596.167    -9674853.644 7 -14988871.831 6
 94  2 15  4 12 29.9950000  0  8  4  2  9 12 13  7 24  5
  19315938.864   -22206012.407 8 -18768917.284 9
  22687331.727     6780975.484 4   7050372.898 1
  19667473.192   -38075307.462 8 -21860157.188 8
  19726398.778   -26048845.904 8 -20299500.797 8
  19744011.585   -22321970.540 8 -18543802.837 6
  22086537.508    -7543813.824 5  -1548389.274 3
  19600848.755   -39687238.668 7 -18216798.873 7
  20888984.577    -9762161.810 7 -15056904.185 6
 94  2 15  4 12 59.9950000  0  8  4  2  9 12 13  7 24  5
  19316227.204   -22204504.380 8 -18767742.184 9
  22701396.910     6854894.816 5   7107972.377 1
  19667488.451   -38075232.511 7 -21860098.788 8
  19718397.408   -26090872.220 8 -20332248.563 8
  19751258.648   -22283876.745 8 -18514119.333 6
  22098648.824    -7480187.419 5  -1498810.273 3
  19588111.173   -39754185.349 7 -18268965.107 7
  20872393.762    -9849343.846 7 -15124838.233 6
 94  2 15  4 13 29.9950000  0  8  4  2  9 12 13  7 24  5
  19316619.033   -22202442.411 8 -18766135.453 9
  22715505.863     6929031.514 5   7165741.154 1
  19667607.709   -38074579.808 8 -21859590.208 8
  19710503.962   -26132366.725 8 -20364581.947 8
  19758558.924   -22245513.790 8 -18484226.140 6
  22110754.593    -7416529.832 5  -1449206.989 3
  19575457.413   -39820673.472 7 -18320774.016 7
  20855822.584    -9936411.893 7 -15192683.450 6
 94  2 15  4 13 59.9950000  0  8  4  2  9 12 13  7 24  5
  19317115.489   -22199845.545 8 -18764111.927 9
  22729651.600     7003378.469 5   7223673.756 1
  19667848.832   -38073345.130 7 -21858628.137 8
  19702714.245   -26173328.258 8 -20396500.051 8
  19765908.906   -22206884.695 8 -18454125.538 6
  22122874.573    -7352846.591 5  -1399583.698 3
  19562889.693   -39886701.005 7 -18372224.051 7
  20839273.891   -10023382.667 7 -15260452.878 6
 94  2 15  4 14 29.9950000  0  8  4  2  9 12 13  7 24  5
  19317712.196   -22196710.610 8 -18761669.100 9
  22743830.074     7077918.840 4   7281757.198 1
  19668192.244   -38071533.488 7 -21857216.466 8
  19695020.071   -26213753.245 8 -20428000.039 8
  19773310.032   -22167989.843 8 -18423817.863 6
  22135000.338    -7289137.684 5  -1349940.371 3
  19550415.869   -39952270.111 7 -18423316.835 7
  20822744.774   -10110243.356 7 -15328136.549 6
 94  2 15  4 14 59.9950000  0  8  4  2  9 12 13  7 24  5
  19318413.920   -22193021.181 8 -18758794.238 9
  22758060.383     7152641.514 3   7339982.613 1
  19668646.789   -38069143.833 7 -21855354.421 8
  19687429.176   -26253637.608 8 -20459078.773 9
  19780762.273   -22128829.130 8 -18393303.021 6
  22147127.543    -7225405.085 5  -1300278.617 3
  19538032.192   -40017358.156 7 -18474034.799 8
  20806239.250   -10196981.521 7 -15395724.715 6
 94  2 15  4 15 29.9950000  0  8  4  2  9 12 13  7 24  5
  19319221.411   -22188763.677 8 -18755476.674 9
  22772310.178     7227554.136 3   7398355.938 1
  19669210.579   -38066183.531 7 -21853047.706 8
  19679938.862   -26292987.839 8 -20489741.302 9
  19788264.759   -22089412.946 8 -18362589.110 6
  22159252.948    -7161665.697 5  -1250611.569 3
  19525735.215   -40081961.999 7 -18524375.448 8
  20789749.466   -10283598.361 7 -15463218.368 6
 94  2 15  4 15 59.9950000  0  8  4  2  9 12 13  7 24  5
  19320147.290   -22183908.514 8 -18751693.431 9
  22786608.959     7302649.302 4   7456871.524 1
  19669882.384   -38062662.547 7 -21850304.091 8
  19672553.475   -26331797.148 8 -20519982.315 9
  19795817.341   -22049738.565 9 -18331673.990 6
  22171374.247    -7097913.287 5  -1200934.389 3
  19513538.908   -40146062.910 7 -18574324.197 8
  20773296.976   -10370081.250 7 -15530607.628 6
 94  2 15  4 16 29.9950000  0  8  4  2  9 12 13  7 24  5
  19321186.791   -22178441.130 8 -18747433.125 9
  22800929.325     7377930.929 4   7515532.438 1
  19670654.769   -38058587.280 7 -21847128.552 8
  19665274.394   -26370063.742 8 -20549800.440 9
  19803415.281   -22009808.383 9 -18300559.572 6
  22183515.482    -7034143.151 5  -1151243.369 3
  19501439.404   -40209640.595 7 -18623865.266 8
  20756864.692   -10456420.315 7 -15597884.795 6
 94  2 15  4 16 59.9950000  0  8  4  2  9 12 13  7 24  5
  19322349.356   -22172366.245 8 -18742699.440 9
  22815291.003     7453419.889 4   7574355.003 1
  19671537.868   -38053953.907 7 -21843518.150 8
  19658097.482   -26407784.325 8 -20579193.114 9
  19811060.348   -21969622.701 8 -18269246.043 6
  22195662.952    -6970351.546 5  -1101535.630 3
  19489445.368   -40272674.725 7 -18672982.735 8
  20740465.894   -10542623.085 7 -15665055.803 6
 94  2 15  4 17 29.9950000  0  8  4  2  9 12 13  7 24  5
  19323608.005   -22165714.847 8 -18737516.530 9
  22829695.641     7529124.450 5   7633345.379 1
  19672524.814   -38048762.097 7 -21839472.594 8
  19651023.789   -26444962.786 8 -20608163.333 9
  19818754.162   -21929189.318 8 -18237739.508 6
  22207806.346    -6906549.879 6  -1051820.049 3
  19477552.031   -40335173.082 7 -18721682.723 8
  20724093.089   -10628695.874 7 -15732125.487 6
 94  2 15  4 17 59.9950000  0  8  4  2  9 12 13  7 24  5
  19324983.692   -22158503.705 8 -18731897.465 9
  22844150.254     7605046.605 5   7692505.482 1
  19673618.307   -38043011.967 7 -21834992.001 8
  19644051.816   -26481593.253 8 -20636706.560 9
  19826494.983   -21888506.394 8 -18206038.532 6
  22219947.730    -6842730.759 5  -1002090.868 3
  19465759.605   -40397133.698 7 -18769963.720 8
  20707732.725   -10714631.120 7 -15799088.039 6
 94  2 15  4 18 29.9950000  0  8  4  2  9 12 13  7 24  5
  19326458.101   -22150750.624 8 -18725856.095 9
  22858638.924     7681195.113 4   7751842.083 1
  19674818.197   -38036700.649 7 -21830074.078 8
  19637182.431   -26517674.463 8 -20664821.792 9
  19834281.673   -21847576.444 8 -18174145.058 6
  22232097.239    -6778896.586 5   -952349.923 3
  19454068.359   -40458579.332 7 -18817843.431 8
  20691406.837   -10800428.693 7 -15865943.285 6
 94  2 15  4 18 59.9950000  0  8  4  2  9 12 13  7 24  5
  19328032.971   -22142459.633 8 -18719395.589 9
  22873162.519     7757561.692 4   7811348.427 1
  19676125.502   -38029831.642 7 -21824721.628 8
  19630423.101   -26553205.823 8 -20692508.577 9
  19842124.213   -21806402.698 9 -18142061.616 6
  22244239.044    -6715051.399 5   -902600.449 3
  19442466.211   -40519535.712 7 -18865341.905 8
  20675095.849   -10886098.374 7 -15932698.869 6
 94  2 15  4 19 29.9950000  0  8  4  2  9 12 13  7 24  5
  19329712.648   -22133622.742 8 -18712509.692 9
  22887737.019     7834135.376 4   7871016.184 1
  19677540.942   -38022399.123 7 -21818930.067 8
  19623765.999   -26588181.941 8 -20719762.690 9
  19850003.089   -21764983.339 8 -18109786.790 6
  22256396.078    -6651186.315 5   -852835.503 3
  19430962.185   -40580015.031 7 -18912468.623 8
  20658829.350   -10971631.712 7 -15999348.226 6
 94  2 15  4 19 59.9950000  0  8  4  2  9 12 13  7 24  5
  19331502.319   -22124224.712 8 -18705186.564 9
  22902346.715     7910904.912 4   7930836.707 1
  19679060.320   -38014408.760 7 -21812703.831 8
  19617217.483   -26622601.929 8 -20746583.475 9
  19857929.721   -21723321.536 8 -18077323.059 6
  22268553.022    -6587289.160 5   -803045.490 3
  19419541.621   -40640027.152 7 -18959231.307 8
  20642574.423   -11057041.080 7 -16065900.987 6
 94  2 15  4 20 29.9950000  0  8  4  2  9 12 13  7 24  5
  19333398.896   -22114257.032 8 -18697419.525 9
  22916995.534     7987868.220 4   7990808.147 1
  19680689.932   -38005849.363 7 -21806034.181 8
  19610776.232   -26656464.748 8 -20772970.085 9
  19865900.483   -21681420.030 8 -18044672.539 6
  22280721.657    -6523362.946 5   -753232.806 3
  19408209.616   -40699569.920 7 -19005628.262 8
  20626338.353   -11142335.436 7 -16132364.114 6
 94  2 15  4 20 59.9950000  0  8  4  2  9 12 13  7 24  5
  19335409.545   -22103709.376 8 -18689200.566 9
  22931681.647     8065031.349 4   8050935.327 1
  19682429.837   -37996706.098 7 -21798909.560 8
  19604435.682   -26689769.854 8 -20798922.111 9
  19873919.842   -21639281.863 8 -18011837.584 6
  22292882.049    -6459406.462 5   -703396.583 2
  19396972.315   -40758623.465 7 -19051644.014 8
  20610130.613   -11227507.918 7 -16198732.264 6
 94  2 15  4 21 29.9950000  0  8  4  2  9 12 13  7 24  5
  19337522.092   -22092591.549 8 -18680537.322 9
  22946396.900     8142403.041 4   8111224.916 1
  19684284.443   -37986971.486 7 -21791324.154 8
  19598204.166   -26722514.187 8 -20824437.178 9
  19881980.451   -21596907.765 8 -17978818.804 6
  22305064.835    -6395425.321 5   -653541.166 2
  19385831.218   -40817167.873 8 -19097263.003 8
  20593949.915   -11312548.445 7 -16264997.599 6
 94  2 15  4 21 59.9950000  0  8  4  2  9 12 13  7 24  5
  19339749.460   -22080898.034 8 -18671425.475 9
  22961171.871     8220000.762 4   8171690.698 1
  19686249.613   -37976639.219 7 -21783273.038 8
  19592083.453   -26754691.635 8 -20849510.520 9
  19890097.272   -21554295.222 8 -17945614.222 6
  22317252.148    -6331425.461 5   -603671.171 2
  19374789.442   -40875180.956 7 -19142467.975 9
  20577794.969   -11397445.932 7 -16331151.487 6
 94  2 15  4 22 29.9950000  0  8  4  2  9 12 13  7 24  5
  19342083.344   -22068640.427 8 -18661874.093 9
  22975982.458     8297818.572 5   8232327.887 1
  19688324.027   -37965711.266 7 -21774757.780 8
  19586065.089   -26786306.670 8 -20874145.613 9
  19898249.019   -21511452.339 8 -17912230.169 6
  22329419.704    -6267421.372 5   -553797.817 3
  19363852.354   -40932653.716 8 -19187251.935 9
  20561669.792   -11482187.889 7 -16397184.187 6
 94  2 15  4 22 59.9950000  0  8  4  2  9 12 13  7 24  5
  19344522.096   -22055825.261 8 -18651888.261 9
  22990829.230     8375848.227 5   8293130.302 1
  19690522.105   -37954192.339 7 -21765781.992 8
  19580153.512   -26817353.834 8 -20898338.213 9
  19906442.137   -21468377.361 8 -17878665.231 6
  22341607.737    -6203407.617 5   -503916.988 2
  19353018.304   -40989583.737 7 -19231612.988 9
  20545580.231   -11566767.604 7 -16463090.448 7
 94  2 15  4 23 29.9950000  0  8  4  2  9 12 13  7 24  5
  19347060.649   -22042470.281 8 -18641481.779 9
  23005711.258     8454078.721 4   8354089.073 1
  19692821.963   -37942092.363 7 -21756353.455 8
  19574353.697   -26847830.100 8 -20922085.951 9
  19914685.950   -21425070.882 8 -17844919.935 6
  22353789.294    -6139383.203 5   -454027.878 2
  19342289.781   -41045980.241 8 -19275558.318 9
  20529508.447   -11651192.692 7 -16528876.232 7
 94  2 15  4 23 59.9950000  0  8  4  2  9 12 13  7 24  5
  19349704.698   -22028575.254 8 -18630654.492 9
  23020628.960     8532508.299 3   8415203.001 1
  19695234.213   -37929420.796 7 -21746479.523 8
  19568668.912   -26877737.088 8 -20945390.119 9
  19922970.954   -21381538.028 8 -17810998.237 6
  22365979.365    -6075338.117 5   -404122.655 2
  19331657.102   -41101865.280 8 -19319105.099 9
  20513471.979   -11735462.432 7 -16594540.976 6
 94  2 15  4 24 29.9950000  0  7  4  9 12 13  7 24  5
  19352446.030   -22014158.140 8 -18619420.366 9
  19697750.371   -37916194.073 7 -21736173.006 8
  19563084.259   -26907075.830 8 -20968251.472 9
  19931296.491   -21337783.319 8 -17776903.661 6
  22378167.757    -6011277.177 5   -354204.981 2
  19321113.731   -41157255.264 8 -19362266.123 9
  20497467.079   -11819584.348 7 -16660090.497 7
 94  2 15  4 24 59.9950000  0  7  4  9 12 13  7 24  5
  19355290.101   -21999215.840 8 -18607776.998 9
  19700372.056   -37902419.941 7 -21725439.884 8
  19557610.738   -26935841.818 8 -20990666.505 9
  19939664.567   -21293805.968 8 -17742635.573 6
  22390355.849    -5947209.542 5   -304282.101 2
  19310665.454   -41212154.980 8 -19405045.069 9
  20481488.261   -11903557.406 7 -16725524.031 7
 94  2 15  4 25 29.9950000  0  7  4  9 12 13  7 24  5
  19358239.460   -21983740.373 8 -18595718.190 9
  19703096.000   -37888103.338 7 -21714284.101 8
  19552241.905   -26964033.780 8 -21012634.260 9
  19948071.797   -21249607.964 8 -17708195.569 6
  22402543.792    -5883136.888 5   -254355.421 2
  19300314.610   -41266558.888 7 -19447437.733 9
  20465542.450   -11987368.391 7 -16790831.285 7
 94  2 15  4 25 59.9950000  0  7  4  9 12 13  7 24  5
  19361281.634   -21967732.367 8 -18583244.416 9
  19705919.776   -37873252.694 7 -21702712.190 8
  19546986.033   -26991655.040 8 -21034157.344 9
  19956527.683   -21205196.182 8 -17673588.992 6
  22414743.006    -5819071.649 5   -204434.431 2
  19290056.522   -41320464.046 8 -19489441.739 9
  20449619.693   -12071009.360 7 -16856006.065 7
 94  2 15  4 26 29.9950000  0  7  4  9 12 13  7 24  5
  19364432.183   -21951179.901 8 -18570346.396 9
  19708853.155   -37857853.207 7 -21690712.582 8
  19541842.284   -27018698.819 8 -21055230.410 9
  19965014.898   -21160567.302 8 -17638813.238 6
  22426926.482    -5755019.178 5   -154523.378 2
  19279898.714   -41373846.329 7 -19531038.328 9
  20433739.626   -12154473.627 7 -16921043.155 7
 94  2 15  4 26 59.9950000  0  7  4  9 12 13  7 24  5
  19367687.509   -21934074.335 8 -18557017.401 9
  19711888.823   -37841899.141 7 -21678280.891 8
  19536808.199   -27045166.109 8 -21075854.300 9
  19973549.210   -21115725.538 8 -17603871.644 6
  22439121.050    -5690961.967 5   -104608.697 2
  19269838.279   -41426703.955 7 -19572226.095 9
  20417890.738   -12237758.101 7 -16985940.175 7
 94  2 15  4 27 29.9950000  0  7  4  9 12 13  7 24  5
  19371047.223   -21916418.398 8 -18543259.494 9
  19715027.770   -37825386.157 7 -21665413.615 8
  19531880.840   -27071054.867 8 -21096027.348 9
  19982128.041   -21070672.372 8 -17568765.252 6
  22451313.909    -5626879.077 5    -54674.050 2
  19259881.661   -41479034.409 8 -19613003.018 9
  20402076.237   -12320862.375 7 -17050696.722 7
 94  2 15  4 27 59.9950000  0  7  4  9 12 13  7 24  5
  19374515.402   -21898207.506 8 -18529069.183 9
  19718281.238   -37808321.151 7 -21652116.222 8
  19527060.717   -27096369.135 8 -21115752.741 9
  19990735.742   -21025415.195 8 -17533499.922 6
  22463511.385    -5562772.948 5     -4721.211 2
  19250021.517   -41530844.616 7 -19653374.625 9
  20386294.592   -12403803.570 7 -17115326.226 7
 94  2 15  4 28 29.9950000  0  7  4  9 12 13  7 24  5
  19378086.920   -21879425.837 8 -18514434.122 9
  19721637.534   -37790702.481 8 -21638387.405 8
  19522353.106   -27121104.964 8 -21135027.415 9
  19999386.103   -20979953.507 8 -17498075.221 6
  22475721.242    -5498626.276 5     45263.301 2
  19240265.641   -41582127.362 7 -19693335.196 9
  20370541.578   -12486590.053 7 -17179835.162 7
 94  2 15  4 28 59.9950000  0  7  4  9 12 13  7 24  5
  19381767.771   -21860078.041 8 -18499357.936 9
  19725090.574   -37772532.177 8 -21624228.760 8
  19517756.928   -27145258.018 8 -21153848.016 9
  20008077.836   -20934285.959 8 -17462490.139 6
  22487937.695    -5434433.311 5     95283.748 2
  19230607.348   -41632884.233 7 -19732885.993 9
  20354814.765   -12569225.054 7 -17244226.097 7
 94  2 15  4 29 29.9950000  0  7  4  9 12 13  7 24  5
  19385558.977   -21840166.157 8 -18483842.176 9
  19728651.629   -37753811.653 7 -21609641.343 8
  19513272.123   -27168827.652 8 -21172213.961 9
  20016809.471   -20888415.333 8 -17426746.798 6
  22500156.786    -5370217.647 5    145321.875 2
  19221044.238   -41683112.270 7 -19772024.728 9
  20339118.801   -12651719.011 7 -17308507.110 7
 94  2 15  4 29 59.9950000  0  7  4  9 12 13  7 24  5
  19389452.681   -21819706.839 8 -18467899.827 9
  19732320.159   -37734539.714 7 -21594624.234 8
  19508900.279   -27191814.626 8 -21190125.861 9
  20025574.443   -20842345.525 8 -17390848.230 6
  22512363.285    -5305990.799 4    195368.777 2
  19211590.433   -41732809.703 7 -19810749.962 9
  20323441.664   -12734077.010 8 -17372682.150 7
 94  2 15  4 30 29.9950000  0  7  4  9 12 13  7 24  5
  19393443.698   -21798728.435 8 -18451553.015 9
  19736091.068   -37714713.010 7 -21579174.864 8
  19504638.640   -27214220.088 8 -21207584.687 9
  20034374.911   -20796081.012 8 -17354797.953 6
  22524599.524    -5241758.035 5    245420.301 2
  19202233.850   -41781979.453 7 -19849064.047 9
  20307801.851   -12816290.191 8 -17436744.357 7
 94  2 15  4 30 59.9950000  0  7  4  9 12 13  7 24  5
  19397531.189   -21777241.722 8 -18434810.126 9
  19739971.882   -37694330.586 7 -21563292.468 8
  19500480.818   -27236041.992 7 -21224588.763 9
  20043219.388   -20749622.970 8 -17318596.875 6
  22536827.249    -5177531.454 5    295467.037 2
  19192975.060   -41830625.637 7 -19886970.167 9
  20292185.183   -12898337.872 7 -17500677.630 7
 94  2 15  4 31 29.9950000  0  7  4  9 12 13  7 24  5
  19401717.101   -21755247.804 8 -18417672.020 9
  19743952.226   -37673396.973 8 -21546980.583 8
  19496445.312   -27257278.839 8 -21241136.988 9
  20052095.703   -20702972.783 8 -17282246.101 6
  22549047.569    -5113307.207 5    345511.853 2
  19183820.507   -41878736.200 7 -19924458.922 9
  20276607.846   -12980202.293 8 -17564468.088 7
 94  2 15  4 31 59.9950000  0  7  4  9 12 13  7 24  5
  19405997.328   -21732741.036 8 -18400134.267 9
  19748044.483   -37651911.773 7 -21530238.883 8
  19492514.163   -27277929.035 8 -21257228.043 9
  20061009.552   -20656132.155 8 -17245746.902 6
  22561272.746    -5049073.973 5    395563.693 2
  19174766.625   -41926314.351 7 -19961532.769 9
  20261070.473   -13061851.977 8 -17628091.217 7
 94  2 15  4 32 29.9950000  0  7  4  9 12 13  7 24  5
  19410387.308   -21709692.731 8 -18382174.544 9
  19752234.293   -37629881.304 7 -21513072.284 8
  19488693.218   -27297994.334 8 -21272863.332 9
  20069957.637   -20609105.762 8 -17209102.950 6
  22573484.822    -4984837.287 5    445618.293 2
  19165812.784   -41973367.420 7 -19998197.479 9
  20245578.548   -13143279.049 8 -17691540.870 7
 94  2 15  4 32 59.9950000  0  7  4  9 12 13  7 24  5
  19414875.381   -21686093.582 8 -18363785.591 9
  19756529.060   -37607308.228 7 -21495482.895 8
  19484991.021   -27317471.330 7 -21288040.208 9
  20078944.156   -20561893.405 8 -17172314.094 6
  22585709.369    -4920602.519 5    495671.333 2
  19156959.253   -42019886.130 7 -20034445.820 9
  20230129.853   -13224481.744 8 -17754815.692 7
 94  2 15  4 33 29.9950000  0  7  4  9 12 13  7 24  5
  19419467.213   -21661964.938 8 -18344984.054 9
  19760929.863   -37584201.266 7 -21477477.466 8
  19481396.000   -27336361.826 8 -21302760.092 9
  20087963.592   -20514499.754 8 -17135383.973 6
  22597925.821    -4856374.374 5    545719.247 2
  19148209.540   -42065873.585 7 -20070280.185 9
  20214712.666   -13305481.965 8 -17817932.745 7
 94  2 15  4 33 59.9950000  0  7  4  9 12 13  7 24  5
  19424161.183   -21637306.885 8 -18325769.989 9
  19765427.020   -37560561.363 7 -21459056.776 8
  19477911.063   -27354661.021 7 -21317019.197 9
  20097013.097   -20466923.164 8 -17098311.309 6
  22610157.803    -4792155.348 5    595760.021 2
  19139558.339   -42111333.804 7 -20105703.739 9
  20199337.360   -13386282.443 8 -17880894.137 7
 94  2 15  4 34 29.9950000  0  8  4  9 12 13  7 24 20  5
  19428950.907   -21612144.084 8 -18306162.604 9
  19770025.956   -37536386.884 8 -21440219.530 8
  19474540.826   -27372366.830 8 -21330815.935 9
  20106101.276   -20419164.374 8 -17061096.658 6
  22622377.644    -4727953.752 5    645787.263 2
  19131009.248   -42156249.025 7 -20140702.596 9
  23154832.643    -7629983.43514   -885255.401 2
  20183991.583   -13466908.059 8 -17943719.290 7
 94  2 15  4 34 59.9950000  0  8  4  9 12 13  7 24 20  5
  19433826.852   -21586511.571 8 -18286189.216 9
  19774733.387   -37511680.194 7 -21420967.558 8
  19471285.020   -27389483.416 8 -21344153.549 9
  20115226.149   -20371230.475 8 -17023745.562 6
  22634598.623    -4663768.161 5    695802.006 2
  19122569.760   -42200616.721 7 -20175274.812 9
  23134125.828    -7738851.872 4   -970087.927 2
  20168682.442   -13547366.661 8 -18006414.319 7
 94  2 15  4 35 29.9950000  0  8  4  9 12 13  7 24 20  5
  19438795.402   -21560393.362 8 -18265837.373 9
  19779531.835   -37486431.494 7 -21401293.260 8
  19468142.056   -27406007.144 7 -21357029.192 9
  20124381.810   -20323120.768 8 -16986257.480 6
  22646808.241    -4599582.957 5    745816.393 2
  19114227.825   -42244440.892 7 -20209423.497 9
  23113398.297    -7847740.843 4  -1054936.426 2
  20153403.669   -13627653.364 8 -18068975.365 7
 94  2 15  4 35 59.9950000  0  8  4  9 12 13  7 24 20  5
  19443865.402   -21533760.571 8 -18245084.544 9
  19784442.016   -37460627.377 7 -21381186.181 8
  19465110.644   -27421936.352 7 -21369441.558 9
  20133567.781   -20274836.268 8 -16948633.201 6
  22659025.323    -4535383.782 5    795841.715 2
  19105990.758   -42287731.569 7 -20243156.495 9
  23092677.062    -7956648.189 4  -1139799.336 2
  20138160.811   -13707752.622 8 -18131390.370 7
 94  2 15  4 36 29.9950000  0  8  4  9 12 13  7 24 20  5
  19449034.544   -21506606.477 8 -18223925.520 9
  19789461.711   -37434259.546 7 -21360639.826 8
  19462189.886   -27437270.889 7 -21381390.560 9
  20142786.849   -20226379.876 8 -16910874.962 6
  22671243.695    -4471152.232 5    845892.329 2
  19097853.161   -42330494.627 7 -20276478.347 9
  23071939.099    -8065573.149 4  -1224675.826 2
  20122953.239   -13787663.003 8 -18193658.209 8
 94  2 15  4 36 59.9950000  0  8  4  9 12 13  7 24 20  5
  19454299.559   -21478914.876 8 -18202347.634 9
  19794584.115   -37407335.476 7 -21339660.034 8
  19459389.255   -27452009.369 7 -21392875.086 9
  20152040.752   -20177752.922 8 -16872983.830 6
  22683474.357    -4406870.776 5    895981.784 2
  19089812.878   -42372750.045 7 -20309404.637 9
  23051213.367    -8174513.901 5  -1309564.674 2
  20107785.480   -13867365.409 8 -18255763.960 8
 94  2 15  4 37 29.9950000  0  8  4  9 12 13  7 24 20  5
  19459673.458   -21450680.640 8 -18180346.940 9
  19799809.827   -37379867.445 7 -21318256.394 8
  19456695.920   -27466149.792 7 -21403893.598 9
  20161329.372   -20128955.922 8 -16834960.185 6
  22695716.143    -4342544.206 5    946106.303 2
  19081867.388   -42414511.377 7 -20341945.924 9
  23030482.629    -8283467.463 5  -1394463.566 2
  20092665.747   -13946846.938 8 -18317697.610 8
 94  2 15  4 37 59.9950000  0  8  4  9 12 13  7 24 20  5
  19465146.290   -21421925.221 8 -18157940.109 9
  19805141.636   -37351866.275 7 -21296437.302 8
  19454118.634   -27479694.475 8 -21414447.917 9
  20170647.581   -20079994.537 8 -16796808.479 6
  22707961.825    -4278186.576 5    996255.094 2
  19074014.475   -42455772.142 7 -20374097.176 9
  23009750.691    -8392435.679 5  -1479373.812 2
  20077585.077   -14026103.388 8 -18379455.887 8
 94  2 15  4 38 29.9950000  0  8  4  9 12 13  7 24 20  5
  19470716.014   -21392667.163 8 -18135141.626 9
  19810569.138   -37323341.680 7 -21274210.348 8
  19451656.978   -27492641.304 8 -21424536.368 9
  20179992.772   -20030868.712 8 -16758528.600 6
  22720213.174    -4213817.242 5   1046413.096 2
  19066260.732   -42496504.913 7 -20405836.992 9
  22989009.370    -8501415.312 5  -1564292.949 2
  20062543.140   -14105128.279 8 -18441033.707 8
 94  2 15  4 38 59.9950000  0  8  4  9 12 13  7 24 20  5
  19476375.106   -21362914.532 8 -18111957.739 9
  19816096.832   -37294307.439 7 -21251586.285 8
  19449306.545   -27504989.902 8 -21434158.633 9
  20189371.329   -19981580.984 8 -16720122.569 6
  22732467.370    -4149468.809 4   1096554.748 2
  19058613.836   -42536704.328 7 -20437161.204 9
  22968254.828    -8610405.579 5  -1649220.390 2
  20047547.462   -14183922.447 8 -18502431.758 8
 94  2 15  4 39 29.9950000  0  8  4  9 12 13  7 24 20  5
  19482132.740   -21332673.240 8 -18088393.118 9
  19821713.263   -37264762.807 7 -21228564.507 8
  19447069.884   -27516741.643 8 -21443315.844 9
  20198778.307   -19932135.262 8 -16681593.448 6
  22744691.917    -4085158.464 5   1146666.638 2
  19051068.570   -42576351.164 7 -20468054.841 9
  22947502.595    -8719407.018 5  -1734156.546 2
  20032593.334   -14262498.248 8 -18563659.652 8
 94  2 15  4 39 59.9950000  0  8  4  9 12 13  7 24 20  5
  19487981.931   -21301926.212 8 -18064434.384 9
  19827438.730   -37234704.889 7 -21205142.749 8
  19444949.212   -27527892.233 8 -21452004.639 9
  20208217.992   -19882529.782 8 -16642939.836 6
  22756930.075    -4020866.147 4   1196764.538 2
  19043633.297   -42615419.050 7 -20498497.346 9
  22926775.873    -8828414.360 5  -1819097.288 2
  20017687.293   -14340858.749 8 -18624719.769 8
 94  2 15  4 40 29.9950000  0  8  4  9 12 13  7 24 20  5
  19493932.272   -21270668.558 8 -18040077.758 9
  19833252.515   -37204147.493 7 -21181331.817 8
  19442938.384   -27538439.962 7 -21460223.637 9
  20217689.215   -19832765.625 8 -16604162.571 6
  22769167.783    -3956582.098 4   1246856.041 2
  19036307.509   -42653914.172 7 -20528493.525 9
  22906041.058    -8937425.132 5  -1904040.721 2
  20002816.089   -14419013.961 8 -18685619.931 8
 94  2 15  4 40 59.9950000  0  8  4  9 12 13  7 24 20  5
  19499975.908   -21238896.008 8 -18015319.935 9
  19839161.904   -37173096.109 7 -21157135.933 8
  19441045.374   -27548383.100 7 -21467971.537 9
  20227190.747   -19782843.470 8 -16565262.179 6
  22781396.377    -3892290.301 4   1296953.518 2
  19029090.964   -42691847.986 7 -20558052.338 9
  22885282.678    -9046436.748 5  -1988984.804 2
  19987978.940   -14496971.339 8 -18746365.935 8
 94  2 15  4 41 29.9950000  0  8  4  9 12 13  7 24 20  5
  19506120.544   -21206618.514 8 -17990168.638 9
  19845164.618   -37141543.168 7 -21132549.247 8
  19439271.173   -27557726.823 7 -21475252.377 9
  20236719.291   -19732770.876 8 -16526244.588 6
  22793631.267    -3827979.938 4   1347065.449 2
  19021976.470   -42729226.802 7 -20587178.680 9
  22864540.818    -9155453.240 5  -2073932.731 2
  19973178.996   -14574732.503 8 -18806959.050 8
 94  2 15  4 41 59.9950000  0  8  4  9 12 13  7 24 20  5
  19512353.888   -21173843.181 8 -17964629.416 9
  19851260.658   -37109485.777 7 -21107569.466 8
  19437607.534   -27566467.929 8 -21482063.630 9
  20246276.794   -19682547.260 8 -16487109.307 6
  22805884.355    -3763646.794 4   1397195.117 2
  19014969.421   -42766055.242 7 -20615876.161 9
  22843801.865    -9264470.515 5  -2158881.177 2
  19958420.453   -14652293.337 8 -18867396.047 8
 94  2 15  4 42 29.9950000  0  8  4  9 12 13  7 24 20  5
  19518683.077   -21140590.558 8 -17938718.277 9
  19857461.745   -37076910.766 7 -21082186.366 8
  19436056.918   -27574605.432 7 -21488404.545 9
  20255866.286   -19632173.863 8 -16447857.301 6
  22818117.086    -3699316.965 4   1447322.317 2
  19008064.900   -42802341.210 7 -20644150.927 9
  22823055.447    -9373486.566 5  -2243828.706 2
  19943698.425   -14729657.977 8 -18927680.179 8
 94  2 15  4 42 59.9950000  0  8  4  9 12 13  7 24 20  5
  19525100.374   -21106869.068 8 -17912441.785 9
  19863764.222   -37043800.116 7 -21056385.860 8
  19434622.651   -27582142.951 7 -21494277.943 9
  20265477.362   -19581656.723 8 -16408493.291 6
  22830359.861    -3634993.070 4   1497444.825 2
  19001263.809   -42838084.864 7 -20672003.110 9
  22802303.604    -9482504.049 5  -2328777.337 2
  19929015.520   -14806816.561 8 -18987803.749 8
 94  2 15  4 43 29.9950000  0  8  4  9 12 13  7 24 20  5
  19531607.999   -21072679.479 8 -17885800.545 9
  19870169.618   -37010150.107 7 -21030165.085 8
  19433302.275   -27589079.054 7 -21499682.697 9
  20275117.458   -19530996.815 7 -16369018.053 6
  22842603.535    -3570666.373 4   1547569.460 2
  18994565.726   -42873280.639 7 -20699428.393 9
  22781557.246    -9591520.249 5  -2413725.018 2
  19914374.495   -14883746.518 8 -19047749.169 8
 94  2 15  4 43 59.9950000  0  8  4  9 12 13  7 24 20  5
  19538204.183   -21038005.191 8 -17858781.653 9
  19876671.966   -36975971.009 7 -21003532.069 8
  19432099.328   -27595410.088 7 -21504616.019 9
  20284784.656   -19480192.746 8 -16329430.498 6
  22854828.801    -3506339.543 4   1597694.322 2
  18987971.161   -42907926.035 7 -20726424.817 9
  22760820.542    -9700530.491 5  -2498668.086 2
  19899781.498   -14960437.250 8 -19107508.208 8
 94  2 15  4 44 29.9950000  0  8  4  9 12 13  7 24 20  5
  19544898.248   -21002838.569 8 -17831379.077 9
  19883273.546   -36941265.411 7 -20976488.756 8
  19431010.152   -27601131.457 7 -21509074.224 9
  20294481.383   -19429242.480 8 -16289728.997 6
  22867085.036    -3442014.717 4   1647817.578 2
  18981483.652   -42942024.630 7 -20752995.140 9
  22740065.880    -9809529.127 5  -2583602.033 2
  19885237.876   -15036861.659 8 -19167059.696 8
 94  2 15  4 44 59.9950000  0  8  4  9 12 13  7 24 20  5
  19551682.762   -20967186.280 8 -17803598.049 9
  19889973.848   -36906063.468 7 -20949058.647 8
  19430034.147   -27606252.732 7 -21513064.810 9
  20304198.916   -19378157.355 8 -16249922.364 6
  22879323.104    -3377695.122 4   1697936.778 2
  18975093.516   -42975590.089 7 -20779150.022 9
  22719324.949    -9918524.413 5  -2668533.402 2
  19870753.014   -15113010.636 8 -19226396.537 8
 94  2 15  4 45 29.9950000  0  8  4  9 12 13  7 24 20  5
  19558559.281   -20931049.403 8 -17775439.451 9
  19896765.796   -36870376.799 7 -20921250.877 8
  19429176.111   -27610772.716 7 -21516586.876 9
  20313946.907   -19326938.655 8 -16210011.698 5
  22891557.964    -3313394.101 5   1748041.299 2
  18968807.888   -43008631.469 7 -20804896.532 9
  22698603.744   -10027513.638 5  -2753460.067 2
  19856308.504   -15188886.868 8 -19285520.865 8
 94  2 15  4 45 59.9950000  0  8  4  9 12 13  7 24 20  5
  19565524.149   -20894433.578 8 -17746907.645 9
  19903643.185   -36834200.799 7 -20893061.799 8
  19428433.256   -27614688.769 7 -21519638.369 9
  20323722.510   -19275586.030 7 -16169996.666 5
  22903787.908    -3249126.825 4   1798119.766 2
  18962619.991   -43041155.747 7 -20830240.120 9
  22677868.688   -10136493.186 5  -2838379.173 2
  19841917.386   -15264511.704 8 -19344449.320 8
 94  2 15  4 46 29.9950000  0  8  4  9 12 13  7 24 20  5
  19572583.902   -20857351.034 8 -17718012.137 9
  19910623.252   -36797540.287 7 -20864495.181 8
  19427801.413   -27618000.440 8 -21522218.885 9
  20333515.230   -19224100.771 7 -16129878.270 5
  22916005.020    -3184879.426 4   1848182.711 2
  18956523.382   -43073160.079 7 -20855178.549 9
  22657125.359   -10245461.205 5  -2923289.312 2
  19827569.229   -15339900.900 8 -19403194.152 8
 94  2 15  4 46 59.9950000  0  8  4  9 12 13  7 24 20  5
  19579727.896   -20819805.225 8 -17688755.672 9
  19917697.665   -36760388.988 7 -20835546.132 8
  19427283.881   -27620706.582 7 -21524327.585 9
  20343338.770   -19172484.176 8 -16089657.542 5
  22928248.784    -3120630.297 5   1898246.935 1
  18950539.974   -43104640.115 7 -20879708.440 9
  22636383.078   -10354415.081 5  -3008188.385 2
  19813272.517   -15415075.399 8 -19461771.664 8
 94  2 15  4 47 29.9950000  0  8  4  9 12 13  7 24 20  5
  19586959.250   -20781797.525 8 -17659139.282 9
  19924860.336   -36722736.873 7 -20806206.845 8
  19426881.350   -27622809.420 7 -21525966.156 9
  20353186.142   -19120740.275 8 -16049337.632 5
  22940465.926    -3056367.073 5   1948322.136 1
  18944649.352   -43135595.837 7 -20903829.780 9
  22615653.449   -10463355.833 5  -3093077.276 2
  19799000.957   -15490049.508 8 -19520193.066 8
 94  2 15  4 47 59.9950000  0  8  4  9 12 13  7 24 20  5
  19594279.732   -20743328.488 8 -17629163.423 9
  19932117.082   -36684593.229 7 -20776484.546 7
  19426598.046   -27624309.040 8 -21527134.705 9
  20363054.801   -19068871.415 8 -16008920.340 5
  22952697.668    -2992077.880 5   1998417.657 1
  18938860.150   -43166013.338 7 -20927531.725 9
  22594931.494   -10572282.229 5  -3177955.002 2
  19784771.488   -15564820.949 8 -19578456.517 8
 94  2 15  4 48 29.9950000  0  8  4  9 12 13  7 24 20  5
  19601688.803   -20704396.751 8 -17598826.994 9
  19939470.002   -36645954.534 7 -20746376.473 7
  19426431.122   -27625200.569 7 -21527829.409 9
  20372947.172   -19016874.655 8 -15968403.373 5
  22964937.355    -2927748.163 5   2048544.711 2
  18933175.875   -43195883.080 7 -20950806.845 9
  22574196.859   -10681187.713 5  -3262816.382 2
  19770591.754   -15639365.389 8 -19636543.093 8
 94  2 15  4 48 59.9950000  0  8  4  9 12 13  7 24 20  5
  19609181.246   -20665014.424 8 -17568139.473 9
  19946920.564   -36606816.280 7 -20715879.146 7
  19426372.872   -27625490.512 7 -21528055.321 9
  20382865.836   -18964758.347 7 -15927793.266 5
  22977183.997    -2863389.440 4   2098694.360 2
  18927592.570   -43225219.895 7 -20973666.685 9
  22553466.240   -10790077.072 5  -3347665.212 2
  19756447.576   -15713671.616 8 -19694444.058 8
 94  2 15  4 49 29.9950000  0  8  4  9 12 13  7 24 20  5
  19616764.047   -20625165.931 8 -17537088.699 9
  19954459.595   -36567190.968 7 -20685002.303 7
  19426434.719   -27625176.184 7 -21527810.418 9
  20392808.482   -18912521.744 8 -15887089.414 5
  22989446.317    -2799019.971 5   2148852.318 2
  18922114.942   -43254020.151 8 -20996108.435 9
  22532772.736   -10898946.300 5  -3432498.362 2
  19742351.454   -15787724.923 8 -19752147.920 8
 94  2 15  4 49 59.9950000  0  8  4  9 12 13  7 24 20  5
  19624437.834   -20584844.188 8 -17505669.146 9
  19962090.752   -36527094.659 7 -20653758.432 7
  19426606.710   -27624257.974 8 -21527094.933 9
  20402767.168   -18860167.363 7 -15846293.801 5
  23001690.501    -2734655.387 5   2199006.566 2
  18916738.584   -43282280.303 7 -21018129.330 9
  22512061.544   -11007794.469 5  -3517315.046 2
  19728315.711   -15861518.618 8 -19809649.509 8
 94  2 15  4 50 29.9950000  0  8  4  9 12 13  7 24 20  5
  19632202.279   -20544050.648 8 -17473881.977 9
  19969811.517   -36486529.395 7 -20622149.157 7
  19426898.378   -27622735.354 7 -21525908.486 9
  20412755.294   -18807696.182 7 -15805407.152 5
  23013935.464    -2670294.987 5   2249157.561 2
  18911459.989   -43310009.089 7 -21039736.167 9
  22491353.590   -11116619.186 5  -3602113.522 2
  19714321.669   -15935044.940 8 -19866942.747 8
 94  2 15  4 50 59.9950000  0  8  4  9 12 13  7 24 20  5
  19640054.983   -20502771.282 8 -17441716.260 9
  19977612.387   -36445516.144 7 -20590190.780 7
  19427304.897   -27620609.111 7 -21524251.690 9
  20422760.687   -18755110.970 8 -15764431.656 5
  23026179.468    -2605946.112 5   2299299.502 2
  18906282.633   -43337202.931 7 -21060926.165 9
  22470631.096   -11225419.857 5  -3686893.245 2
  19700383.059   -16008300.528 8 -19924025.019 9
 94  2 15  4 51 29.9950000  0  8  4  9 12 13  7 24 20  5
  19648004.999   -20461008.747 8 -17409174.007 9
  19985501.066   -36404065.325 7 -20557891.453 7
  19427826.056   -27617881.464 7 -21522126.244 9
  20432788.745   -18702415.752 7 -15723370.454 5
  23038420.294    -2541617.683 5   2349425.541 2
  18901212.243   -43363852.271 7 -21081691.890 9
  22449939.840   -11334197.129 5  -3771654.707 2
  19686494.453   -16081276.826 8 -19980889.666 9
 94  2 15  4 51 59.9950000  0  8  4  9 12 13  7 24 20  5
  19656036.829   -20418788.337 8 -17376274.986 9
  19993475.305   -36362156.385 7 -20525235.150 7
  19428456.939   -27614550.888 7 -21519530.988 9
  20442838.148   -18649610.571 7 -15682223.559 5
  23050658.811    -2477295.447 5   2399546.774 2
  18896246.121   -43389954.860 7 -21102031.539 9
  22429238.511   -11442947.579 5  -3856395.260 2
  19672662.059   -16153971.783 8 -20037535.076 9
 94  2 15  4 52 29.9950000  0  8  4  9 12 13  7 24 20  5
  19664157.727   -20376122.874 8 -17343029.177 9
  20001539.452   -36319773.362 7 -20492209.433 7
  19429205.071   -27610616.177 7 -21516465.005 9
  20452907.877   -18596695.989 7 -15640991.412 5
  23062887.855    -2412984.790 4   2449658.980 2
  18891378.960   -43415515.930 7 -21121949.266 9
  22408560.716   -11551667.974 5  -3941112.457 2
  19658880.570   -16226384.650 8 -20093960.692 9
 94  2 15  4 52 59.9950000  0  8  4  9 12 13  7 24 20  5
  19672359.179   -20333024.482 8 -17309446.014 9
  20009701.362   -36276899.379 7 -20458801.137 7
  19430069.942   -27606081.437 7 -21512931.440 9
  20462993.434   -18543677.907 7 -15599678.608 5
  23075140.073    -2348695.072 4   2499754.736 2
  18886621.824   -43440530.619 7 -21141441.229 9
  22387874.167   -11660360.824 5  -4025808.130 2
  19645153.463   -16298523.352 8 -20150172.663 9
 94  2 15  4 53 29.9950000  0  8  4  9 12 13  7 24 20  5
  19680636.749   -20289517.139 8 -17275544.185 9
  20017958.845   -36233514.148 7 -20424994.492 7
  19431046.996   -27600943.205 7 -21508927.628 9
  20473107.173   -18490554.182 7 -15558283.518 5
  23087368.337    -2284420.844 4   2549838.567 2
  18881963.409   -43465002.823 7 -21160510.468 9
  22367184.201   -11769020.772 5  -4110478.203 2
  19631473.694   -16370393.109 8 -20206175.061 9
 94  2 15  4 53 59.9940000  0  8  4  9 12 13  7 24 20  5
  19688990.855   -20245610.722 7 -17241331.363 9
  20026307.556   -36189625.200 7 -20390795.325 7
  19432139.860   -27595202.569 8 -21504454.417 9
  20483234.732   -18437329.153 7 -15516809.472 5
  23099592.705    -2220165.990 4   2599907.310 2
  18877407.613   -43488943.318 7 -21179165.381 9
  22346535.186   -11877643.102 5  -4195118.969 2
  19617848.546   -16442005.662 8 -20261977.052 9
 94  2 15  4 54 29.9940000  0  7  4  9 12 13 24 20  5
  19697426.326   -20201294.146 8 -17206799.004 9
  20034752.649   -36145249.156 7 -20356216.605 7
  19433346.614   -27588861.703 8 -21499513.494 9
  20493382.676   -18384003.552 7 -15475257.039 5
  18872951.318   -43512354.319 8 -21197407.726 9
  22325864.136   -11986236.045 5  -4279736.834 2
  19604268.487   -16513365.784 8 -20317582.348 9
 94  2 15  4 54 59.9940000  0  7  4  9 12 13 24 20  5
  19705937.403   -20156561.663 8 -17171942.510 9
  20043285.432   -36100393.763 7 -20321264.368 7
  19434666.241   -27581919.767 7 -21494104.189 9
  20503548.429   -18330579.505 7 -15433627.905 4
  18868597.612   -43535233.501 7 -21215235.658 9
  22305207.536   -12094792.930 5  -4364326.569 2
  19590741.792   -16584465.556 8 -20372984.761 9
 94  2 15  4 55 29.9940000  0  7  4  9 12 13 24 20  5
  19714526.457   -20111406.718 8 -17136756.834 9
  20051914.658   -36055081.675 7 -20285956.249 7
  19436098.559   -27574375.571 7 -21488225.603 9
  20513732.558   -18277057.353 7 -15391922.349 4
  18864343.017   -43557589.969 7 -21232656.275 9
  22284552.645   -12203310.167 5  -4448885.435 2
  19577260.515   -16655297.038 8 -20428178.119 9
 94  2 15  4 55 59.9940000  0  7  4  9 12 13 24 20  5
  19723208.867   -20065801.995 8 -17101220.689 9
  20060619.312   -36009316.065 7 -20250294.738 7
  19437650.974   -27566228.837 7 -21481877.520 9
  20523935.875   -18223438.376 7 -15350141.319 4
  18860192.630   -43579414.117 7 -21249662.085 9
  22263907.588   -12311785.829 5  -4533411.927 2
  19563834.339   -16725853.499 8 -20483157.184 9
 94  2 15  4 56 29.9940000  0  7  4  9 12 13 24 20  5
  19731972.070   -20019734.316 8 -17065323.812 8
  20069415.972   -35963097.867 7 -20214280.582 7
  19439316.471   -27557480.104 7 -21475060.332 9
  20534155.260   -18169724.527 7 -15308286.373 4
  18856138.507   -43600702.331 7 -21266250.313 9
  22243280.128   -12420218.566 5  -4617904.933 2
  19550464.075   -16796122.990 8 -20537912.621 9
 94  2 15  4 56 59.9940000  0  7  4  9 12 13 24 20  5
  19740828.599   -19973206.254 8 -17029068.168 8
  20078291.238   -35916429.630 7 -20177915.742 7
  19441096.909   -27548129.738 7 -21467774.316 9
  20544395.661   -18115917.236 7 -15266358.606 4
  18852187.812   -43621456.340 7 -21282422.255 9
  22222645.742   -12528606.340 5  -4702362.933 2
  19537148.074   -16866098.528 8 -20592439.007 9
 94  2 15  4 57 29.9940000  0  7  4  9 12 13 24 20  5
  19749770.628   -19926228.504 8 -16992462.133 8
  20087259.530   -35869319.266 7 -20141206.358 7
  19442989.349   -27538180.057 7 -21460021.358 8
  20554652.970   -18062020.475 7 -15224361.139 4
  18848344.413   -43641675.800 7 -21298177.664 9
  22202030.004   -12636949.350 5  -4786786.065 2
  19523888.883   -16935784.567 8 -20646739.824 9
 94  2 15  4 57 59.9940000  0  7  4  9 12 13 24 20  5
  19758792.553   -19878806.944 8 -16955510.260 8
  20096307.116   -35821759.837 7 -20104147.095 7
  19444994.480   -27527629.738 7 -21451800.323 8
  20564929.166   -18008033.880 7 -15182293.664 4
  18844598.806   -43661357.234 7 -21313513.841 9
  22181411.298   -12745244.277 5  -4871171.723 2
  19510679.068   -17005184.983 8 -20700818.059 9
 94  2 15  4 58 29.9940000  0  7  4  9 12 13 24 20  5
  19767896.380   -19830963.620 8 -16918229.760 8
  20105443.351   -35773756.725 7 -20066742.073 7
  19447118.330   -27516477.623 7 -21443110.371 8
  20575213.846   -17953957.920 7 -15140156.536 4
  18840954.259   -43680504.503 7 -21328433.784 9
  22160838.311   -12853487.694 5  -4955517.210 2
  19497527.233   -17074302.665 8 -20754675.995 9
 94  2 15  4 58 59.9940000  0  7  4  9 12 13 24 20  5
  19777079.053   -19782717.483 8 -16880635.362 8
  20114662.899   -35725314.304 7 -20028994.764 7
  19449354.182   -27504728.559 7 -21433955.276 8
  20585518.312   -17899798.422 7 -15097954.348 4
  18837411.521   -43699120.374 8 -21342939.649 9
  22140239.991   -12961682.428 5  -5039824.802 2
  19484428.941   -17143148.430 9 -20808322.041 9
 94  2 15  4 59 29.9940000  0  7  4  9 12 13 24 20  5
  19786332.867   -19734071.363 8 -16842729.300 8
  20123966.028   -35676437.127 7 -19990908.670 7
  19451703.806   -27492380.304 7 -21424333.262 8
  20595843.914   -17845554.280 7 -15055686.198 4
  18833969.784   -43717202.572 7 -21357029.671 9
  22119659.748   -13069823.568 5  -5124090.622 2
  19471374.118   -17211729.715 8 -20861761.999 9
 94  2 15  4 59 59.9940000  0  7  4  9 12 13 24 20  5
  19795671.342   -19685016.788 8 -16804504.959 8
  20133348.783   -35627131.020 7 -19952488.323 7
  19454171.427   -27479429.880 7 -21414242.027 8
  20606184.415   -17791223.775 7 -15013350.743 4
  18830631.235   -43734748.610 7 -21370701.913 9
  22099093.026   -13177906.174 5  -5208310.787 2
  19458377.695   -17280032.712 8 -20914985.115 9
 94  2 15  5  0 29.9940000  0  7  4  9 12 13 24 20  5
  19805081.617   -19635551.276 8 -16765960.400 8
  20142808.014   -35577402.744 7 -19913739.049 7
  19456748.863   -27465880.887 7 -21403684.395 8
  20616539.067   -17736811.639 7 -14970951.672 5
  18827396.475   -43751753.516 7 -21383952.471 9
  22078538.926   -13285931.441 5  -5292486.389 2
  19445434.336   -17348048.384 9 -20967984.338 9
 94  2 15  5  0 59.9940000  0  7  4  9 12 13 24 20  5
  19814572.897   -19585676.708 8 -16727097.097 8
  20152347.050   -35527260.130 7 -19874666.902 7
  19459443.667   -27451733.583 7 -21392660.529 8
  20626908.199   -17682319.275 7 -14928490.084 5
  18824266.102   -43768217.900 7 -21396781.861 9
  22057998.735   -13393897.328 5  -5376615.598 2
  19432548.387   -17415771.719 8 -21020755.776 9
 94  2 15  5  1 29.9940000  0  7  4  9 12 13 24 20  5
  19824142.062   -19535404.323 8 -16687923.817 8
  20161969.849   -35476705.780 7 -19835273.911 7
  19462247.207   -27436991.484 7 -21381173.190 8
  20637292.710   -17627750.929 7 -14885969.293 4
  18821234.361   -43784149.579 7 -21409196.156 9
  22037454.108   -13501804.345 5  -5460699.017 2
  19419720.567   -17483195.796 9 -21073294.027 9
 94  2 15  5  1 59.9940000  0  7  4  9 12 13 24 20  5
  19833781.859   -19484733.121 8 -16648439.749 8
  20171673.111   -35425722.123 7 -19795546.402 7
  19465164.097   -27421652.628 7 -21369220.839 8
  20647689.212   -17573105.827 7 -14843388.707 4
  18818302.900   -43799545.980 7 -21421193.335 9
  22016941.559   -13609648.606 5  -5544733.481 2
  19406945.451   -17550296.648 8 -21125580.392 9
 94  2 15  5  2 29.9940000  0  7  4  9 12 13 24 20  5
  19843498.012   -19433678.966 8 -16608657.302 8
  20181461.335   -35374300.486 7 -19755477.607 7
  19468194.969   -27405717.228 7 -21356803.657 8
  20658101.364   -17518385.205 7 -14800749.250 4
  18815470.851   -43814410.874 7 -21432776.359 9
  21996431.917   -13717427.832 6  -5628717.292 2
  19394242.525   -17617077.164 9 -21177617.163 9
 94  2 15  5  2 59.9940000  0  7  4  9 12 13 24 20  5
  19853288.664   -19382248.760 8 -16568581.814 8
  20191326.905   -35322437.729 7 -19715065.096 6
  19471340.601   -27389188.345 7 -21343924.021 8
  20668527.546   -17463592.837 7 -14758053.902 4
  18812743.549   -43828760.991 7 -21443958.264 9
  21975927.282   -13825142.512 5  -5712650.763 2
  19381593.382   -17683538.081 8 -21229404.898 9
 94  2 15  5  3 29.9940000  0  7  4  9 12 13 24 20  5
  19863142.063   -19330432.532 8 -16528205.517 8
  20201280.255   -35270128.873 7 -19674304.961 6
  19474602.223   -27372071.919 7 -21330586.549 8
  20678968.388   -17408735.738 7 -14715308.106 4
  18810107.354   -43842605.140 7 -21454745.909 9
  21955443.183   -13932796.094 6  -5796536.708 2
  19369006.536   -17749679.402 8 -21280943.585 9
 94  2 15  5  3 59.9940000  0  7  4  9 12 13 24 20  5
  19873079.104   -19278221.640 8 -16487521.708 8
  20211322.493   -35217378.535 7 -19633200.813 6
  19477968.563   -27354363.839 7 -21316788.067 8
  20689422.991   -17353810.439 7 -14672509.180 4
  18807568.082   -43855941.624 7 -21465137.984 9
  21934972.844   -14040381.896 6  -5880369.755 3
  19356481.267   -17815509.174 9 -21332239.519 9
 94  2 15  5  4 29.9940000  0  7  4  9 12 13 24 20  5
  19883091.122   -19225620.981 8 -16446534.188 8
  20221440.518   -35164199.115 7 -19591762.321 6
  19481450.652   -27336062.288 7 -21302527.122 8
  20699889.585   -17298815.992 7 -14629656.365 4
  18805130.349   -43868771.975 8 -21475135.640 9
  21914506.223   -14147895.438 6  -5964146.566 3
  19344008.701   -17881039.852 9 -21383302.383 9
 94  2 15  5  4 59.9940000  0  7  4  9 12 13 24 20  5
  19893173.563   -19172620.554 8 -16405235.142 8
  20231636.160   -35110604.745 7 -19550000.497 6
  19485047.203   -27317170.449 7 -21287806.212 8
  20710365.173   -17243756.428 7 -14586752.777 4
  18802787.471   -43881086.009 8 -21484730.990 9
  21894065.234   -14255337.348 6  -6047867.508 3
  19331596.964   -17946278.808 8 -21434137.946 9
 94  2 15  5  5 29.9940000  0  7  4  9 12 13 24 20  5
  19903332.120   -19119238.789 8 -16363638.958 8
  20241914.724   -35056614.621 7 -19507930.285 6
  19488754.526   -27297686.760 7 -21272624.139 8
  20720850.624   -17188631.006 7 -14543797.925 4
  18800540.916   -43892869.467 7 -21493912.892 9
  21873636.926   -14362703.314 6  -6131529.283 3
  19319234.572   -18011227.988 8 -21484747.694 9
 94  2 15  5  5 59.9940000  0  7  4  9 12 13 24 20  5
  19913563.947   -19065488.558 8 -16321755.658 8
  20252259.992   -35002243.605 7 -19465563.277 6
  19492575.591   -27277612.271 7 -21256981.705 8
  20731351.754   -17133441.363 7 -14500793.004 4
  18798402.827   -43904122.617 8 -21502681.584 9
  21853211.317   -14469991.690 6  -6215130.573 3
  19306933.968   -18075886.655 9 -21535131.078 9
 94  2 15  5  6 29.9940000  0  8  4 16  9 12 13 24 20  5
  19923863.167   -19011359.410 8 -16279577.128 8
  22982469.817    -1484766.10014    -85450.185
  20262676.371   -34947488.344 7 -19422896.869 6
  19496508.418   -27256948.142 7 -21240879.813 8
  20741868.143   -17078189.240 7 -14457739.415 4
  18796362.499   -43914834.685 7 -21511028.656 9
  21832818.654   -14577200.604 6  -6298669.997 3
  19294686.157   -18140239.569 9 -21585276.213 9
 94  2 15  5  6 59.9940000  0  8  4 16  9 12 13 24 20  5
  19934240.423   -18956840.766 8 -16237095.040 8
  22962541.383    -1589507.610 5   -167066.707 1
  20273170.966   -34892347.217 7 -19379929.749 6
  19500550.730   -27235695.001 7 -21224318.909 8
  20752392.538   -17022876.149 7 -14414638.266 4
  18794429.137   -43925009.424 7 -21518957.005 9
  21812429.829   -14684328.010 6  -6382145.881 3
  19282499.713   -18204276.040 9 -21635174.769 9
 94  2 15  5  7 29.9940000  0  8  4 16  9 12 13 24 20  5
  19944683.603   -18901940.197 8 -16194315.386 8
  22942596.371    -1694329.267 5   -248745.805 1
  20283741.168   -34836817.131 7 -19336659.585 6
  19504706.453   -27213855.544 7 -21207301.177 8
  20762931.861   -16967505.097 7 -14371492.023 4
  18792590.091   -43934664.345 8 -21526480.311 9
  21792067.745   -14791373.765 6  -6465558.168 3
  19270380.183   -18267971.725 8 -21684807.763 9
 94  2 15  5  7 59.9940000  0  8  4 16  9 12 13 24 20  5
  19955209.496   -18846637.872 8 -16151222.656 8
  22922637.268    -1799221.658 5   -330480.226 1
  20294382.122   -34780889.859 7 -19293079.921 6
  19508973.189   -27191430.762 7 -21189827.323 8
  20773480.719   -16912077.647 7 -14328301.830 4
  18790847.487   -43943808.167 8 -21533605.380 9
  21771711.868   -14898335.975 6  -6548905.310 3
  19258325.978   -18331312.126 9 -21734163.928 9
 94  2 15  5  8 29.9940000  0  8  4 16  9 12 13 24 20  5
  19965810.067   -18790933.875 8 -16107816.952 8
  22902661.647    -1904172.732 5   -412260.220 1
  20305100.481   -34724557.439 7 -19249184.551 6
  19513355.465   -27168417.840 7 -21171895.196 8
  20784037.880   -16856591.645 7 -14285065.928 4
  18789207.173   -43952441.715 7 -21540332.810 9
  21751368.191   -15005208.894 6  -6632182.923 3
  19246343.813   -18394284.127 8 -21783233.021 9
 94  2 15  5  8 59.9940000  0  8  4 16  9 12 13 24 20  5
  19976480.610   -18734855.280 8 -16064119.339 8
  22882683.448    -2009176.296 5   -494081.219 1
  20315892.200   -34667839.663 7 -19204988.884 6
  19517845.007   -27144825.784 7 -21153511.795 8
  20794605.714   -16801056.277 7 -14241791.618 4
  18787659.674   -43960584.075 7 -21546677.497 9
  21731055.963   -15111998.798 6  -6715395.826 3
  19234429.012   -18456896.725 9 -21832022.062 9
 94  2 15  5  9 29.9940000  0  8  4 16  9 12 13 24 20  5
  19987220.675   -18678413.181 7 -16020138.502 8
  22862697.784    -2114209.734 5   -575925.465 1
  20326758.988   -34610738.123 7 -19160494.200 6
  19522444.153   -27120648.352 7 -21134672.268 8
  20805188.118   -16745465.863 7 -14198474.426 4
  18786202.503   -43968224.062 7 -21552630.736 9
  21710736.510   -15218696.217 5  -6798536.648 3
  19222582.953   -18519144.183 9 -21880526.576 9
 94  2 15  5  9 59.9940000  0  8  4 16  9 12 13 24 20  5
  19998027.594   -18621608.222 7 -15975874.878 8
  22842703.366    -2219264.830 5   -657786.535 2
  20337697.725   -34553248.043 7 -19115696.764 6
  19527155.721   -27095886.977 7 -21115377.686 8
  20815776.488   -16689822.370 7 -14155115.854 4
  18784848.400   -43975359.228 7 -21558190.600 9
  21690454.021   -15325299.546 6  -6881604.196 3
  19210801.439   -18581055.831 9 -21928769.416 9
 94  2 15  5 10 29.9940000  0  8  4 16  9 12 13 24 20  5
  20008907.302   -18564452.677 7 -15931338.090 8
  22822710.656    -2324342.200 5   -739664.935 2
  20348714.078   -34495367.881 7 -19070595.346 6
  19531976.294   -27070543.005 7 -21095629.153 8
  20826376.609   -16634127.578 7 -14111717.321 4
  18783585.105   -43981983.188 7 -21563352.126 9
  21670192.278   -15431807.440 6  -6964597.309 3
  19199078.864   -18642652.667 9 -21976766.963 9
 94  2 15  5 10 59.9940000  0  8  4 16  9 12 13 24 20  5
  20019847.508   -18506943.977 7 -15886526.125 7
  22802705.715    -2429438.650 5   -821558.248 2
  20359802.442   -34437099.789 7 -19025191.657 6
  19536912.017   -27044615.099 7 -21075425.599 8
  20836979.429   -16578380.288 7 -14068277.860 4
  18782425.058   -43988085.886 8 -21568107.465 9
  21649938.749   -15538215.251 6  -7047512.473 3
  19187414.240   -18703941.342 8 -22024524.371 9
 94  2 15  5 11 29.9940000  0  8  4 16  9 12 13 24 20  5
  20030860.294   -18449069.578 7 -15841429.187 7
  22782703.083    -2534573.153 5   -903481.124 2
  20370965.034   -34378439.678 7 -18979482.493 6
  19541958.843   -27018106.817 7 -21054769.816 8
  20847597.359   -16522584.482 7 -14024800.623 4
  18781361.214   -43993663.527 7 -21572453.684 9
  21629703.148   -15644523.316 6  -7130349.940 3
  19175815.029   -18764926.005 9 -22072044.896 9
 94  2 15  5 11 59.9940000  0  8  4 16  9 12 13 24 20  5
  20041946.259   -18390822.921 7 -15796042.169 7
  22762688.878    -2639762.316 5   -985446.736 2
  20382200.776   -34319384.216 6 -18933465.275 6
  19547112.456   -26991021.766 7 -21033664.601 8
  20858221.674   -16466743.686 7 -13981288.332 4
  18780396.062   -43998720.293 7 -21576394.021 9
  21609513.055   -15750732.188 6  -7213110.071 3
  19164262.887   -18825604.444 9 -22119326.808 9
 94  2 15  5 12 29.9940000  0  8  4 16  9 12 13 24 20  5
  20053102.976   -18332205.023 7 -15750365.925 7
  22742653.029    -2745009.772 4  -1067457.748 2
  20393512.995   -34259953.079 7 -18887155.362 6
  19552372.374   -26963360.104 7 -21012110.109 8
  20868861.548   -16410858.598 7 -13937741.526 4
  18779536.318   -44003251.325 7 -21579924.710 9
  21589306.804   -15856838.668 6  -7295790.461 3
  19152786.472   -18885947.880 9 -22166347.697 9
 94  2 15  5 12 59.9940000  0  8  4 16  9 12 13 24 20  5
  20064325.496   -18273219.216 7 -15704402.925 7
  22722608.455    -2850319.793 4  -1149517.333 2
  20404888.889   -34200160.689 7 -18840563.858 6
  19557748.043   -26935120.960 7 -20990105.569 8
  20879502.261   -16354928.370 7 -13894159.491 4
  18778773.795   -44007257.428 8 -21583046.334 9
  21569145.371   -15962838.854 6  -7378387.997 3
  19141369.206   -18945929.572 9 -22213086.658 9
 94  2 15  5 13 29.9940000  0  8  4 16  9 12 13 24 20  5
  20075618.678   -18213886.830 7 -15658169.891 7
  22702565.891    -2955689.662 4  -1231623.719 2
  20416338.623   -34140008.512 7 -18793692.059 6
  19563230.977   -26906306.566 7 -20967652.819 8
  20890153.228   -16298955.414 7 -13850544.219 3
  18778109.995   -44010743.652 7 -21585762.865 9
  21548981.900   -16068731.946 6  -7460902.064 3
  19130024.250   -19005538.753 9 -22259535.368 9
 94  2 15  5 13 59.9940000  0  8  4 16  9 12 13 24 20  5
  20086970.260   -18154231.192 7 -15611684.973 7
  22682505.158    -3061104.780 4  -1313765.398 2
  20427852.872   -34079502.414 7 -18746544.464 6
  19568822.586   -26876919.830 7 -20944754.067 8
  20900813.428   -16242943.009 7 -13806898.191 3
  18777545.246   -44013725.713 8 -21588086.541 9
  21528860.970   -16174517.425 6  -7543332.296 3
  19118758.229   -19064763.913 9 -22305684.859 9
 94  2 15  5 14 29.9940000  0  8  4 16  9 12 13 24 20  5
  20098379.761   -18094255.780 7 -15564950.905 7
  22662438.820    -3166550.938 4  -1395931.139 2
  20439434.034   -34018640.661 7 -18699119.753 6
  19574524.908   -26846956.045 7 -20921405.678 8
  20911481.183   -16186885.972 7 -13763217.373 3
  18777073.852   -44016201.391 8 -21590015.642 9
  21508745.166   -16280186.742 6  -7625672.011 3
  19107559.122   -19123598.874 9 -22351530.275 9
 94  2 15  5 14 59.9940000  0  8  4 16  9 12 13 24 20  5
  20109854.318   -18033974.653 7 -15517978.590 7
  22642373.861    -3272024.035 4  -1478117.931 2
  20451085.168   -33957417.098 7 -18651413.091 6
  19580336.445   -26816421.336 7 -20897612.423 8
  20922150.287   -16130790.959 7 -13719506.951 4
  18776693.955   -44018186.788 8 -21591562.708 9
  21488655.533   -16385743.253 6  -7707923.839 3
  19096434.004   -19182066.049 9 -22397089.124 9
 94  2 15  5 15 29.9940000  0  8  4 16  9 12 13 24 20  5
  20121381.847   -17973377.205 7 -15470759.796 7
  22622288.006    -3377517.419 5  -1560320.627 2
  20462804.385   -33895829.036 7 -18603422.438 6
  19586257.406   -26785319.677 7 -20873377.383 7
  20932832.462   -16074661.666 7 -13675769.887 3
  18776408.133   -44019693.742 8 -21592736.951 9
  21468594.501   -16491187.302 6  -7790088.012 3
  19085375.050   -19240184.318 9 -22442376.085 9
 94  2 15  5 15 59.9940000  0  8  4 16  9 12 13 24 20  5
  20132982.017   -17912433.672 8 -15423271.324 7
  22602217.351    -3483033.243 5  -1642540.707 2
  20474591.235   -33833881.905 7 -18555151.940 6
  19592280.956   -26753652.223 7 -20848701.460 8
  20943519.163   -16018499.309 7 -13632007.010 4
  18776215.966   -44020720.325 8 -21593536.876 9
  21448533.799   -16596516.870 6  -7872162.995 3
  19074381.151   -19297956.815 9 -22487393.625 9
 94  2 15  5 16 29.9940000  0  8  4 16  9 12 13 24 20  5
  20144649.429   -17851128.977 7 -15375501.433 7
  22582136.053    -3588563.189 5  -1724771.792 2
  20486448.387   -33771577.810 7 -18506603.315 6
  19598413.091   -26721416.483 7 -20823582.707 8
  20954220.585   -15962301.437 7 -13588216.444 4
  18776114.906   -44021247.817 8 -21593947.897 9
  21428543.818   -16701725.952 6  -7954144.092 3
  19063454.555   -19355389.922 9 -22532146.681 9
 94  2 15  5 16 59.9940000  0  8  4 16  9 12 13 24 20  5
  20156381.388   -17789463.486 7 -15327450.404 7
  22562051.637    -3694100.743 5  -1807008.858 2
  20498368.495   -33708928.230 7 -18457785.492 6
  19604657.618   -26688613.979 7 -20798022.334 8
  20964912.923   -15906069.110 7 -13544399.043 4
  18776109.210   -44021265.980 8 -21593962.058 9
  21408545.772   -16806812.361 6  -8036029.596 3
  19052586.209   -19412482.900 9 -22576634.722 9
 94  2 15  5 17 29.9940000  0  8  4 16  9 12 13 24 20  5
  20168182.957   -17727451.512 7 -15279129.380 7
  22541966.801    -3799655.013 5  -1889258.896 2
  20510353.118   -33645944.988 7 -18408707.652 6
  19611004.644   -26655252.361 7 -20772026.290 8
  20975622.709   -15849810.104 7 -13500560.864 4
  18776204.724   -44020777.097 8 -21593581.113 9
  21388560.678   -16911780.323 6  -8117822.797 3
  19041789.933   -19469222.679 9 -22620847.543 9
 94  2 15  5 17 59.9940000  0  8  4 16  9 12 13 24 20  5
  20180041.818   -17665111.791 7 -15230552.963 7
  22521874.501    -3905212.816 5  -1971511.695 2
  20522405.734   -33582616.521 6 -18359360.815 6
  19617460.645   -26621330.154 7 -20745593.406 8
  20986335.252   -15793522.820 7 -13456700.641 4
  18776392.274   -44019770.343 8 -21592796.619 9
  21368609.340   -17016624.905 6  -8199519.882 3
  19031063.539   -19525588.273 9 -22664768.797 9
 94  2 15  5 18 29.9940000  0  8  4 16  9 12 13 24 20  5
  20191964.864   -17602476.884 7 -15181746.533 7
  22501792.303    -4010768.036 5  -2053762.516 2
  20534521.097   -33518954.931 7 -18309754.423 6
  19624019.684   -26586851.671 7 -20718727.091 8
  20997050.584   -15737211.229 7 -13412821.476 4
  18776682.743   -44018253.197 8 -21591614.422 9
  21348681.026   -17121346.762 6  -8281121.297 4
  19020409.814   -19581575.853 9 -22708395.476 9
 94  2 15  5 18 59.9940000  0  8  4 16  9 12 13 24 20  5
  20203938.125   -17539555.576 7 -15132716.964 7
  22481707.258    -4116318.433 5  -2136009.532 2
  20546693.270   -33454963.968 7 -18259891.362 6
  19630684.160   -26551813.216 7 -20691424.411 8
  21007771.882   -15680871.587 7 -13368920.452 4
  18777068.966   -44016224.034 8 -21590033.252 9
  21328779.333   -17225938.571 6  -8362621.414 4
  19009831.278   -19637173.023 9 -22751717.949 9
 94  2 15  5 19 29.9940000  0  8  4 16  9 12 13 24 20  5
  20215963.730   -17476346.208 7 -15083462.895 7
  22461616.846    -4221867.729 5  -2218255.768 2
  20558941.411   -33390627.793 7 -18209759.274 6
  19637463.067   -26516217.688 7 -20663687.665 8
  21018497.107   -15624506.022 7 -13324999.239 4
  18777551.482   -44013695.443 8 -21588062.927 9
  21308900.485   -17330399.393 6  -8444019.450 4
  18999325.051   -19692369.644 9 -22794728.320 9
 94  2 15  5 19 59.9940000  0  8  4 16  9 12 13 24 20  5
  20228048.184   -17412846.977 7 -15033982.969 7
  22441538.036    -4327410.576 5  -2300496.948 2
  20571244.444   -33325958.652 6 -18159367.749 5
  19644338.238   -26480069.975 7 -20635520.618 8
  21029223.322   -15568119.469 7 -13281061.680 4
  18778130.651   -44010669.477 8 -21585705.028 9
  21289032.639   -17434731.010 6  -8525316.809 4
  18988896.500   -19747171.713 9 -22837431.215 9
